[[{"header":{"parameterUnit":"m.s-1","parameterCategory":1,"la1":31.0,"la2":29.5877,"lo1":-88.7671,"lo2":-86.6584,"dy":0.0162,"dx":0.0185,"nx":115,"ny":88,"refTime":"2024-05-13T06:00:00:Z","depth":0,"parameterNumber":2,"parameterNumberName":"U-component_of_WINDS"},"data":[0.0,0.0,0.0,0.0,0.0,0.0,0.0,0.0,0.0,0.0,0.0,0.0,0.0,0.0,0.0,0.0,0.0,0.0,0.0,0.0,0.0,0.0,0.0,0.0,0.0,0.0,0.0,0.0,0.0,0.0,0.0,0.0,0.0,0.0,0.0,0.0,0.0,0.0,0.0,0.0,0.0,0.0,0.0,0.0,0.0,0.0,0.0,0.0,0.0,0.0,0.0,0.0,0.0,0.0,0.0,0.0,0.0,0.0,0.0,0.0,0.0,0.0,0.0,0.0,0.0,0.0,0.0,0.0,0.0,0.0,0.0,0.0,0.0,0.0,0.0,0.0,0.0,0.0,0.0,0.0,0.0,0.0,0.0,0.0,0.0,0.0,0.0,0.0,0.0,0.0,0.0,0.0,0.0,0.0,0.0,0.0,0.0,0.0,0.0,0.0,0.0,0.0,0.0,0.0,0.0,0.0,0.0,0.0,0.0,0.0,0.0,0.0,0.0,0.0,0.0,0.0,0.0,0.0,0.0,0.0,0.0,0.0,0.0,0.0,0.0,0.0,0.0,0.0,0.0,0.0,0.0,0.0,0.0,0.0,0.0,0.0,0.0,0.0,0.0,0.0,0.0,0.0,0.0,0.0,0.0,0.0,0.0,0.0,0.0,0.0,0.0,0.0,0.0,0.0,0.0,0.0,0.0,0.0,0.0,0.0,0.0,0.0,0.0,0.0,0.0,0.0,0.0,0.0,0.0,0.0,0.0,0.0,0.0,0.0,0.0,0.0,0.0,0.0,0.0,0.0,0.0,0.0,0.0,0.0,0.0,0.0,0.0,0.0,0.0,0.0,0.0,0.0,0.0,0.0,0.0,0.0,0.0,0.0,0.0,0.0,0.0,0.0,0.0,0.0,0.0,0.0,0.0,0.0,0.0,0.0,0.0,0.0,0.0,0.0,0.0,0.0,0.0,0.0,0.0,0.0,0.0,0.0,0.0,0.0,0.0,0.0,0.0,0.0,0.0,0.0,0.0,0.0,0.0,0.0,0.0,0.0,0.0,0.0,0.0,0.0,0.0,0.0,0.0,0.0,0.0,0.0,0.0,0.0,0.0,0.0,0.0,0.0,0.0,0.0,0.0,0.0,0.0,0.0,0.0,0.0,0.0,0.0,0.0,0.0,0.0,0.0,0.0,0.0,0.0,0.0,0.0,0.0,0.0,0.0,0.0,0.0,0.0,0.0,0.0,0.0,0.0,0.0,0.0,0.0,0.0,0.0,0.0,0.0,0.0,0.0,0.0,0.0,0.0,0.0,0.0,0.0,0.0,0.0,0.0,0.0,0.0,0.0,0.0,0.0,0.0,0.0,0.0,0.0,0.0,0.0,0.0,0.0,0.0,0.0,0.0,0.0,0.0,0.0,0.0,0.0,0.0,0.0,0.0,0.0,0.0,0.0,0.0,0.0,0.0,0.0,0.0,0.0,0.0,0.0,0.0,0.0,0.0,0.0,0.0,0.0,0.0,0.0,0.0,0.0,0.0,0.0,0.0,0.0,0.0,0.0,0.0,0.0,0.0,0.0,0.0,0.0,0.0,0.0,0.0,0.0,0.0,0.0,0.0,0.0,0.0,0.0,0.0,0.0,0.0,0.0,0.0,0.0,0.0,0.0,0.0,0.0,0.0,0.0,0.0,0.0,0.0,0.0,0.0,0.0,0.0,0.0,0.0,0.0,0.0,0.0,0.0,0.0,0.0,0.0,0.0,0.0,0.0,0.0,0.0,0.0,0.0,0.0,0.0,0.0,0.0,0.0,0.0,0.0,0.0,0.0,0.0,0.0,0.0,0.0,0.0,0.0,0.0,0.0,0.0,0.0,0.0,0.0,0.0,0.0,0.0,0.0,0.0,0.0,0.0,0.0,0.0,0.0,0.0,0.0,0.0,0.0,0.0,0.0,0.0,0.0,0.0,0.0,0.0,0.0,0.0,0.0,0.0,0.0,0.0,0.0,0.0,0.0,0.0,0.0,0.0,0.0,0.0,0.0,0.0,0.0,0.0,0.0,0.0,0.0,0.0,0.0,0.0,0.0,0.0,0.0,0.0,0.0,0.0,0.0,0.0,0.0,0.0,0.0,0.0,0.0,0.0,0.0,0.0,0.0,0.0,0.0,0.0,0.0,0.0,0.0,0.0,0.0,0.0,0.0,0.0,0.0,0.0,0.0,0.0,0.0,0.0,0.0,0.0,0.0,0.0,0.0,0.0,0.0,0.0,0.0,0.0,0.0,0.0,0.0,0.0,0.0,0.0,0.0,0.0,0.0,0.0,0.0,0.0,0.0,0.0,0.0,0.0,0.0,0.0,0.0,0.0,0.0,0.0,0.0,0.0,0.0,0.0,0.0,0.0,0.0,0.0,0.0,0.0,0.0,0.0,0.0,0.0,0.0,0.0,0.0,0.0,0.0,0.0,0.0,0.0,0.0,0.0,0.0,0.0,0.0,0.0,0.0,0.0,0.0,0.0,0.0,0.0,0.0,0.0,0.0,0.0,0.0,0.0,0.0,0.0,0.0,0.0,0.0,0.0,0.0,0.0,0.0,0.0,0.0,0.0,0.0,0.0,0.0,0.0,0.0,0.0,0.0,0.0,0.0,0.0,0.0,0.0,0.0,0.0,0.0,0.0,0.0,0.0,0.0,0.0,0.0,0.0,0.0,0.0,0.0,0.0,0.0,0.0,0.0,0.0,0.0,0.0,0.0,0.0,0.0,0.0,0.0,0.0,0.0,0.0,0.0,0.0,0.0,0.0,0.0,0.0,0.0,0.0,0.0,0.0,0.0,0.0,0.0,0.0,0.0,0.0,0.0,0.0,0.0,0.0,0.0,0.0,0.0,0.0,0.0,0.0,0.0,0.0,0.0,0.0,0.0,0.0,0.0,0.0,0.0,0.0,0.0,0.0,0.0,0.0,0.0,0.0,0.0,0.0,0.0,0.0,0.0,0.0,0.0,0.0,0.0,0.0,0.0,0.0,0.0,0.0,0.0,0.0,0.0,0.0,0.0,0.0,0.0,0.0,0.0,0.0,0.0,0.0,0.0,0.0,0.0,0.0,0.0,0.0,0.0,0.0,0.0,0.0,0.0,0.0,0.0,0.0,0.0,0.0,0.0,0.0,0.0,0.0,0.0,0.0,0.0,0.0,0.0,0.0,0.0,0.0,0.0,0.0,0.0,0.0,0.0,0.0,0.0,0.0,0.0,0.0,0.0,0.0,0.0,0.0,0.0,0.0,0.0,0.0,0.0,0.0,0.0,0.0,0.0,0.0,0.0,0.0,0.0,0.0,0.0,0.0,0.0,0.0,0.0,0.0,0.0,0.0,0.0,0.0,0.0,0.0,0.0,0.0,0.0,0.0,0.0,0.0,0.0,0.0,0.0,0.0,0.0,0.0,0.0,0.0,0.0,0.0,0.0,0.0,0.0,0.0,0.0,0.0,0.0,0.0,0.0,0.0,0.0,0.0,0.0,0.0,0.0,0.0,0.0,0.0,0.0,0.0,0.0,0.0,0.0,0.0,0.0,0.0,0.0,0.0,0.0,0.0,0.0,0.0,0.0,0.0,0.0,0.0,0.0,0.0,0.0,0.0,0.0,0.0,0.0,0.0,0.0,0.0,0.0,0.0,0.0,0.0,0.0,0.0,0.0,0.0,0.0,0.0,0.0,0.0,0.0,0.0,0.0,0.0,0.0,0.0,0.0,0.0,0.0,0.0,0.0,0.0,0.0,0.0,0.0,0.0,0.0,0.0,0.0,0.0,0.0,0.0,0.0,0.0,0.0,0.0,0.0,0.0,0.0,0.0,0.0,0.0,0.0,0.0,0.0,0.0,0.0,0.0,0.0,0.0,0.0,0.0,0.0,0.0,0.0,0.0,0.0,0.0,0.0,0.0,0.0,0.0,0.0,0.0,0.0,0.0,0.0,0.0,0.0,0.0,0.0,0.0,0.0,0.0,0.0,0.0,0.0,0.0,0.0,0.0,0.0,0.0,0.0,0.0,0.0,0.0,0.0,0.0,0.0,0.0,0.0,0.0,0.0,0.0,0.0,0.0,0.0,0.0,0.0,0.0,0.0,0.0,0.0,0.0,0.0,0.0,0.0,0.0,0.0,0.0,0.0,0.0,0.0,0.0,0.0,0.0,0.0,0.0,0.0,0.0,0.0,0.0,0.0,0.0,0.0,0.0,0.0,0.0,0.0,0.0,0.0,0.0,0.0,0.0,0.0,0.0,0.0,0.0,0.0,0.0,0.0,2.5625,0.0,0.0,0.0,0.0,0.0,0.0,0.0,0.0,0.0,0.0,0.0,0.0,0.0,0.0,0.0,0.0,0.0,0.0,0.0,0.0,0.0,0.0,0.0,0.0,0.0,0.0,0.0,0.0,0.0,0.0,0.0,0.0,0.0,0.0,0.0,0.0,0.0,0.0,0.0,0.0,0.0,0.0,0.0,0.0,0.0,0.0,0.0,0.0,0.0,0.0,0.0,0.0,0.0,0.0,0.0,0.0,0.0,0.0,0.0,0.0,0.0,0.0,0.0,0.0,0.0,0.0,0.0,0.0,0.0,0.0,0.0,0.0,0.0,0.0,0.0,0.0,0.0,0.0,0.0,0.0,0.0,0.0,0.0,0.0,0.0,0.0,0.0,0.0,0.0,0.0,0.0,0.0,0.0,0.0,0.0,0.0,0.0,0.0,0.0,0.0,0.0,0.0,0.0,0.0,0.0,0.0,0.0,0.0,0.0,0.0,2.5408,2.4942,2.4127,2.4103,2.4938,0.0,0.0,0.0,0.0,0.0,0.0,0.0,0.0,0.0,0.0,0.0,0.0,0.0,0.0,0.0,0.0,0.0,0.0,0.0,0.0,0.0,0.0,0.0,0.0,0.0,0.0,0.0,0.0,0.0,0.0,0.0,0.0,0.0,0.0,0.0,0.0,0.0,0.0,0.0,0.0,0.0,0.0,0.0,0.0,0.0,0.0,0.0,0.0,0.0,0.0,0.0,0.0,0.0,0.0,0.0,0.0,0.0,0.0,0.0,0.0,0.0,0.0,0.0,0.0,0.0,0.0,0.0,0.0,0.0,0.0,0.0,0.0,0.0,0.0,0.0,0.0,0.0,0.0,0.0,0.0,0.0,0.0,0.0,0.0,0.0,0.0,0.0,0.0,0.0,0.0,0.0,0.0,0.0,0.0,0.0,0.0,0.0,0.0,0.0,0.0,0.0,0.0,0.0,0.0,0.0,0.0,0.0,0.0,0.0,0.0,0.0,0.0,2.3786,2.3647,2.435,0.0,0.0,0.0,0.0,0.0,0.0,0.0,0.0,0.0,0.0,0.0,0.0,0.0,0.0,0.0,0.0,0.0,0.0,0.0,0.0,0.0,0.0,0.0,0.0,0.0,0.0,0.0,0.0,0.0,0.0,0.0,0.0,0.0,0.0,0.0,0.0,0.0,0.0,0.0,0.0,0.0,0.0,0.0,0.0,0.0,0.0,0.0,0.0,0.0,0.0,0.0,0.0,0.0,0.0,0.0,0.0,0.0,0.0,0.0,0.0,0.0,0.0,0.0,0.0,0.0,0.0,0.0,0.0,0.0,0.0,0.0,0.0,0.0,0.0,0.0,0.0,0.0,0.0,0.0,0.0,0.0,0.0,0.0,0.0,0.0,0.0,0.0,0.0,0.0,0.0,0.0,0.0,0.0,0.0,0.0,0.0,0.0,0.0,0.0,0.0,0.0,0.0,0.0,0.0,0.0,0.0,0.0,0.0,0.0,0.0,2.5468,2.5391,2.4525,0.0,2.4258,0.0,0.0,0.0,0.0,0.0,0.0,0.0,0.0,0.0,0.0,0.0,0.0,0.0,0.0,0.0,0.0,0.0,0.0,0.0,0.0,0.0,0.0,0.0,0.0,0.0,0.0,0.0,0.0,0.0,0.0,0.0,0.0,0.0,0.0,0.0,0.0,0.0,0.0,0.0,0.0,0.0,0.0,0.0,0.0,0.0,0.0,0.0,0.0,0.0,0.0,0.0,0.0,0.0,0.0,0.0,0.0,0.0,0.0,0.0,0.0,0.0,0.0,0.0,0.0,0.0,0.0,0.0,0.0,0.0,0.0,0.0,0.0,0.0,0.0,0.0,0.0,0.0,0.0,0.0,0.0,0.0,0.0,0.0,0.0,0.0,0.0,0.0,0.0,0.0,0.0,0.0,0.0,0.0,0.0,0.0,0.0,0.0,0.0,0.0,0.0,0.0,0.0,0.0,0.0,0.0,0.0,0.0,0.0,0.0,0.0,2.4464,2.3894,2.3612,2.3645,0.0,0.0,0.0,0.0,0.0,0.0,0.0,0.0,0.0,0.0,0.0,0.0,0.0,0.0,0.0,0.0,0.0,0.0,0.0,0.0,0.0,0.0,0.0,0.0,0.0,0.0,0.0,0.0,0.0,0.0,0.0,0.0,0.0,0.0,0.0,0.0,0.0,0.0,0.0,0.0,0.0,0.0,0.0,0.0,0.0,0.0,0.0,0.0,0.0,0.0,0.0,0.0,0.0,0.0,0.0,0.0,0.0,0.0,0.0,0.0,0.0,0.0,0.0,0.0,0.0,0.0,0.0,0.0,0.0,0.0,0.0,0.0,0.0,0.0,0.0,0.0,0.0,0.0,0.0,0.0,0.0,0.0,0.0,0.0,0.0,0.0,0.0,0.0,0.0,0.0,0.0,0.0,0.0,0.0,0.0,0.0,0.0,0.0,0.0,0.0,0.0,0.0,0.0,0.0,0.0,0.0,0.0,0.0,0.0,0.0,2.3813,2.3851,2.3197,2.3214,2.3388,2.3744,0.0,0.0,0.0,0.0,0.0,0.0,0.0,0.0,0.0,0.0,0.0,0.0,0.0,0.0,0.0,0.0,0.0,0.0,0.0,0.0,0.0,0.0,0.0,0.0,0.0,0.0,0.0,0.0,0.0,0.0,0.0,0.0,0.0,0.0,0.0,0.0,0.0,0.0,0.0,0.0,0.0,0.0,0.0,0.0,0.0,0.0,0.0,0.0,0.0,0.0,0.0,0.0,0.0,0.0,0.0,0.0,0.0,0.0,0.0,0.0,0.0,0.0,0.0,0.0,0.0,0.0,0.0,0.0,0.0,0.0,0.0,0.0,0.0,0.0,0.0,0.0,0.0,0.0,0.0,0.0,0.0,0.0,0.0,0.0,0.0,0.0,0.0,0.0,0.0,0.0,0.0,0.0,0.0,0.0,0.0,0.0,0.0,0.0,0.0,0.0,0.0,0.0,0.0,0.0,0.0,0.0,0.0,0.0,2.3956,2.4033,2.4072,2.4014,2.4052,2.3667,0.0,0.0,0.0,0.0,0.0,0.0,0.0,0.0,0.0,0.0,0.0,0.0,0.0,0.0,0.0,0.0,0.0,0.0,0.0,0.0,0.0,0.0,0.0,0.0,0.0,0.0,0.0,0.0,0.0,0.0,0.0,0.0,0.0,0.0,0.0,0.0,0.0,0.0,0.0,0.0,0.0,0.0,0.0,0.0,0.0,0.0,0.0,0.0,0.0,0.0,0.0,0.0,0.0,0.0,0.0,0.0,0.0,0.0,0.0,0.0,0.0,0.0,0.0,0.0,0.0,0.0,0.0,0.0,0.0,0.0,0.0,0.0,0.0,0.0,0.0,0.0,0.0,0.0,0.0,0.0,0.0,0.0,0.0,0.0,0.0,0.0,0.0,0.0,0.0,0.0,0.0,0.0,0.0,0.0,0.0,0.0,0.0,0.0,0.0,0.0,0.0,0.0,0.0,0.0,0.0,0.0,0.0,0.0,0.0,2.1658,2.2207,2.3032,2.407,2.309,2.287,0.0,0.0,0.0,0.0,0.0,0.0,0.0,0.0,0.0,0.0,0.0,0.0,0.0,0.0,0.0,0.0,0.0,0.0,0.0,0.0,0.0,0.0,0.0,0.0,0.0,0.0,0.0,0.0,0.0,0.0,0.0,0.0,0.0,0.0,0.0,0.0,0.0,0.0,0.0,0.0,0.0,0.0,0.0,0.0,0.0,0.0,0.0,0.0,0.0,0.0,0.0,0.0,0.0,0.0,0.0,0.0,0.0,0.0,0.0,0.0,0.0,0.0,0.0,0.0,0.0,0.0,0.0,0.0,0.0,0.0,0.0,0.0,0.0,0.0,0.0,0.0,0.0,0.0,0.0,0.0,0.0,0.0,0.0,0.0,0.0,0.0,0.0,0.0,0.0,0.0,0.0,0.0,0.0,0.0,0.0,0.0,0.0,0.0,0.0,0.0,0.0,0.0,0.0,0.0,0.0,0.0,0.0,0.0,0.0,2.0723,0.0,2.2139,2.3242,2.2197,2.1996,0.0,0.0,0.0,0.0,0.0,0.0,0.0,0.0,0.0,0.0,0.0,0.0,0.0,0.0,0.0,0.0,0.0,0.0,0.0,0.0,0.0,0.0,0.0,0.0,0.0,0.0,0.0,0.0,0.0,0.0,0.0,0.0,0.0,0.0,0.0,0.0,0.0,0.0,0.0,0.0,0.0,0.0,0.0,0.0,0.0,0.0,0.0,0.0,0.0,0.0,0.0,0.0,0.0,0.0,0.0,0.0,0.0,0.0,0.0,0.0,0.0,0.0,0.0,0.0,0.0,0.0,0.0,0.0,0.0,0.0,0.0,0.0,0.0,0.0,0.0,0.0,0.0,0.0,0.0,0.0,0.0,0.0,0.0,0.0,0.0,0.0,0.0,0.0,0.0,0.0,0.0,0.0,0.0,0.0,0.0,0.0,0.0,0.0,0.0,0.0,0.0,0.0,0.0,0.0,0.0,0.0,0.0,0.0,2.0704,2.1517,2.1474,2.1554,2.1641,2.1554,2.1158,0.0,0.0,0.0,0.0,0.0,0.0,0.0,0.0,0.0,0.0,0.0,0.0,0.0,0.0,0.0,0.0,0.0,0.0,0.0,0.0,0.0,0.0,0.0,0.0,0.0,0.0,0.0,0.0,0.0,0.0,0.0,0.0,0.0,0.0,0.0,0.0,0.0,0.0,0.0,0.0,0.0,0.0,0.0,0.0,0.0,0.0,0.0,0.0,0.0,0.0,0.0,0.0,0.0,0.0,0.0,0.0,0.0,0.0,0.0,0.0,0.0,0.0,0.0,0.0,0.0,0.0,0.0,0.0,0.0,0.0,0.0,0.0,0.0,0.0,0.0,0.0,0.0,0.0,0.0,0.0,0.0,0.0,0.0,0.0,0.0,0.0,0.0,0.0,0.0,0.0,0.0,0.0,0.0,0.0,0.0,0.0,0.0,0.0,0.0,0.0,0.0,0.0,0.0,0.0,0.0,0.0,0.0,0.0,0.0,2.0723,2.0677,2.1293,2.2447,2.137,2.1466,0.0,0.0,0.0,0.0,0.0,0.0,0.0,0.0,0.0,0.0,0.0,0.0,0.0,0.0,0.0,0.0,0.0,0.0,0.0,0.0,0.0,0.0,0.0,0.0,0.0,0.0,0.0,0.0,0.0,0.0,0.0,0.0,0.0,0.0,0.0,0.0,0.0,0.0,0.0,0.0,0.0,0.0,0.0,0.0,0.0,0.0,0.0,0.0,0.0,0.0,0.0,0.0,0.0,0.0,0.0,0.0,0.0,0.0,0.0,0.0,0.0,0.0,0.0,0.0,0.0,0.0,0.0,0.0,0.0,0.0,0.0,0.0,0.0,0.0,0.0,0.0,0.0,0.0,0.0,0.0,0.0,0.0,0.0,0.0,0.0,0.0,0.0,0.0,0.0,0.0,0.0,0.0,0.0,0.0,0.0,0.0,0.0,0.0,0.0,0.0,0.0,0.0,0.0,0.0,0.0,0.0,0.0,0.0,0.0,2.0792,2.1062,2.1782,2.2926,2.1897,2.209,2.3629,0.0,0.0,0.0,0.0,0.0,0.0,0.0,0.0,0.0,0.0,0.0,0.0,0.0,0.0,0.0,0.0,0.0,0.0,0.0,0.0,0.0,0.0,0.0,0.0,0.0,0.0,0.0,0.0,0.0,0.0,0.0,0.0,0.0,0.0,0.0,0.0,0.0,0.0,0.0,0.0,0.0,0.0,0.0,0.0,0.0,0.0,0.0,0.0,0.0,0.0,0.0,0.0,0.0,0.0,0.0,0.0,0.0,0.0,0.0,0.0,0.0,0.0,0.0,0.0,0.0,0.0,0.0,0.0,0.0,0.0,0.0,0.0,0.0,0.0,0.0,0.0,0.0,0.0,0.0,0.0,0.0,0.0,0.0,0.0,0.0,0.0,0.0,0.0,0.0,0.0,0.0,0.0,0.0,0.0,0.0,0.0,0.0,0.0,0.0,0.0,0.0,0.0,0.0,0.0,0.0,0.0,0.0,0.0,2.16,2.2466,2.2936,2.2983,2.2915,2.2964,0.0,0.0,0.0,0.0,0.0,0.0,0.0,0.0,0.0,0.0,0.0,0.0,0.0,0.0,0.0,0.0,0.0,0.0,0.0,0.0,0.0,0.0,0.0,0.0,0.0,0.0,0.0,0.0,0.0,0.0,0.0,0.0,0.0,0.0,0.0,0.0,0.0,0.0,0.0,0.0,0.0,0.0,0.0,0.0,0.0,0.0,0.0,0.0,0.0,0.0,0.0,0.0,0.0,0.0,0.0,0.0,0.0,0.0,0.0,0.0,0.0,0.0,0.0,0.0,0.0,0.0,0.0,0.0,0.0,0.0,0.0,0.0,0.0,0.0,0.0,0.0,0.0,0.0,0.0,0.0,0.0,0.0,0.0,0.0,0.0,0.0,0.0,0.0,0.0,0.0,0.0,0.0,0.0,0.0,0.0,0.0,0.0,0.0,0.0,0.0,0.0,0.0,0.0,0.0,0.0,0.0,0.0,0.0,0.0,2.2524,2.3889,2.437,2.3802,2.3272,2.3533,0.0,0.0,0.0,0.0,0.0,0.0,0.0,0.0,0.0,0.0,0.0,0.0,0.0,0.0,0.0,0.0,0.0,0.0,0.0,0.0,0.0,0.0,0.0,0.0,0.0,0.0,0.0,0.0,0.0,0.0,0.0,0.0,0.0,0.0,0.0,0.0,0.0,0.0,0.0,0.0,0.0,0.0,0.0,0.0,0.0,0.0,0.0,0.0,0.0,0.0,0.0,0.0,0.0,0.0,0.0,0.0,0.0,0.0,0.0,0.0,0.0,0.0,0.0,0.0,0.0,0.0,0.0,0.0,0.0,0.0,0.0,0.0,0.0,0.0,0.0,0.0,0.0,0.0,0.0,0.0,0.0,0.0,0.0,0.0,0.0,0.0,0.0,0.0,0.0,0.0,0.0,0.0,0.0,0.0,0.0,0.0,0.0,0.0,0.0,0.0,0.0,0.0,0.0,0.0,0.0,0.0,0.0,0.0,2.334,2.3379,2.462,2.5082,2.462,2.4216,2.4463,0.0,0.0,0.0,0.0,0.0,0.0,0.0,0.0,0.0,0.0,0.0,0.0,0.0,0.0,0.0,0.0,0.0,0.0,0.0,0.0,0.0,0.0,0.0,0.0,0.0,0.0,0.0,0.0,0.0,0.0,0.0,0.0,0.0,0.0,0.0,0.0,0.0,0.0,0.0,0.0,0.0,0.0,0.0,0.0,0.0,0.0,0.0,0.0,0.0,0.0,0.0,0.0,0.0,0.0,0.0,0.0,0.0,0.0,0.0,0.0,0.0,0.0,0.0,0.0,0.0,0.0,0.0,0.0,0.0,0.0,0.0,0.0,0.0,0.0,0.0,0.0,0.0,0.0,0.0,0.0,0.0,0.0,0.0,0.0,0.0,0.0,0.0,0.0,0.0,0.0,0.0,0.0,0.0,0.0,0.0,0.0,0.0,0.0,0.0,0.0,0.0,0.0,0.0,0.0,0.0,0.0,0.0,0.0,2.4005,2.411,2.487,2.5313,2.5313,2.537,2.5432,0.0,0.0,0.0,0.0,0.0,0.0,0.0,0.0,0.0,0.0,0.0,0.0,0.0,0.0,0.0,0.0,0.0,0.0,0.0,0.0,0.0,0.0,0.0,0.0,0.0,0.0,0.0,0.0,0.0,0.0,0.0,0.0,0.0,0.0,0.0,0.0,0.0,0.0,0.0,0.0,0.0,0.0,0.0,0.0,0.0,0.0,0.0,0.0,0.0,0.0,0.0,0.0,0.0,0.0,0.0,0.0,0.0,0.0,0.0,0.0,0.0,0.0,0.0,0.0,0.0,0.0,0.0,0.0,0.0,0.0,0.0,0.0,0.0,0.0,0.0,0.0,0.0,0.0,0.0,0.0,0.0,0.0,0.0,0.0,0.0,0.0,0.0,0.0,0.0,0.0,0.0,0.0,0.0,0.0,0.0,0.0,0.0,0.0,0.0,0.0,0.0,0.0,0.0,0.0,0.0,0.0,0.0,0.0,2.3304,2.4082,2.4889,2.5313,2.5313,2.537,2.5428,0.0,0.0,0.0,0.0,0.0,0.0,0.0,0.0,0.0,0.0,0.0,0.0,0.0,0.0,0.0,0.0,0.0,0.0,0.0,0.0,0.0,0.0,0.0,0.0,0.0,0.0,0.0,0.0,0.0,0.0,0.0,0.0,0.0,0.0,0.0,0.0,0.0,0.0,0.0,0.0,0.0,0.0,0.0,0.0,0.0,0.0,0.0,0.0,2.2282,0.0,0.0,0.0,0.0,0.0,0.0,0.0,0.0,0.0,0.0,0.0,0.0,0.0,0.0,0.0,0.0,0.0,0.0,0.0,0.0,0.0,0.0,0.0,0.0,0.0,0.0,0.0,0.0,0.0,0.0,0.0,0.0,0.0,0.0,0.0,0.0,0.0,0.0,0.0,0.0,0.0,0.0,0.0,0.0,0.0,0.0,0.0,0.0,0.0,0.0,0.0,0.0,0.0,0.0,0.0,0.0,0.0,0.0,0.0,2.3736,2.4639,2.5082,2.5313,2.5313,2.5332,2.5409,0.0,0.0,0.0,0.0,0.0,0.0,0.0,0.0,0.0,0.0,0.0,0.0,0.0,0.0,0.0,0.0,0.0,0.0,0.0,0.0,0.0,0.0,0.0,0.0,0.0,0.0,0.0,0.0,0.0,0.0,0.0,0.0,0.0,0.0,0.0,0.0,0.0,0.0,0.0,0.0,0.0,0.0,0.0,0.0,0.0,0.0,0.0,0.0,0.0,0.0,0.0,0.0,0.0,0.0,0.0,0.0,0.0,0.0,0.0,0.0,0.0,0.0,0.0,0.0,0.0,0.0,0.0,0.0,0.0,0.0,0.0,0.0,0.0,0.0,0.0,0.0,0.0,0.0,0.0,0.0,0.0,0.0,0.0,0.0,0.0,0.0,0.0,0.0,0.0,0.0,0.0,0.0,0.0,0.0,0.0,0.0,0.0,0.0,0.0,0.0,0.0,0.0,0.0,0.0,0.0,0.0,0.0,2.3678,2.4476,2.5245,2.5313,2.5313,2.5313,2.5313,2.537,2.5495,0.0,0.0,0.0,0.0,0.0,0.0,0.0,0.0,0.0,0.0,0.0,0.0,0.0,0.0,0.0,0.0,0.0,0.0,0.0,0.0,0.0,0.0,0.0,0.0,0.0,0.0,0.0,0.0,0.0,0.0,0.0,0.0,0.0,0.0,0.0,0.0,0.0,0.0,2.2215,2.1794,0.0,0.0,0.0,0.0,0.0,0.0,0.0,0.0,2.1213,0.0,0.0,0.0,0.0,0.0,0.0,0.0,0.0,0.0,0.0,0.0,0.0,0.0,0.0,0.0,0.0,0.0,0.0,0.0,0.0,0.0,0.0,0.0,0.0,0.0,0.0,0.0,0.0,0.0,0.0,0.0,0.0,0.0,0.0,0.0,0.0,0.0,0.0,0.0,0.0,0.0,0.0,0.0,0.0,0.0,0.0,0.0,0.0,0.0,0.0,0.0,0.0,0.0,0.0,0.0,0.0,2.3621,2.3777,2.4309,2.5264,2.5313,2.5313,2.5313,2.5313,2.5351,2.5418,0.0,0.0,0.0,0.0,0.0,0.0,0.0,0.0,0.0,0.0,0.0,0.0,0.0,0.0,0.0,0.0,0.0,0.0,0.0,0.0,0.0,0.0,0.0,0.0,0.0,0.0,0.0,0.0,0.0,0.0,0.0,0.0,0.0,0.0,0.0,0.0,0.0,0.0,0.0,2.1368,2.1231,0.0,0.0,0.0,0.0,0.0,0.0,0.0,0.0,2.1068,0.0,0.0,0.0,0.0,0.0,0.0,0.0,0.0,0.0,0.0,0.0,0.0,0.0,0.0,0.0,0.0,0.0,0.0,0.0,0.0,0.0,0.0,0.0,0.0,0.0,0.0,0.0,0.0,0.0,0.0,0.0,0.0,0.0,0.0,0.0,0.0,0.0,0.0,0.0,0.0,0.0,0.0,0.0,0.0,0.0,0.0,0.0,0.0,0.0,0.0,0.0,0.0,0.0,0.0,0.0,2.3797,2.4209,2.4656,2.5133,2.5253,2.5313,2.5313,2.5313,2.5313,0.0,0.0,0.0,0.0,0.0,0.0,0.0,0.0,0.0,0.0,0.0,0.0,0.0,0.0,0.0,0.0,0.0,0.0,0.0,0.0,0.0,0.0,0.0,0.0,0.0,0.0,0.0,0.0,0.0,0.0,0.0,0.0,0.0,0.0,0.0,0.0,0.0,0.0,0.0,0.0,2.1117,2.0971,2.0951,0.0,0.0,0.0,0.0,0.0,0.0,2.1098,2.1105,0.0,0.0,0.0,0.0,0.0,0.0,0.0,0.0,0.0,0.0,0.0,0.0,0.0,0.0,0.0,0.0,0.0,0.0,0.0,0.0,0.0,0.0,0.0,0.0,0.0,0.0,0.0,0.0,0.0,0.0,0.0,0.0,0.0,0.0,0.0,0.0,0.0,0.0,0.0,0.0,0.0,0.0,0.0,0.0,0.0,0.0,0.0,0.0,0.0,0.0,0.0,0.0,0.0,0.0,0.0,2.3776,2.455,2.4974,2.501,2.5163,2.5264,2.5303,2.5313,2.5313,0.0,0.0,0.0,0.0,0.0,0.0,0.0,0.0,0.0,0.0,0.0,0.0,0.0,0.0,0.0,0.0,0.0,0.0,0.0,0.0,0.0,0.0,0.0,0.0,0.0,0.0,0.0,0.0,0.0,0.0,0.0,0.0,0.0,0.0,0.0,0.0,0.0,0.0,0.0,0.0,0.0,2.0744,2.035,2.0292,0.0,0.0,0.0,0.0,2.087,2.1245,0.0,0.0,0.0,0.0,0.0,0.0,0.0,0.0,0.0,0.0,0.0,0.0,0.0,0.0,0.0,0.0,0.0,0.0,0.0,0.0,0.0,0.0,0.0,0.0,0.0,0.0,0.0,0.0,0.0,0.0,0.0,0.0,0.0,0.0,0.0,0.0,0.0,0.0,0.0,0.0,0.0,0.0,0.0,0.0,0.0,0.0,0.0,0.0,0.0,0.0,0.0,0.0,0.0,0.0,0.0,0.0,2.3615,2.4384,2.4877,2.4998,2.5022,2.513,2.5284,2.5313,2.5313,0.0,0.0,0.0,0.0,0.0,0.0,0.0,0.0,0.0,0.0,0.0,0.0,0.0,0.0,0.0,0.0,0.0,0.0,0.0,0.0,0.0,0.0,0.0,0.0,0.0,0.0,0.0,0.0,0.0,0.0,0.0,0.0,0.0,0.0,0.0,0.0,0.0,0.0,0.0,0.0,0.0,2.0364,2.0314,2.0277,2.0348,0.0,0.0,2.1085,2.0797,2.1552,0.0,0.0,0.0,0.0,0.0,0.0,0.0,0.0,0.0,0.0,0.0,0.0,0.0,0.0,0.0,0.0,0.0,0.0,0.0,0.0,0.0,0.0,0.0,0.0,0.0,0.0,0.0,0.0,0.0,0.0,0.0,0.0,0.0,0.0,0.0,0.0,0.0,0.0,0.0,0.0,0.0,0.0,0.0,0.0,0.0,0.0,0.0,0.0,0.0,0.0,0.0,0.0,0.0,0.0,0.0,2.4497,2.4266,2.4497,2.467,2.4723,2.491,2.503,2.5122,2.5253,2.5313,0.0,0.0,0.0,0.0,0.0,0.0,0.0,0.0,0.0,0.0,0.0,0.0,0.0,0.0,0.0,0.0,0.0,0.0,0.0,0.0,0.0,0.0,0.0,0.0,0.0,0.0,0.0,0.0,0.0,0.0,0.0,0.0,0.0,0.0,0.0,0.0,0.0,0.0,0.0,0.0,0.0,0.0,1.999,2.0282,0.0,0.0,0.0,2.1561,2.1599,0.0,0.0,0.0,0.0,0.0,0.0,0.0,0.0,0.0,0.0,0.0,0.0,0.0,0.0,0.0,0.0,0.0,0.0,0.0,0.0,0.0,0.0,0.0,0.0,0.0,0.0,0.0,0.0,0.0,0.0,0.0,0.0,0.0,0.0,0.0,0.0,0.0,0.0,0.0,0.0,0.0,0.0,0.0,0.0,0.0,0.0,0.0,0.0,0.0,0.0,0.0,0.0,0.0,0.0,0.0,0.0,0.0,2.4716,2.4528,2.4444,2.4512,2.476,2.491,2.4949,2.5099,0.0,0.0,0.0,0.0,0.0,0.0,0.0,0.0,0.0,0.0,0.0,0.0,0.0,0.0,0.0,0.0,0.0,0.0,0.0,0.0,0.0,0.0,0.0,0.0,0.0,0.0,0.0,2.1336,0.0,0.0,0.0,0.0,0.0,0.0,0.0,0.0,0.0,0.0,0.0,0.0,0.0,0.0,2.0481,2.0227,2.058,2.0985,0.0,0.0,2.2197,2.2362,2.2702,2.2906,0.0,0.0,0.0,0.0,0.0,0.0,0.0,0.0,0.0,0.0,0.0,0.0,0.0,0.0,0.0,0.0,0.0,0.0,0.0,0.0,0.0,0.0,0.0,0.0,0.0,0.0,0.0,0.0,0.0,0.0,0.0,0.0,0.0,0.0,0.0,0.0,0.0,0.0,0.0,0.0,0.0,0.0,0.0,0.0,0.0,0.0,0.0,0.0,0.0,0.0,0.0,0.0,0.0,0.0,0.0,2.4512,2.4321,2.4321,2.4495,2.4522,2.4613,2.4799,2.4834,2.4905,0.0,0.0,0.0,0.0,0.0,0.0,0.0,0.0,0.0,0.0,0.0,0.0,0.0,0.0,0.0,0.0,0.0,0.0,0.0,0.0,0.0,0.0,0.0,0.0,0.0,0.0,0.0,0.0,0.0,0.0,0.0,0.0,0.0,0.0,0.0,0.0,0.0,0.0,0.0,0.0,0.0,2.1341,2.1549,2.1386,2.1366,0.0,0.0,2.309,2.2716,2.3173,2.3535,2.3535,0.0,0.0,0.0,0.0,0.0,0.0,0.0,0.0,0.0,0.0,0.0,0.0,0.0,0.0,0.0,0.0,0.0,0.0,0.0,0.0,0.0,0.0,0.0,0.0,0.0,0.0,0.0,0.0,0.0,0.0,0.0,0.0,0.0,0.0,0.0,0.0,0.0,0.0,0.0,0.0,0.0,0.0,0.0,0.0,0.0,0.0,0.0,0.0,0.0,0.0,0.0,0.0,0.0,2.4357,2.467,2.4357,2.4247,2.4321,2.4431,2.4537,2.4607,2.4719,2.4808,0.0,0.0,0.0,0.0,0.0,0.0,0.0,0.0,0.0,0.0,0.0,0.0,0.0,0.0,0.0,0.0,0.0,0.0,0.0,0.0,0.0,0.0,0.0,0.0,0.0,0.0,0.0,0.0,2.0045,1.9929,1.9929,0.0,0.0,0.0,0.0,0.0,0.0,0.0,0.0,0.0,0.0,2.156,2.1689,2.1958,0.0,0.0,2.2983,2.3432,2.3278,2.3445,2.3595,2.3595,2.3595,0.0,0.0,0.0,0.0,0.0,0.0,0.0,0.0,0.0,0.0,0.0,0.0,0.0,0.0,0.0,0.0,0.0,0.0,0.0,0.0,0.0,0.0,0.0,0.0,0.0,0.0,0.0,0.0,0.0,0.0,0.0,0.0,0.0,0.0,0.0,0.0,0.0,0.0,0.0,0.0,0.0,0.0,0.0,0.0,0.0,0.0,0.0,0.0,0.0,0.0,0.0,0.0,2.4461,2.4804,2.4392,2.419,2.419,2.4337,2.4413,2.4429,2.4555,2.4655,0.0,0.0,0.0,0.0,0.0,0.0,0.0,0.0,0.0,0.0,0.0,0.0,0.0,0.0,0.0,0.0,0.0,0.0,0.0,0.0,0.0,0.0,0.0,0.0,0.0,0.0,0.0,0.0,1.9705,1.9705,1.9705,0.0,0.0,0.0,0.0,0.0,0.0,0.0,0.0,0.0,0.0,2.2054,2.2248,2.2503,2.2742,2.2936,2.331,2.3595,2.3595,2.3595,2.3595,2.3595,0.0,0.0,0.0,0.0,0.0,0.0,0.0,0.0,0.0,0.0,0.0,0.0,0.0,0.0,0.0,0.0,0.0,0.0,0.0,0.0,0.0,0.0,0.0,0.0,0.0,0.0,0.0,0.0,0.0,0.0,2.4101,0.0,0.0,0.0,0.0,0.0,0.0,0.0,0.0,0.0,0.0,0.0,0.0,0.0,0.0,0.0,0.0,0.0,0.0,0.0,0.0,0.0,0.0,2.4591,2.4771,2.441,2.419,2.419,2.4208,2.4227,2.4209,2.4209,2.4321,2.4512,0.0,0.0,0.0,0.0,0.0,0.0,0.0,0.0,0.0,0.0,0.0,0.0,0.0,0.0,0.0,0.0,0.0,0.0,0.0,0.0,0.0,0.0,0.0,0.0,0.0,0.0,1.9726,1.9705,1.969,0.0,0.0,0.0,0.0,0.0,0.0,0.0,0.0,0.0,0.0,2.2675,2.2877,2.3445,2.3056,2.2906,2.3475,2.358,2.3595,2.3551,2.3595,2.3595,0.0,0.0,0.0,0.0,0.0,0.0,0.0,0.0,0.0,0.0,0.0,0.0,0.0,0.0,0.0,0.0,0.0,0.0,0.0,0.0,0.0,0.0,0.0,0.0,0.0,0.0,0.0,2.4995,2.4514,0.0,0.0,0.0,0.0,0.0,0.0,0.0,0.0,0.0,0.0,0.0,2.4495,2.4357,0.0,0.0,0.0,0.0,0.0,0.0,0.0,0.0,0.0,0.0,0.0,0.0,2.4545,2.4575,2.4339,2.419,2.419,2.419,2.419,2.419,2.419,2.4284,2.4495,0.0,0.0,0.0,0.0,0.0,0.0,0.0,0.0,0.0,0.0,0.0,0.0,0.0,0.0,0.0,0.0,0.0,0.0,0.0,0.0,0.0,0.0,0.0,0.0,0.0,2.0,0.0,0.0,0.0,0.0,0.0,0.0,0.0,0.0,0.0,0.0,0.0,2.1758,2.2566,2.2687,2.2761,2.2992,2.32,2.3227,0.0,0.0,0.0,0.0,0.0,0.0,0.0,0.0,0.0,0.0,0.0,0.0,0.0,0.0,2.0706,2.1554,2.1697,2.1697,2.1697,0.0,0.0,0.0,0.0,0.0,0.0,0.0,0.0,0.0,0.0,0.0,0.0,0.0,0.0,0.0,0.0,2.5149,0.0,0.0,0.0,0.0,0.0,0.0,0.0,0.0,2.4132,2.3989,2.4211,2.3979,2.3855,0.0,2.3976,2.4016,0.0,0.0,0.0,0.0,0.0,0.0,0.0,0.0,2.4512,2.4495,2.4303,2.419,2.419,2.419,2.419,2.419,2.419,2.4191,2.4229,2.3883,2.3801,0.0,0.0,0.0,0.0,0.0,0.0,0.0,0.0,0.0,0.0,0.0,0.0,0.0,0.0,0.0,0.0,0.0,0.0,0.0,0.0,0.0,0.0,0.0,1.9492,0.0,0.0,0.0,0.0,0.0,0.0,0.0,0.0,0.0,2.0271,2.0726,2.1397,2.2275,2.2341,2.2328,2.2352,0.0,0.0,0.0,0.0,0.0,0.0,0.0,2.2193,2.1758,2.2053,2.2211,2.1764,2.1046,2.0527,2.0736,0.0,0.0,2.089,2.1037,2.1037,2.1037,2.1037,2.1037,2.1037,2.1037,2.1037,0.0,0.0,0.0,0.0,0.0,0.0,0.0,0.0,2.4973,2.4865,0.0,2.4869,0.0,0.0,0.0,0.0,0.0,2.4375,0.0,0.0,2.3611,2.3379,2.3653,2.3369,2.323,2.3236,2.3526,2.3692,2.3714,2.4016,0.0,0.0,0.0,0.0,0.0,0.0,2.4495,2.4478,2.4266,2.419,2.419,2.419,2.419,2.417,2.417,2.4016,2.3714,2.3671,2.3522,2.323,2.3189,0.0,0.0,0.0,0.0,0.0,0.0,0.0,0.0,0.0,0.0,0.0,0.0,0.0,0.0,0.0,0.0,0.0,0.0,0.0,0.0,1.8432,0.0,0.0,0.0,0.0,0.0,0.0,0.0,0.0,0.0,0.0,2.0721,2.1258,2.1649,2.1697,0.0,0.0,0.0,0.0,2.1697,2.171,2.1649,2.1697,2.1697,2.1663,2.1649,2.1649,0.0,0.0,2.1649,2.0607,1.9952,2.0597,2.0093,1.9747,1.9747,1.9837,1.985,1.985,1.9901,1.985,1.985,1.9876,1.9837,2.5577,0.0,0.0,0.0,0.0,2.539,2.5271,2.5088,2.4889,2.4803,2.4855,2.4814,0.0,0.0,0.0,0.0,0.0,0.0,2.4095,2.3885,2.3407,2.3253,2.3346,2.3236,2.3323,2.3526,2.3414,2.3459,2.3692,2.3544,2.3732,2.4208,0.0,0.0,0.0,0.0,2.4192,2.4247,2.3979,2.3958,2.419,2.419,2.4094,2.3855,2.3855,2.3692,2.3346,2.3117,2.3052,2.3206,2.2972,0.0,0.0,0.0,0.0,0.0,0.0,0.0,0.0,0.0,0.0,0.0,0.0,0.0,0.0,0.0,0.0,0.0,0.0,0.0,1.8927,1.8438,1.8382,0.0,0.0,0.0,0.0,0.0,0.0,0.0,0.0,0.0,2.0064,2.023,2.0521,0.0,0.0,2.1077,2.1064,2.1438,2.1568,2.1113,0.0,0.0,0.0,2.1077,2.0917,2.0421,2.037,2.032,2.0333,1.9594,1.9097,1.9294,1.8715,1.8232,1.8274,1.9097,1.9759,1.9798,1.9798,1.9798,1.9798,1.9633,1.9512,2.5855,2.5492,2.5429,2.539,2.538,2.5339,2.5187,2.4979,2.4688,2.4605,2.467,2.4591,2.4495,2.4375,2.4375,0.0,0.0,0.0,2.3946,2.3482,2.3033,2.2894,2.2979,2.289,2.2933,2.3146,2.3063,2.3117,2.3305,2.3236,2.3392,2.3795,0.0,0.0,2.3978,2.3785,2.3726,2.3777,2.3735,2.3777,2.3996,2.3996,2.3855,2.3504,2.3522,2.3346,2.3021,2.284,2.292,2.3267,2.2798,2.2603,0.0,0.0,0.0,0.0,0.0,0.0,0.0,0.0,0.0,0.0,0.0,1.9428,1.9685,0.0,0.0,0.0,1.9358,1.92,1.8665,1.8375,0.0,0.0,0.0,0.0,0.0,0.0,0.0,1.8533,1.8967,1.9371,1.9371,1.9371,1.9619,2.0295,2.0409,2.0396,2.0396,0.0,2.0805,2.0446,2.0396,2.0409,2.0396,2.0396,2.0258,1.985,1.954,1.9371,1.9371,1.8768,1.8356,1.8432,1.8214,1.7935,1.8057,1.8879,1.9371,1.9258,1.9299,1.9431,1.9431,1.9344,1.9186,2.6281,2.5486,2.5428,2.539,2.5399,2.5329,2.5182,2.4943,2.4429,2.4292,2.4461,2.4247,2.4133,2.4132,2.4132,0.0,2.3689,2.3967,2.3755,2.3141,2.2571,2.2427,2.266,2.2409,2.231,2.2349,2.2563,2.2669,2.2721,2.3014,2.3117,2.3183,2.3141,2.33,2.361,2.3328,2.3165,2.3189,2.3459,2.3631,2.3649,2.3671,2.35,2.3165,2.3165,2.3021,2.2686,2.2695,2.2887,2.3279,2.2647,2.2421,2.2683,0.0,0.0,0.0,0.0,0.0,0.0,0.0,0.0,0.0,0.0,0.0,0.0,0.0,0.0,0.0,1.9263,0.0,1.8332,1.8219,0.0,0.0,0.0,1.8846,1.8635,1.859,1.834,1.7677,0.0,0.0,1.8596,0.0,1.8874,1.9527,1.9695,1.9747,1.9798,1.985,1.9798,1.985,1.9798,1.9798,1.9747,1.9631,1.9527,1.9475,1.9097,1.8608,1.8555,1.8015,1.7768,1.81,1.8143,1.8217,1.8654,1.8649,1.8654,1.8306,1.8622,1.8888,1.8918,1.8913,1.8892,2.6281,2.5486,2.537,2.5332,2.5341,2.531,2.512,2.4809,2.4369,2.4243,2.4247,2.3958,2.3692,2.3437,2.3437,2.3392,2.3323,2.3417,2.3236,2.2805,2.247,2.2357,2.2398,2.2338,2.2398,2.2599,2.248,2.2517,2.2669,2.2581,2.2616,2.2797,2.2607,2.2773,2.33,2.2996,2.2947,2.3189,2.3021,2.3069,2.3323,2.3323,2.3183,2.2822,2.2805,2.2704,2.2398,2.2068,2.2152,2.276,2.2329,2.2311,2.2884,2.2276,0.0,0.0,0.0,0.0,0.0,0.0,0.0,0.0,0.0,1.988,2.0411,0.0,1.9058,0.0,1.8721,1.852,1.8792,1.8323,0.0,0.0,1.8007,1.7898,1.7863,1.7881,1.7786,1.7633,1.7731,1.7852,1.7852,1.7841,1.7895,1.8124,1.8608,1.915,1.9695,1.9798,1.9798,1.9747,1.9747,1.9579,1.9032,1.8501,1.8167,1.8124,1.7961,1.7852,1.7841,1.7246,1.6914,1.7302,1.7005,1.682,1.7203,1.7473,1.7728,1.7681,1.8267,1.891,1.8899,1.8739,1.8611,2.6281,2.5486,2.537,2.5253,2.519,2.526,2.505,2.4636,2.4315,2.4118,2.3958,2.361,2.3369,2.3189,2.3189,2.3117,2.2996,2.3144,2.2944,2.251,2.1976,2.1916,2.2282,2.1886,2.1998,2.25,2.2478,2.249,2.2535,2.2813,2.2824,2.2527,2.236,2.2624,2.3241,2.2789,2.2634,2.2798,2.2738,2.2797,2.2972,2.2972,2.2822,2.2527,2.2313,2.2119,2.2003,2.1568,2.1809,2.2735,2.2308,2.2372,2.3101,2.2519,2.217,0.0,0.0,0.0,0.0,0.0,0.0,0.0,0.0,0.0,0.0,0.0,1.9152,1.9356,1.9085,1.8879,1.8874,1.851,1.813,1.7815,1.7682,1.7468,1.7146,1.7079,1.6978,1.6631,1.6922,1.709,1.7079,1.7146,1.7246,1.7523,1.7633,1.8015,1.865,1.8821,1.8821,1.8821,1.8821,1.8715,1.8274,1.7895,1.7578,1.7578,1.7302,1.709,1.709,1.6482,1.6239,1.6799,1.6665,1.6572,1.7168,1.749,1.7656,1.776,1.8096,1.849,1.8459,1.8364,1.8255,2.6281,2.5486,2.5312,2.5122,2.4917,2.5154,2.492,2.4407,2.4173,2.3915,2.3603,2.3265,2.3077,2.3028,2.2965,2.2737,2.2512,2.2919,2.273,2.2106,2.1351,2.1414,2.2061,2.1451,2.1531,2.2245,2.2512,2.2479,2.2308,2.3169,2.3152,2.2291,2.2341,2.2727,2.3298,2.271,2.2387,2.2446,2.2647,2.2799,2.2773,2.2746,2.2627,2.2478,2.2046,2.1769,2.1769,2.1392,2.177,2.3012,2.248,2.2446,2.324,2.26,2.224,0.0,2.1825,0.0,0.0,0.0,0.0,0.0,0.0,0.0,0.0,1.9394,1.9265,1.9669,1.9775,1.9521,1.8884,1.8678,1.8286,1.7688,1.7401,1.7101,1.6509,1.6472,1.6206,1.5635,1.6151,1.6498,1.6597,1.6514,1.6747,1.724,1.6839,1.6726,1.7366,1.7623,1.7743,1.7578,1.7534,1.7523,1.7468,1.7346,1.7246,1.7191,1.6754,1.6368,1.6322,1.5853,1.5674,1.6406,1.6582,1.6894,1.7773,1.79,1.7833,1.7649,1.7755,1.7976,1.8055,1.8055,1.8008,2.6243,2.5399,2.5179,2.4828,2.4476,2.476,2.458,2.4063,2.3587,2.3336,2.317,2.2744,2.2429,2.2197,2.1657,2.1381,2.1368,2.2108,2.2013,2.1244,2.107,2.1086,2.1261,2.1648,2.1872,2.2069,2.2116,2.21,2.2053,2.2427,2.2394,2.2069,2.2583,2.2953,2.305,0.0,0.0,0.0,2.3231,2.3272,2.3243,2.2839,2.2874,2.3406,2.2977,0.0,2.2735,2.2294,2.2412,2.3188,2.2806,0.0,0.0,0.0,0.0,0.0,0.0,0.0,0.0,0.0,0.0,0.0,1.9811,1.9973,2.0512,2.0051,1.9509,1.9213,1.9522,1.9761,1.9584,1.8484,1.7743,1.7578,1.6518,1.5888,1.6108,1.6178,1.6246,1.6436,1.6599,1.6651,1.6663,1.6416,1.6367,1.6748,1.6148,1.597,1.6788,1.7269,1.7545,1.7578,1.7024,1.6698,1.6719,1.6255,1.5968,1.5796,1.5738,1.5642,1.5642,1.5517,1.5566,1.6123,1.6201,1.6494,1.7334,1.75,1.7254,1.6568,1.7007,1.7607,1.793,1.8008,1.8008,2.714,0.0,2.6376,2.5943,0.0,2.4641,2.4226,2.4017,2.2676,2.2169,2.2298,2.1871,2.1633,2.147,2.1151,2.0988,2.1038,2.1458,2.1582,2.1455,2.0731,2.0782,2.1471,2.1069,2.1273,2.1987,2.2164,2.2342,2.2503,2.2658,2.2658,2.2487,2.3016,2.3367,2.3538,2.3893,2.381,2.3211,2.3194,2.3194,2.3162,2.293,2.2991,2.3331,0.0,0.0,0.0,0.0,0.0,0.0,0.0,0.0,0.0,0.0,0.0,2.1669,2.1118,2.0791,2.069,2.0406,1.9749,1.8773,1.8667,1.8996,1.9697,1.9463,1.9144,1.8861,1.912,1.8939,1.8232,1.769,1.7266,1.6885,1.6397,1.6162,1.6348,1.6396,1.6484,1.6617,1.6665,1.6665,1.6665,1.6562,1.6484,1.667,1.6367,1.615,1.6605,1.6546,1.6539,1.6518,1.6255,1.5979,1.5921,1.569,1.542,1.542,1.542,1.542,1.542,1.505,1.4946,1.5341,1.5274,1.5323,1.5742,1.6075,1.6156,1.5622,1.578,1.6202,1.6555,1.7213,1.7627,2.7946,2.7821,2.7433,2.6942,2.6274,2.4759,2.3947,2.3635,0.0,0.0,0.0,2.1304,2.1049,2.0964,2.0839,2.0762,2.0783,2.0783,2.1069,2.1542,2.0592,2.0674,2.1534,2.05,2.0585,2.1768,2.2055,2.237,2.2599,2.284,2.2824,2.2667,2.3045,2.3427,2.3694,2.4288,2.3983,2.2838,2.307,2.3167,2.3167,2.3095,2.3122,2.3249,2.2785,2.2478,2.2361,2.2034,2.1836,2.1698,2.1696,2.1626,2.1527,2.152,2.1411,2.117,2.0706,2.0105,1.9401,1.8797,1.8167,1.7468,1.7302,1.7578,1.8436,1.8501,1.8536,1.863,1.863,1.8141,1.6949,1.7084,1.7028,1.6377,1.6517,1.6748,1.6772,1.6645,1.6546,1.6667,1.6531,1.6429,1.6383,1.6298,1.6343,1.6391,1.6139,1.6201,1.6189,1.5959,1.5802,1.5704,1.5704,1.5527,1.5245,1.5177,1.5118,1.4874,1.4864,1.4982,1.4914,1.4497,1.4266,1.456,1.4277,1.417,1.4304,1.4723,1.4825,1.4367,1.4478,1.4569,1.4701,1.5757,1.6619,2.7532,2.7261,2.6711,2.6031,2.5308,2.5275,2.4043,2.2149,2.2696,2.2717,2.2269,2.1801,2.1326,2.0809,2.0231,1.9964,1.9963,1.9963,1.9977,0.0,2.0982,2.0954,2.0173,2.0512,2.0747,2.0957,2.1011,2.1055,2.1177,2.1668,2.1623,2.1234,2.1671,2.1985,2.2055,2.214,2.2098,2.1928,2.3262,2.3941,2.3941,2.349,2.3576,2.416,2.366,2.3182,2.2643,2.2555,2.2269,2.1727,2.168,2.1499,2.0979,2.0894,2.0357,1.927,1.902,1.865,1.7938,1.7786,1.7413,1.6708,1.6083,1.6301,1.7622,1.7731,1.7912,1.8318,1.8295,1.8272,1.8019,1.7786,1.7501,1.7069,1.6837,1.6811,1.7171,1.6515,1.6151,1.651,1.5922,1.5479,1.5489,1.5129,1.5129,1.5239,1.5128,1.4453,1.4741,1.5579,1.6253,1.6074,1.6027,1.5571,1.4745,1.4401,1.4189,1.3433,1.345,1.3554,1.3562,1.3523,1.3584,1.3631,1.3526,1.3615,1.3958,1.4214,1.3872,1.3119,1.3462,1.3735,1.2829,1.3688,1.4781,2.7673,2.7445,2.6806,2.5995,2.5079,2.422,2.2189,1.9697,2.1131,2.1511,2.0941,2.0059,1.9693,1.9592,1.8666,1.8351,1.8624,1.9448,1.9751,1.9662,1.9544,1.9544,1.9639,1.9258,1.9246,1.957,1.962,1.9755,2.0171,2.117,2.117,2.0184,2.0394,2.0499,2.0512,2.0499,2.0722,2.1137,2.2203,2.2799,2.2799,2.2556,2.2571,2.2892,2.2667,2.2469,2.2146,2.2146,2.1787,2.1,2.0949,2.0577,1.983,1.9534,1.9161,1.8527,1.8208,1.7797,1.7024,1.6874,1.6729,1.6628,1.6305,1.6366,1.7057,1.7041,1.7194,1.7647,1.7701,1.7632,1.7478,1.7542,1.7493,1.7355,1.6944,1.6721,1.6822,1.61,1.5609,1.5756,1.5438,1.5234,1.5163,1.5014,1.4957,1.5114,1.4755,1.4599,1.4583,1.5274,1.561,1.5076,1.4861,1.4672,1.4101,1.3842,1.3625,1.3235,1.3235,1.3244,1.3199,1.3208,1.3018,1.3027,1.2841,1.2579,1.2736,1.2935,1.2749,1.2423,1.2265,1.2296,1.2208,1.2694,1.3582,2.7033,2.6707,2.6102,2.5423,2.4576,2.2411,1.9816,1.7329,1.8685,1.9152,1.8708,1.828,1.8277,1.8317,1.7289,1.6973,1.7462,1.8682,1.923,1.8964,1.739,1.7137,1.7989,1.7324,1.7313,1.779,1.7844,1.8077,1.867,2.0035,2.001,1.8738,1.8919,1.9047,1.9047,1.9047,1.938,1.9914,2.0453,2.1094,2.1697,2.1697,2.1697,2.1697,2.154,2.1383,2.1253,2.1202,2.077,1.9939,1.9922,1.9684,1.8974,1.8525,1.82,1.8063,1.7676,1.7127,1.6331,1.6056,1.5966,1.6036,1.6074,1.6064,1.6081,1.5953,1.6198,1.6789,1.691,1.6733,1.637,1.6581,1.6864,1.6741,1.6478,1.6244,1.621,1.5446,1.4879,1.4879,1.4665,1.4522,1.4514,1.4514,1.445,1.4442,1.4514,1.4514,1.4514,1.4514,1.4198,1.3844,1.3803,1.3892,1.3679,1.3332,1.3028,1.2964,1.2765,1.2743,1.2735,1.2629,1.2575,1.2486,1.222,1.1914,1.1606,1.1881,1.2002,1.179,1.1669,1.1612,1.1928,1.2188,1.2594,2.4509,2.3705,2.3247,2.327,2.3016,1.984,1.7259,1.5521,1.5668,1.5678,1.5745,1.7679,1.8096,1.7616,1.6754,1.6358,1.6528,1.7386,1.7731,1.7359,1.4735,1.3477,1.3807,1.4821,1.5424,1.5472,1.5528,1.5509,1.5689,1.7194,1.7275,1.6113,1.7093,1.7698,1.7709,1.7698,1.7763,1.7872,1.7938,1.9209,2.154,2.1697,2.1697,2.1697,2.104,2.0453,1.9953,1.9609,1.9136,1.8555,1.8845,1.8974,1.8817,1.8478,1.7991,1.7322,1.72,1.6739,1.5532,1.5378,1.5036,1.4279,1.4321,1.4329,1.4321,1.4237,1.4715,1.5662,1.5969,1.5686,1.4858,1.523,1.5375,1.5129,1.5228,1.5305,1.5226,1.445,1.381,1.3818,1.3237,1.2586,1.2806,1.2806,1.2739,1.2879,1.2945,1.2872,1.2872,1.2872,1.2865,1.2797,1.3464,1.3648,1.2836,1.2367,1.2152,1.1563,1.1338,1.1539,1.1801,1.2019,1.1962,1.2155,1.2004,1.181,1.1663,1.1677,1.1744,1.1557,1.145,1.149,1.1557,1.1784,1.2237,2.0188,1.9277,1.8839,1.9044,1.9238,1.717,1.4731,1.2464,1.2975,1.2923,1.2486,1.3338,1.4396,1.5436,1.4477,1.4157,1.4387,1.4392,1.4565,1.4721,1.322,1.1659,1.038,1.221,1.2895,1.245,1.2895,1.3152,1.3297,1.43,1.4597,1.4087,1.4594,1.4866,1.4866,1.4857,1.5071,1.5514,1.5514,1.6294,1.7752,1.8811,1.9261,1.9285,1.925,1.9161,1.8916,1.8954,1.884,1.8437,1.8051,1.7688,1.755,1.6632,1.5891,1.5643,1.5369,1.5113,1.4858,1.4788,1.4757,1.4632,1.4657,1.4657,1.4657,1.4657,1.4722,1.4595,1.488,1.4967,1.4899,1.5081,1.5097,1.4911,1.4585,1.4314,1.4314,1.3448,1.2879,1.2806,1.2519,1.2305,1.2305,1.2305,1.2305,1.2305,1.2305,1.2231,1.2305,1.2305,1.2305,1.2358,1.2825,1.2892,1.2375,1.2144,1.1854,1.1634,1.151,1.1639,1.1716,1.1928,1.2164,1.2117,1.2098,1.2078,1.2011,1.2011,1.2017,1.1757,1.1777,1.1904,1.173,1.1924,1.2091,1.6829,1.6053,1.4896,1.5226,1.6414,1.4598,1.1936,0.9272,0.981,0.9962,0.975,0.9756,1.0725,1.2189,1.1752,1.17,1.1889,1.1458,1.168,1.2127,1.1327,0.9805,0.8335,0.9781,1.0378,0.9932,1.0378,1.0913,1.1337,1.1673,1.1843,1.1697,1.2112,1.2352,1.236,1.2352,1.2755,1.3542,1.3511,1.3835,1.4805,1.5866,1.6654,1.7006,1.7201,1.7317,1.7406,1.7594,1.7622,1.7396,1.6836,1.6428,1.6175,1.5154,1.4525,1.4468,1.422,1.412,1.4307,1.4263,1.4323,1.4411,1.4378,1.4378,1.4378,1.4378,1.4091,1.3506,1.3663,1.4057,1.4324,1.4378,1.4378,1.4378,1.3738,1.3317,1.3244,1.2666,1.2305,1.2305,1.2305,1.2305,1.2305,1.2305,1.2224,1.189,1.1829,1.1687,1.1533,1.1391,1.1403,1.1471,1.1471,1.1717,1.2045,1.2036,1.1884,1.187,1.1824,1.1854,1.1984,1.2177,1.2291,1.2218,1.2305,1.2231,1.2064,1.2124,1.2238,1.2218,1.2218,1.2164,1.1891,1.2118,1.2258,1.5294,1.4646,1.1891,1.2275,1.5087,1.2059,0.8807,0.5603,0.5671,0.6552,0.7877,0.8002,0.8118,0.8332,0.8851,0.9301,0.9394,0.9221,0.9774,1.0581,0.8582,0.7663,0.8011,0.8151,0.8161,0.8138,0.8172,0.9062,1.0413,0.9792,0.8949,0.8413,0.9937,1.0672,1.0744,1.0672,1.1283,1.2131,1.1955,1.2305,1.3249,1.3496,1.4179,1.5219,1.5093,1.497,1.5177,1.4889,1.4806,1.4755,1.5141,1.528,1.5201,1.4755,1.4424,1.4404,1.4367,1.4172,1.3716,1.3512,1.3273,1.2579,1.2439,1.2445,1.2432,1.2432,1.2358,1.2291,1.2258,1.2412,1.2425,1.2579,1.2512,1.2439,1.2365,1.2298,1.2298,1.207,1.2305,1.215,1.2003,1.1929,1.2157,1.2305,1.1656,1.1089,1.0885,1.0634,0.9948,0.9583,0.9669,0.9669,0.9734,1.0049,1.1454,1.1742,1.1781,1.1852,1.1762,1.1964,1.2144,1.2298,1.2305,1.2305,1.2305,1.2225,1.2044,1.2017,1.2118,1.2164,1.2231,1.2151,1.2024,1.2151,1.2265,0.675,0.6148,0.5252,0.5884,0.7173,0.721,0.5251,0.2023,0.1913,0.2953,0.4405,0.4626,0.4591,0.4632,0.492,0.6276,0.8298,0.8342,0.9096,1.0212,0.8584,0.722,0.6456,0.7402,0.7415,0.661,0.6415,0.7239,0.8754,0.8639,0.7912,0.7068,0.8235,0.9125,0.9157,0.9131,0.931,0.9788,0.9699,0.9811,1.0233,1.0177,1.056,1.1295,1.3392,1.4588,1.4714,1.4828,1.4965,1.4965,1.453,1.4243,1.4155,1.3482,1.3107,1.3049,1.2497,1.2018,1.1787,1.1248,1.0789,1.0426,1.0351,1.0426,1.0426,1.0346,1.0346,1.0421,1.0421,1.0426,1.0501,1.0944,1.1087,1.0496,1.0421,1.0421,1.0346,1.0346,1.0351,1.0351,1.0351,1.0346,1.0496,1.0421,1.0215,0.9892,0.9814,0.9609,0.9443,0.9271,0.9221,0.9296,0.9296,0.9497,0.9952,1.0813,1.1248,1.1395,1.156,1.1939,1.2204,1.207,1.2003,1.1855,1.2003,1.1983,1.176,1.1919,1.2045,1.2218,1.2278,1.2245,1.2171,1.2245,1.2285,-0.0403,-0.1028,-0.0891,0.028,0.1875,0.3134,0.1497,-0.1808,-0.1992,-0.0927,0.0576,0.0853,0.0859,0.0803,0.08,0.2042,0.4468,0.5637,0.7276,0.8684,0.7107,0.5639,0.4919,0.5766,0.5755,0.5006,0.523,0.6063,0.7082,0.7364,0.6892,0.6153,0.7061,0.7465,0.7548,0.746,0.7708,0.8064,0.8061,0.8146,0.8421,0.8507,0.8643,0.9135,1.1449,1.2792,1.2799,1.3143,1.3324,1.3179,1.2618,1.2265,1.2191,1.1687,1.1372,1.1249,1.0685,1.0315,1.0247,0.9651,0.9296,0.9296,0.9296,0.9296,0.9296,0.9296,0.9296,0.9296,0.9296,0.9221,0.8993,0.9437,0.9664,0.9296,0.9296,0.9296,0.9296,0.9372,0.9372,0.9448,0.9448,0.9372,0.9296,0.9372,0.9165,0.8906,0.8849,0.8732,0.8399,0.8372,0.8313,0.8313,0.8161,0.8161,0.8433,0.902,0.9916,1.022,1.0662,1.1224,1.1594,1.1527,1.1484,1.1403,1.1477,1.1545,1.162,1.1768,1.1996,1.215,1.2305,1.2278,1.2265,1.2285,1.2305,-0.5441,-0.564,-0.6079,-0.3698,-0.0581,-0.0217,-0.2395,-0.5428,-0.5864,-0.4535,-0.2858,-0.2982,-0.2798,-0.2996,-0.2817,-0.2843,-0.1915,0.0891,0.3362,0.5067,0.3507,0.2695,0.2691,0.2855,0.2956,0.28,0.4509,0.5355,0.5627,0.571,0.5711,0.5937,0.5811,0.5993,0.5813,0.6159,0.6675,0.7413,0.7363,0.7627,0.8626,0.8583,0.8519,0.8626,0.9234,0.9482,0.9427,0.9588,0.9814,0.9744,0.9593,0.9372,0.9669,0.9599,0.9461,0.9527,0.9376,0.9276,0.9299,0.9138,0.8917,0.8917,0.9145,0.8917,0.8846,0.8998,0.8993,0.8917,0.8922,0.877,0.7936,0.7859,0.8237,0.8993,0.8922,0.8917,0.9074,0.9221,0.9221,0.9069,0.8917,0.9226,0.9226,0.8922,0.8585,0.7951,0.7744,0.7557,0.6968,0.6802,0.649,0.649,0.6791,0.7022,0.7022,0.7173,0.8156,0.8988,0.9432,0.9884,1.0066,1.0135,1.0223,1.0165,1.0212,1.0357,1.0795,1.0944,1.1465,1.1694,1.1922,1.2231,1.2305,1.2305,1.2305,-0.7564,-0.7706,-0.7553,-0.631,-0.4422,-0.4313,-0.5244,-0.6252,-0.6279,-0.5914,-0.5348,-0.5286,-0.5318,-0.5357,-0.5485,-0.5553,-0.5459,-0.3944,-0.1628,0.0839,-0.0381,-0.0529,0.0597,0.0813,0.0868,0.1191,0.284,0.4418,0.4953,0.4247,0.3151,0.2421,0.3404,0.4728,0.5886,0.597,0.6204,0.6633,0.6649,0.6771,0.7038,0.7106,0.7102,0.7118,0.7165,0.7269,0.7277,0.8551,0.9301,0.9226,0.9296,0.9296,0.9296,0.9296,0.9286,0.9271,0.8599,0.8268,0.8176,0.7675,0.7326,0.7249,0.7253,0.7249,0.7253,0.733,0.7326,0.7249,0.7249,0.7022,0.6868,0.6795,0.7022,0.7249,0.7253,0.7326,0.7403,0.7326,0.7253,0.7249,0.7253,0.7253,0.7249,0.7326,0.7242,0.7003,0.6861,0.6644,0.6412,0.6261,0.6261,0.6261,0.6261,0.6261,0.649,0.6641,0.7173,0.7855,0.8309,0.8613,0.8798,0.8859,0.8937,0.8966,0.9022,0.9306,0.975,1.0115,1.0565,1.1242,1.1545,1.1848,1.2157,1.2224,1.2137,-0.9075,-0.874,-0.8522,-0.8075,-0.746,-0.7403,-0.7439,-0.7463,-0.7631,-0.7651,-0.7508,-0.718,-0.7058,-0.7001,-0.6869,-0.6637,-0.6596,-0.6425,-0.4957,-0.2812,-0.3517,-0.349,-0.2217,-0.1438,-0.1183,-0.0785,0.092,0.2443,0.3244,0.2289,0.1128,0.0465,0.1309,0.2542,0.3988,0.4565,0.4953,0.509,0.5093,0.5098,0.5096,0.5087,0.509,0.5096,0.5096,0.5093,0.5249,0.6381,0.7375,0.8016,0.8178,0.8178,0.8178,0.8178,0.8183,0.8038,0.7658,0.7281,0.7157,0.6677,0.6274,0.6274,0.6274,0.6274,0.6274,0.6274,0.6274,0.6268,0.6345,0.6264,0.6338,0.6261,0.6261,0.6261,0.6335,0.6261,0.6261,0.6261,0.6335,0.6412,0.6412,0.6261,0.6261,0.6261,0.6261,0.6261,0.6261,0.6261,0.6261,0.6261,0.6261,0.6261,0.6261,0.6261,0.6261,0.6335,0.6335,0.6795,0.7326,0.7557,0.7689,0.7685,0.7723,0.7658,0.7723,0.8093,0.8537,0.8988,0.9432,1.019,1.0887,1.1025,1.1174,1.1662,1.1729,-1.0511,-0.9462,-0.9442,-0.9541,-0.9496,-0.9516,-0.962,-0.9665,-1.0082,-0.9977,-0.9473,-0.8756,-0.8423,-0.8208,-0.7659,-0.72,-0.6736,-0.6984,-0.6576,-0.5986,-0.6119,-0.5941,-0.5428,-0.3944,-0.3331,-0.2978,-0.1447,-0.0221,0.06,0.0075,-0.0077,0.0078,-0.0,-0.0,-0.0,0.2108,0.2885,0.2968,0.2891,0.2969,0.2891,0.2965,0.2965,0.2969,0.321,0.3368,0.3519,0.3671,0.438,0.5814,0.6119,0.6119,0.6129,0.6136,0.6119,0.6112,0.6126,0.5973,0.6061,0.5814,0.5811,0.5811,0.573,0.6136,0.5811,0.5652,0.5727,0.5799,0.6116,0.6274,0.6264,0.6264,0.6264,0.6264,0.6264,0.6261,0.6261,0.6261,0.6261,0.6261,0.6261,0.6261,0.6261,0.6261,0.6261,0.6261,0.6261,0.6261,0.6261,0.6261,0.6261,0.6261,0.6261,0.6261,0.6261,0.6261,0.6261,0.6412,0.6795,0.6872,0.6945,0.6872,0.6872,0.6729,0.681,0.7103,0.7492,0.8034,0.8512,0.9153,0.9596,0.9852,1.0304,1.0778,1.1111,-1.4042,-1.3746,-1.3426,-1.2632,-1.1678,-1.1945,-1.2387,-1.2756,-1.2444,-1.1503,-1.0316,-0.9847,-0.957,-0.9363,-0.9398,-0.9169,-0.8697,-0.8823,-0.802,-0.6883,-0.72,-0.6962,-0.641,-0.5757,-0.538,-0.5198,-0.4473,-0.302,-0.0301,-0.1662,-0.1531,-0.0,-0.0,-0.0,-0.0,-0.0,0.0784,0.0784,-0.0,-0.0,-0.0,-0.0,0.0784,0.0941,0.2277,0.2987,0.3064,0.3142,0.3292,0.3832,0.391,0.391,0.3912,0.3912,0.3912,0.391,0.391,0.391,0.3912,0.3912,0.3912,0.391,0.399,0.391,0.391,0.391,0.391,0.4222,0.5249,0.62,0.6268,0.6197,0.6203,0.6281,0.6109,0.618,0.6261,0.6261,0.6261,0.6261,0.6261,0.6261,0.6261,0.6261,0.6261,0.6261,0.6261,0.6261,0.6261,0.6261,0.6261,0.6261,0.6261,0.6261,0.6261,0.6261,0.6261,0.6261,0.6412,0.649,0.649,0.649,0.6412,0.6338,0.6497,0.6718,0.6994,0.741,0.7827,0.8225,0.8793,0.9277,0.9637,1.0092,1.0067,-1.6054,-1.578,-1.5602,-1.4819,-1.3712,-1.3339,-1.3815,-1.451,-1.3913,-1.2927,-1.1712,-1.1194,-1.0985,-1.08,-1.0455,-1.0085,-0.9722,-0.9797,-0.9133,-0.8138,-0.822,-0.765,-0.6608,-0.6286,-0.6257,-0.6257,-0.6261,-0.4927,-0.3286,-0.391,-0.3635,-0.0,-0.172,-0.0861,-0.0,-0.0,-0.0,-0.0,-0.0,-0.0,-0.0,-0.0,-0.0,-0.0,0.1258,0.1808,0.1808,0.1808,0.1805,0.1801,0.18,0.18,0.1799,0.18,0.1799,0.18,0.18,0.18,0.1799,0.18,0.18,0.18,-0.0,-0.0,0.18,0.18,0.1799,0.1954,0.3761,0.4779,0.4932,0.4943,0.4948,0.4859,0.4929,0.5318,0.6119,0.6268,0.6268,0.6271,0.6271,0.6268,0.6271,0.6271,0.6271,0.6268,0.6268,0.6264,0.6264,0.6261,0.6261,0.6261,0.6261,0.6261,0.6261,0.6261,0.6261,0.6261,0.6261,0.6261,0.6261,0.6261,0.6261,0.6261,0.6261,0.6352,0.6631,0.6823,0.6988,0.7513,0.8146,0.8554,0.8832,0.919,0.9161,-1.7193,-1.6741,-1.6699,-1.6459,-1.6015,-1.4468,-1.4597,-1.536,-1.449,-1.3805,-1.3341,-1.2741,-1.2343,-1.2324,-1.1383,-1.0547,-1.0295,-1.0557,-1.0141,-0.978,-0.964,-0.8944,-0.7266,-0.6777,-0.6696,-0.6641,-0.6443,-0.619,-0.5634,-0.6041,-0.6213,-0.5419,-0.4066,-0.2657,-0.0,-0.0,-0.0,-0.0,-0.0,-0.0,-0.0,-0.0,-0.0,-0.0,-0.0,-0.0,-0.0,-0.0,-0.0,-0.0,-0.0,-0.0,-0.0,-0.0,-0.0,-0.0,-0.0,-0.0,-0.0,-0.0,-0.0,-0.0,-0.0,-0.0,-0.0,-0.0,-0.0,-0.0,-0.0,0.2608,0.2773,0.2765,0.3072,0.331,0.3304,0.4088,0.5433,0.598,0.6048,0.623,0.6142,0.5964,0.597,0.5973,0.5889,0.5243,0.564,0.6278,0.6274,0.6268,0.6268,0.6268,0.6264,0.6261,0.6261,0.6261,0.6261,0.6261,0.6261,0.6261,0.6261,0.6261,0.6261,0.6261,0.6261,0.6288,0.641,0.6516,0.6558,0.6781,0.7462,0.7639,0.7871,0.8213,0.8359,-1.923,-1.9099,-1.8647,-1.89,-1.9134,-1.7379,-1.6304,-1.6062,-1.4655,-1.4088,-1.3981,-1.3795,-1.3393,-1.3024,-1.2694,-1.2612,-1.2089,-1.2141,-1.2019,-1.1358,-1.2049,-1.1198,-0.9423,-0.8264,-0.7651,-0.7576,-0.6904,-0.6455,-0.64,-0.6458,-0.6383,-0.6146,-0.5761,-0.5335,-0.4638,-0.299,-0.1564,-0.0,-0.0,-0.0,-0.0,-0.0,-0.0,-0.0,-0.0,-0.0,-0.0,-0.0,-0.0,-0.0,-0.0,-0.0,-0.0,-0.0,-0.0,-0.0,-0.0,-0.0,-0.0,-0.0,-0.0,-0.0,-0.0,-0.0,-0.0,-0.0,-0.0,-0.0,0.0399,-0.0,-0.0,-0.0,0.1436,0.2493,0.2905,0.3152,0.363,0.381,0.443,0.5274,0.4912,0.383,0.3832,0.3832,0.3832,0.3988,0.4781,0.5973,0.6139,0.5986,0.61,0.6051,0.6318,0.6322,0.6308,0.6291,0.6261,0.6261,0.6261,0.6261,0.6261,0.6261,0.6261,0.6261,0.6261,0.6302,0.6359,0.6495,0.6644,0.6732,0.6875,0.7154,0.7443,0.7602,0.7688,-2.0225,-2.0168,-1.9915,-2.0068,-2.0339,-1.9359,-1.8334,-1.718,-1.5047,-1.4414,-1.4587,-1.4192,-1.3694,-1.34,-1.3287,-1.3086,-1.3086,-1.3094,-1.2991,-1.2762,-1.3225,-1.2881,-1.1867,-1.0365,-0.9523,-0.9138,-0.8582,-0.7709,-0.6955,-0.6991,-0.7104,-0.6561,-0.6468,-0.6334,-0.6408,-0.525,-0.4261,-0.3112,-0.1908,-0.1425,-0.149,-0.1487,-0.1487,-0.1488,-0.1487,-0.1409,-0.0,-0.0,-0.0,-0.1487,-0.1487,-0.1959,-0.275,-0.2907,-0.2512,-0.1644,-0.1487,-0.1487,-0.0,-0.1409,-0.0,-0.0157,-0.0,-0.0,-0.0,-0.0,-0.0,-0.0,-0.0,-0.0,-0.0,-0.0,-0.0,0.1237,-0.0,-0.0,-0.0,-0.0,0.1916,0.3387,0.4139,0.3226,0.2662,-0.0,-0.0,-0.0,-0.0,0.3112,0.4421,0.4511,0.5456,0.5708,0.6112,0.6311,0.6291,0.6254,0.6264,0.6261,0.6261,0.6261,0.6261,0.6261,0.6261,0.6261,0.6271,0.6342,0.6417,0.6563,0.6709,0.6831,0.6943,0.7048,0.7099,0.7341,0.7334,-2.0576,-2.0576,-2.0576,-2.0576,-2.0596,-2.0526,-1.9846,-1.8541,-1.6312,-1.5733,-1.5576,-1.4568,-1.4462,-1.3881,-1.3526,-1.3308,-1.3287,-1.3385,-1.3448,-1.3632,-1.3823,-1.3734,-1.3136,-1.2394,-1.1618,-1.0795,-1.0182,-0.8973,-0.8037,-0.7914,-0.7675,-0.694,-0.6688,-0.6658,-0.6609,-0.6619,-0.6138,-0.5563,-0.4398,-0.3624,-0.3642,-0.3626,-0.3622,-0.3597,-0.3597,-0.3599,-0.3599,-0.3599,-0.3597,-0.3595,-0.3595,-0.4548,-0.5674,-0.6162,-0.5674,-0.3675,-0.3597,-0.3599,-0.3599,-0.3519,-0.2893,-0.1017,-0.0,-0.0,-0.0,-0.0,-0.0,-0.0,-0.0,-0.0,-0.0,-0.0,-0.0,-0.0,-0.0,-0.0,-0.0,-0.0,-0.0,0.0652,0.2162,0.228,-0.0,-0.0,-0.0,-0.0,-0.0,-0.0,-0.0,0.2959,0.3808,0.4692,0.494,0.6045,0.6192,0.6414,0.6413,0.6322,0.6308,0.6308,0.6308,0.6329,0.6335,0.6285,0.6298,0.639,0.6498,0.6634,0.6773,0.6898,0.6993,0.7078,0.7115,0.7136,0.7129,-2.0576,-2.0576,-2.0576,-2.0576,-2.0576,-2.0605,-1.997,-1.924,-1.9145,-1.8302,-1.6604,-1.6541,-1.585,-1.5372,-1.502,-1.4438,-1.3885,-1.3788,-1.3871,-1.3975,-1.4072,-1.3981,-1.3904,-1.3631,-1.3368,-1.2925,-1.1761,-1.0238,-0.9611,-0.8989,-0.8342,-0.7326,-0.6895,-0.6816,-0.6753,-0.6709,-0.6736,-0.6695,-0.6004,-0.5609,-0.552,-0.5488,-0.543,-0.5439,-0.5425,-0.5425,-0.5575,-0.5655,-0.5736,-0.5814,-0.5736,-0.597,-0.621,-0.6295,-0.5977,-0.5652,-0.5413,-0.5332,-0.541,-0.5572,-0.5575,-0.4943,-0.3606,-0.2662,-0.2672,-0.263,-0.1935,-0.0,-0.0,-0.0,-0.0,-0.0,-0.0,-0.0,-0.0,-0.0,-0.0,-0.0,-0.0,-0.0,-0.0,-0.0,-0.0,-0.0,-0.0,-0.0,-0.0,-0.0,-0.0,-0.0,0.1672,0.2642,0.3489,0.4862,0.6163,0.643,0.6525,0.6464,0.6427,0.643,0.643,0.6437,0.6424,0.64,0.6424,0.6512,0.662,0.6732,0.6865,0.6927,0.7065,0.7105,0.7122,0.7139,0.7139,-2.1288,-2.1298,-2.0779,-2.0576,-2.0576,-2.0576,-2.0323,-1.9835,-1.9885,-1.9017,-1.7657,-1.6815,-1.6259,-1.592,-1.5702,-1.5101,-1.4691,-1.4172,-1.4162,-1.4062,-1.4088,-1.4188,-1.4242,-1.4168,-1.4202,-1.392,-1.2893,-1.2224,-1.2105,-1.1106,-0.9496,-0.7876,-0.7644,-0.7561,-0.718,-0.6983,-0.6895,-0.6851,-0.682,-0.6672,-0.6545,-0.6528,-0.6421,-0.6352,-0.6346,-0.6346,-0.6281,-0.6274,-0.6278,-0.6274,-0.6274,-0.6274,-0.6274,-0.6274,-0.6278,-0.6278,-0.6278,-0.6278,-0.6278,-0.6278,-0.6197,-0.6136,-0.5303,-0.5023,-0.4978,-0.473,-0.3399,-0.0,-0.0,-0.0,-0.0,-0.0,-0.0,-0.0,-0.0,-0.0,-0.0,-0.0,-0.0,-0.0,-0.0,-0.0,-0.0,-0.0,-0.0,-0.0,-0.0,-0.0,-0.0,-0.0,-0.0,-0.0,-0.0,0.2953,0.4526,0.5264,0.5895,0.6122,0.6563,0.6566,0.6556,0.6563,0.6566,0.6552,0.66,0.6675,0.6749,0.6861,0.6993,0.7011,0.7112,0.7126,0.7132,0.7139,0.7139,-2.2178,-2.1952,-2.1231,-2.0789,-2.0644,-2.0576,-2.0566,-2.042,-1.9668,-1.9086,-1.8434,-1.7318,-1.6788,-1.6747,-1.6514,-1.6081,-1.5614,-1.4693,-1.4303,-1.4455,-1.4203,-1.4253,-1.4289,-1.4275,-1.4215,-1.4309,-1.4012,-1.4135,-1.3613,-1.2673,-1.1025,-0.9907,-0.9522,-0.8653,-0.7915,-0.7333,-0.7162,-0.7014,-0.697,-0.6895,-0.6783,-0.6705,-0.66,-0.638,-0.6458,-0.6454,-0.6342,-0.6322,-0.6295,-0.6274,-0.6261,-0.6261,-0.6261,-0.6261,-0.6261,-0.6261,-0.6261,-0.6261,-0.6261,-0.6264,-0.6285,-0.6335,-0.6513,-0.6582,-0.6339,-0.5598,-0.4352,-0.1478,-0.0,-0.0,-0.0,-0.0,-0.0,-0.0,-0.0,-0.0,-0.0,-0.0,-0.0,-0.0,-0.0,-0.0,-0.0,-0.0,-0.0,-0.0,-0.0,-0.0,-0.0,-0.0,-0.0,-0.0,-0.0,-0.0,0.2261,0.3474,0.4333,0.5131,0.6047,0.6656,0.6629,0.6692,0.6709,0.6753,0.6803,0.6875,0.6932,0.6966,0.7054,0.7119,0.7132,0.7139,0.7139,0.7139,0.7139,-2.2776,-2.2027,-2.1876,-2.1375,-2.0712,-2.0634,-2.0634,-2.0478,-1.9707,-1.9477,-1.9476,-1.9343,-1.8898,-1.8693,-1.8158,-1.7648,-1.6678,-1.5604,-1.4996,-1.5184,-1.4532,-1.4092,-1.4148,-1.4122,-1.4255,-1.4429,-1.4222,-1.407,-1.3959,-1.3188,-1.3397,-1.3064,-1.0731,-0.9242,-0.9087,-0.7957,-0.7136,-0.7115,-0.7109,-0.7037,-0.6898,-0.678,-0.6702,-0.6647,-0.6647,-0.6603,-0.6471,-0.643,-0.6386,-0.6288,-0.6271,-0.6264,-0.6261,-0.6261,-0.6261,-0.6261,-0.6261,-0.6261,-0.6261,-0.6281,-0.6407,-0.641,-0.6491,-0.6556,-0.645,-0.58,-0.4613,-0.3461,-0.1334,-0.0,-0.0,-0.0,-0.0,-0.0,-0.0,-0.0,-0.0,-0.0,-0.0,-0.0,-0.0,-0.0,-0.0,-0.0,-0.0,-0.0,-0.0,-0.0,-0.0,-0.0,-0.0,-0.0,-0.0,-0.0,-0.0,-0.0,-0.0,-0.0,-0.0,-0.0,0.6773,0.6759,0.6946,0.699,0.7021,0.7004,0.6993,0.7031,0.7102,0.7129,0.7139,0.7139,0.7139,0.7139,0.7146,-2.4612,-2.3672,-2.3073,-2.2627,-2.2103,-2.106,-2.0787,-2.0757,-1.9846,-1.9228,-1.9088,-1.8916,-1.8965,-1.918,-1.9193,-1.888,-1.8302,-1.7726,-1.6758,-1.5636,-1.4752,-1.4176,-1.4235,-1.4188,-1.4242,-1.4382,-1.4255,-1.4102,-1.3946,-1.4063,-1.4412,-1.4784,-1.2858,-1.1136,-1.0371,-0.9037,-0.8375,-0.804,-0.7566,-0.7065,-0.6966,-0.6926,-0.6868,-0.6719,-0.679,-0.6736,-0.6627,-0.6502,-0.6454,-0.6383,-0.6383,-0.6414,-0.6308,-0.6322,-0.6434,-0.6261,-0.6261,-0.6261,-0.6268,-0.6335,-0.6407,-0.6508,-0.6624,-0.6814,-0.6764,-0.6306,-0.5829,-0.5633,-0.2055,-0.0,-0.0,-0.0,-0.0,-0.0,-0.0,-0.0,-0.0,-0.0,-0.0,-0.0,-0.0,-0.0,-0.0,-0.0,-0.0,-0.0,-0.0,-0.0,-0.0,-0.0,-0.0,-0.0,-0.0,-0.0,-0.0,-0.0,-0.0,-0.0,-0.0,-0.0,-0.0,0.683,0.6721,0.6929,0.7099,0.7078,0.7051,0.7071,0.7126,0.7136,0.7139,0.716,0.7177,0.7163,0.717,-2.6094,-2.53,-2.4253,-2.3745,-2.3368,-2.188,-2.1435,-2.1334,-1.9673,-1.9035,-1.9072,-1.8906,-1.9072,-1.9424,-1.9827,-1.9735,-1.9441,-2.027,-1.8914,-1.6887,-1.5076,-1.4511,-1.4592,-1.4508,-1.4235,-1.4502,-1.4222,-1.4168,-1.4282,-1.4442,-1.4818,-1.559,-1.3779,-1.2643,-1.1673,-1.0405,-0.95,-0.864,-0.7665,-0.7085,-0.7024,-0.6991,-0.6993,-0.6919,-0.6898,-0.6912,-0.6766,-0.6671,-0.66,-0.6464,-0.6515,-0.6458,-0.6318,-0.6369,-0.6376,-0.6295,-0.6261,-0.6366,-0.6335,-0.6407,-0.6481,-0.66,-0.6742,-0.6847,-0.695,-0.7027,-0.7064,-0.6811,-0.4474,-0.1877,-0.0,-0.0,-0.0,-0.0,-0.0,-0.0,-0.0,-0.0,-0.0,-0.0,-0.0,-0.0,-0.0,-0.0,-0.0,-0.0,-0.0,-0.0,-0.0,-0.0,-0.0,-0.0,-0.0,-0.0,-0.0,-0.0,-0.0,-0.0,-0.0,-0.0,-0.0,-0.0,0.6054,0.6343,0.6792,0.7132,0.7095,0.7119,0.7143,0.7156,0.7173,0.7207,0.7221,0.7217,0.7178,-2.6452,-2.6314,-2.5276,-2.4385,-2.361,-2.337,-2.2832,-2.1775,-1.9311,-1.9142,-2.0059,-2.0264,-1.9893,-1.999,-2.0166,-2.0352,-2.0401,-2.0576,-1.9608,-1.7869,-1.5921,-1.5375,-1.5206,-1.4895,-1.4372,-1.4475,-1.43,-1.4334,-1.4495,-1.4389,-1.4771,-1.4943,-1.4032,-1.3399,-1.2648,-1.162,-1.0107,-0.9091,-0.7841,-0.7228,-0.7109,-0.7129,-0.7109,-0.7105,-0.7095,-0.7061,-0.6922,-0.6865,-0.6739,-0.6525,-0.662,-0.6546,-0.638,-0.6468,-0.6468,-0.6339,-0.6298,-0.641,-0.6465,-0.6464,-0.6552,-0.6681,-0.6837,-0.6959,-0.6987,-0.6966,-0.6934,-0.7064,-0.5725,-0.42,-0.0,-0.0,-0.0,-0.0,-0.0,-0.0,-0.0,-0.0,-0.0,-0.0,-0.0,-0.0,-0.0,-0.0,-0.0,-0.0,-0.0,-0.0,-0.0,-0.0,-0.0,-0.0,-0.0,-0.0,-0.0,-0.0,-0.0,-0.0,-0.0,-0.0,-0.0,-0.0,-0.0,0.5455,0.5902,0.6523,0.7146,0.7149,0.7156,0.718,0.7214,0.7278,0.7377,0.7438,0.7416,-2.5749,-2.5394,-2.5036,-2.5054,-2.5358,-2.5361,-2.4279,-2.2422,-2.0432,-1.9545,-1.9795,-1.9775,-1.9834,-1.9951,-2.0059,-2.0332,-2.0537,-2.0566,-1.9923,-1.939,-1.8284,-1.756,-1.6976,-1.5718,-1.5118,-1.5035,-1.4544,-1.4115,-1.4222,-1.4289,-1.4442,-1.446,-1.4282,-1.4257,-1.3578,-1.2476,-1.0804,-0.9358,-0.8368,-0.7929,-0.7139,-0.7139,-0.7139,-0.7139,-0.7139,-0.7119,-0.6964,-0.6966,-0.681,-0.6712,-0.6773,-0.6634,-0.6488,-0.662,-0.6593,-0.643,-0.6396,-0.6476,-0.6496,-0.6603,-0.6681,-0.6831,-0.6963,-0.7021,-0.6949,-0.6997,-0.7068,-0.7054,-0.7078,-0.5544,-0.0,-0.0,-0.0,-0.0,-0.0,-0.0,-0.0,-0.0,-0.0,-0.0,-0.0,-0.0,-0.0,-0.0,-0.0,-0.0,-0.0,-0.0,-0.0,-0.0,-0.0,-0.0,-0.0,-0.0,-0.0,-0.0,-0.0,-0.0,-0.0,-0.0,-0.0,-0.0,-0.0,-0.0,0.5208,0.6308,0.685,0.7084,0.7177,0.7207,0.7288,0.7387,0.7499,0.7638,0.7695,-2.5159,-2.4845,-2.4833,-2.5259,-2.5975,-2.6352,-2.5302,-2.321,-2.1325,-2.0114,-1.9307,-1.9521,-1.9727,-1.9922,-2.0098,-2.0264,-2.0518,-2.0566,-2.0167,-1.991,-1.9837,-1.9368,-1.8049,-1.6772,-1.5959,-1.5621,-1.5054,-1.4587,-1.4115,-1.4095,-1.4215,-1.4409,-1.4583,-1.4455,-1.4167,-1.3004,-1.13,-0.9836,-0.8978,-0.8281,-0.7316,-0.7139,-0.7139,-0.7139,-0.7139,-0.7136,-0.7109,-0.7044,-0.6936,-0.6871,-0.6861,-0.681,-0.6742,-0.6715,-0.6753,-0.6637,-0.661,-0.6575,-0.6599,-0.6688,-0.68,-0.6905,-0.6983,-0.6993,-0.699,-0.7027,-0.7054,-0.7136,-0.7068,-0.7078,-0.6992,-0.0,-0.0,-0.0,-0.0,-0.0,-0.0,-0.0,-0.0,-0.0,-0.0,-0.0,-0.0,-0.0,-0.0,-0.0,-0.0,-0.0,-0.0,-0.0,-0.0,-0.0,-0.0,-0.0,-0.0,-0.0,-0.0,-0.0,-0.0,-0.0,-0.0,-0.0,-0.0,-0.0,0.3456,0.5743,0.6593,0.6715,0.7028,0.7238,0.7377,0.756,0.7709,0.7838,0.7824,-2.4795,-2.4833,-2.4782,-2.4795,-2.4971,-2.6025,-2.5566,-2.3874,-2.1736,-2.0242,-1.9605,-2.0107,-2.0234,-2.0117,-2.0322,-2.0488,-2.0537,-2.0576,-2.0489,-2.0469,-2.0418,-1.9837,-1.894,-1.79,-1.7001,-1.5944,-1.5455,-1.4977,-1.425,-1.4173,-1.4122,-1.4128,-1.4249,-1.4302,-1.4376,-1.3077,-1.1735,-1.0611,-0.9579,-0.8448,-0.7577,-0.7228,-0.7139,-0.7139,-0.7139,-0.7139,-0.7126,-0.7119,-0.7017,-0.6932,-0.6993,-0.6922,-0.677,-0.6841,-0.6841,-0.6722,-0.6698,-0.6732,-0.681,-0.6919,-0.6885,-0.6929,-0.699,-0.698,-0.6946,-0.6963,-0.7024,-0.7129,-0.7146,-0.7068,-0.6989,-0.6548,-0.3846,-0.0,-0.0,-0.0,-0.0,-0.0,-0.0,-0.0,-0.0,-0.0,-0.0,-0.0,-0.0,-0.0,-0.0,-0.0,-0.0,-0.0,-0.0,-0.0,-0.0,-0.0,-0.0,-0.0,-0.0,-0.0,-0.0,-0.0,-0.0,-0.0,-0.0,-0.0,0.1845,0.4156,0.5518,0.6444,0.6951,0.7382,0.7611,0.7777,0.7929,0.7997,0.7957,-2.4054,-2.3641,-2.3641,-2.3703,-2.3828,-2.4861,-2.5078,-2.4437,-2.2546,-2.1008,-2.0338,-2.0498,-2.0518,-2.0439,-2.0449,-2.0576,-2.0576,-2.0576,-2.0576,-2.0586,-2.0596,-2.0469,-1.9766,-1.8948,-1.8141,-1.7577,-1.6756,-1.5696,-1.5213,-1.4657,-1.4166,-1.4088,-1.4095,-1.4135,-1.4103,-1.358,-1.2948,-1.1729,-1.0611,-0.9488,-0.836,-0.7577,-0.7139,-0.7139,-0.7136,-0.7129,-0.7136,-0.7136,-0.7054,-0.6953,-0.7014,-0.6959,-0.6858,-0.6929,-0.6909,-0.6858,-0.6851,-0.6865,-0.6929,-0.6959,-0.6993,-0.699,-0.7004,-0.6924,-0.6953,-0.7027,-0.7088,-0.7122,-0.7139,-0.7146,-0.7061,-0.6992,-0.5097,-0.2946,-0.0,-0.0,-0.0,-0.0,-0.0,-0.0,-0.0,-0.0,-0.0,-0.0,-0.0,-0.0,-0.0,-0.0,-0.0,-0.0,-0.0,-0.0,-0.0,-0.0,-0.0,-0.0,-0.0,-0.0,-0.0,-0.0,-0.0,-0.0,-0.0,-0.0,-0.0,0.2624,0.4377,0.5979,0.7053,0.7664,0.7727,0.7882,0.7977,0.8024,0.8018,-2.3477,-2.315,-2.3125,-2.319,-2.3527,-2.4393,-2.5033,-2.5075,-2.3423,-2.1962,-2.1221,-2.0779,-2.0566,-2.0566,-2.0576,-2.0576,-2.0576,-2.0576,-2.0576,-2.0576,-2.0576,-2.0576,-2.0255,-1.9923,-1.9204,-1.8718,-1.7738,-1.6675,-1.5621,-1.5075,-1.4587,-1.4257,-1.4088,-1.4102,-1.4102,-1.3919,-1.3385,-1.2334,-1.1295,-1.0351,-0.9144,-0.8189,-0.758,-0.721,-0.7105,-0.7078,-0.7105,-0.7085,-0.694,-0.6956,-0.6956,-0.6966,-0.6956,-0.6973,-0.699,-0.7004,-0.7004,-0.7004,-0.7037,-0.6977,-0.7071,-0.7034,-0.7102,-0.7001,-0.7027,-0.7085,-0.7115,-0.7136,-0.7139,-0.7139,-0.7143,-0.7074,-0.6266,-0.4107,-0.0,-0.0,-0.0,-0.0,-0.0,-0.0,-0.0,-0.0,-0.0,-0.0,-0.0,-0.0,-0.0,-0.0,-0.0,-0.0,-0.0,-0.0,-0.0,-0.0,-0.0,-0.0,-0.0,-0.0,-0.0,-0.0,-0.0,-0.0,-0.0,-0.0,-0.0,-0.0,-0.0,0.5389,0.6388,0.7293,0.7818,0.7875,0.8031,0.8038,0.8038,-2.3138,-2.3125,-2.3125,-2.3439,-2.3979,-2.4456,-2.5336,-2.6184,-2.4334,-2.287,-2.192,-2.0971,-2.0712,-2.0644,-2.0576,-2.0576,-2.0576,-2.0576,-2.0576,-2.0576,-2.0576,-2.0576,-2.0576,-2.0411,-1.9923,-1.9362,-1.8559,-1.7415,-1.5951,-1.5325,-1.4846,-1.4341,-1.4088,-1.4088,-1.4088,-1.3997,-1.3555,-1.2851,-1.2157,-1.1128,-0.9918,-0.9144,-0.836,-0.7804,-0.7389,-0.7201,-0.7114,-0.699,-0.6932,-0.6932,-0.701,-0.6997,-0.7014,-0.6974,-0.7105,-0.7136,-0.7126,-0.7119,-0.7119,-0.7048,-0.7132,-0.7102,-0.7126,-0.7048,-0.7044,-0.7126,-0.7136,-0.7139,-0.7139,-0.7139,-0.7143,-0.7068,-0.6992,-0.5008,-0.3038,-0.0,-0.0,-0.0,-0.0,-0.0,-0.0,-0.0,-0.0,-0.0,-0.0,-0.0,-0.0,-0.0,-0.0,-0.0,-0.0,-0.0,-0.0,-0.0,-0.0,-0.0,-0.0,-0.0,-0.0,-0.0,-0.0,-0.0,-0.0,-0.0,-0.0,-0.0,-0.0,-0.0,0.5501,0.6412,0.7707,0.7905,0.8045,0.8038,0.8038,-2.3125,-2.3125,-2.3125,-2.3226,-2.3464,-2.4104,-2.4757,-2.5078,-2.4291,-2.3071,-2.1407,-2.16,-2.1181,-2.0634,-2.0576,-2.0557,-2.0557,-2.0576,-2.0576,-2.0576,-2.0576,-2.0576,-2.0576,-2.0566,-2.0323,-1.9923,-1.9283,-1.831,-1.6772,-1.5824,-1.4762,-1.4173,-1.4088,-1.4088,-1.4088,-1.4088,-1.3822,-1.3464,-1.2766,-1.1901,-1.1128,-1.0438,-0.9488,-0.8661,-0.8088,-0.7819,-0.7211,-0.6858,-0.6793,-0.68,-0.6814,-0.6824,-0.6953,-0.6973,-0.701,-0.7129,-0.7139,-0.7139,-0.7139,-0.7139,-0.7139,-0.7139,-0.7139,-0.7139,-0.7139,-0.7139,-0.7139,-0.7139,-0.7139,-0.7139,-0.7139,-0.7149,-0.7074,-0.5991,-0.4378,-0.0,-0.0,-0.0,-0.0,-0.0,-0.0,-0.0,-0.0,-0.0,-0.0,-0.0,-0.0,-0.0,-0.0,-0.0,-0.0,-0.0,-0.0,-0.0,-0.0,-0.0,-0.0,-0.0,-0.0,-0.0,-0.0,-0.0,-0.0,-0.0,-0.0,-0.0,-0.0,-0.0,-0.0,0.6356,0.7766,0.7856,0.7949,0.8045,0.8038,-2.2552,-2.2786,-2.2811,-2.2924,-2.3188,-2.354,-2.3891,-2.4191,-2.4487,-2.3665,-2.2149,-2.1967,-2.1473,-2.0652,-2.0404,-2.0283,-2.0293,-2.0485,-2.0641,-2.0576,-2.0518,-2.0576,-2.0576,-2.0557,-2.0566,-2.0323,-1.9835,-1.8868,-1.7172,-1.5311,-1.4088,-1.4088,-1.4088,-1.4088,-1.4088,-1.4088,-1.4088,-1.3822,-1.3379,-1.2851,-1.2248,-1.1643,-1.0697,-0.9684,-0.9155,-0.8223,-0.7562,-0.7174,-0.6705,-0.6739,-0.6763,-0.6875,-0.6973,-0.698,-0.7031,-0.7136,-0.7139,-0.7139,-0.7139,-0.7139,-0.7139,-0.7139,-0.7139,-0.7139,-0.7139,-0.7139,-0.7139,-0.7139,-0.7139,-0.7139,-0.7139,-0.7143,-0.7149,-0.6976,-0.6086,-0.5282,-0.0,-0.0,-0.0,-0.0,-0.0,-0.0,-0.0,-0.0,-0.0,-0.0,-0.0,-0.0,-0.0,-0.0,-0.0,-0.0,-0.0,-0.0,-0.0,-0.0,-0.0,-0.0,-0.0,-0.0,-0.0,-0.0,-0.0,-0.0,-0.0,-0.0,-0.0,-0.0,0.1508,0.4232,0.6467,0.7056,0.7344,0.7949,0.8045,-2.182,-2.2334,-2.2359,-2.2723,-2.31,-2.3163,-2.3188,-2.3265,-2.446,-2.4394,-2.3129,-2.244,-2.1649,-2.0741,-2.03,-1.9993,-2.0043,-2.0187,-2.0506,-2.0536,-2.0264,-2.0293,-2.0517,-2.0585,-2.0478,-2.0527,-2.0167,-1.9265,-1.7245,-1.5545,-1.4405,-1.4166,-1.4088,-1.4088,-1.4088,-1.4088,-1.4088,-1.3997,-1.3822,-1.347,-1.2851,-1.2328,-1.1872,-1.0665,-0.9661,-0.8712,-0.8288,-0.7583,-0.6757,-0.6766,-0.6875,-0.697,-0.7034,-0.7051,-0.7027,-0.7048,-0.7139,-0.7139,-0.7139,-0.7139,-0.7139,-0.7139,-0.7139,-0.7139,-0.7139,-0.7139,-0.7139,-0.7139,-0.7139,-0.7139,-0.7139,-0.7139,-0.7146,-0.7153,-0.6624,-0.5369,-0.3487,-0.0,-0.0,-0.0,-0.0,-0.0,-0.0,-0.0,-0.0,-0.0,-0.0,-0.0,-0.0,-0.0,-0.0,-0.0,-0.0,-0.0,-0.0,-0.0,-0.0,-0.0,-0.0,-0.0,-0.0,-0.0,-0.0,-0.0,-0.0,-0.0,-0.0,-0.0,-0.0,0.1208,0.3423,0.5336,0.6442,0.745,0.7945,-2.1807,-2.2347,-2.2761,-2.2965,-2.3125,-2.3125,-2.3125,-2.3115,-2.3416,-2.3377,-2.2817,-2.2763,-2.2073,-2.0663,-2.0452,-2.006,-1.96,-1.9732,-2.0186,-2.0128,-1.9875,-1.9902,-2.0325,-2.0174,-2.0244,-2.0488,-2.0245,-1.9441,-1.77,-1.6139,-1.4796,-1.4153,-1.4055,-1.4035,-1.4041,-1.4041,-1.4041,-1.4028,-1.3981,-1.3898,-1.3471,-1.34,-1.3037,-1.1962,-1.092,-0.9722,-0.9039,-0.7894,-0.7099,-0.6781,-0.6698,-0.6878,-0.7078,-0.7031,-0.7136,-0.7139,-0.7139,-0.7139,-0.7139,-0.7139,-0.7139,-0.7139,-0.7139,-0.7139,-0.7139,-0.7139,-0.7139,-0.7139,-0.7139,-0.7139,-0.7139,-0.7139,-0.7143,-0.7153,-0.6986,-0.5453,-0.3753,-0.0,-0.0,-0.0,-0.0,-0.0,-0.0,-0.0,-0.0,-0.0,-0.0,-0.0,-0.0,-0.0,-0.0,-0.0,-0.0,-0.0,-0.0,-0.0,-0.0,-0.0,-0.0,-0.0,-0.0,-0.0,-0.0,-0.0,-0.0,-0.0,-0.0,-0.0,-0.0,-0.0,0.1411,0.3726,0.5746,0.6959,0.7553,-2.1479,-2.2008,-2.2799,-2.3125,-2.3125,-2.3125,-2.3125,-2.3103,-2.3095,-2.2973,-2.2817,-2.2995,-2.2308,-2.0694,-2.0392,-1.9818,-1.9147,-1.9177,-1.9476,-1.9545,-1.9442,-1.9248,-1.9374,-1.9629,-1.9912,-2.0185,-1.9934,-1.9152,-1.8377,-1.6296,-1.4914,-1.3951,-1.3798,-1.3908,-1.3901,-1.3895,-1.3901,-1.3874,-1.3801,-1.3741,-1.3788,-1.3778,-1.3644,-1.2801,-1.178,-1.0726,-0.9754,-0.8654,-0.7724,-0.7252,-0.7143,-0.6953,-0.7105,-0.7136,-0.7139,-0.7139,-0.7139,-0.7139,-0.7139,-0.7139,-0.7139,-0.7139,-0.7139,-0.7139,-0.7139,-0.7139,-0.7139,-0.7139,-0.7139,-0.7139,-0.7139,-0.7139,-0.7139,-0.7146,-0.6634,-0.5563,-0.3178,-0.0,-0.0,-0.0,-0.0,-0.0,-0.0,-0.0,-0.0,-0.0,-0.0,-0.0,-0.0,-0.0,-0.0,-0.0,-0.0,-0.0,-0.0,-0.0,-0.0,-0.0,-0.0,-0.0,-0.0,-0.0,-0.0,-0.0,-0.0,-0.0,-0.0,-0.0,-0.0,-0.0,-0.0,0.232,0.4236,0.5954,0.6856,-2.1108,-2.165,-2.2598,-2.3015,-2.3125,-2.3125,-2.3125,-2.3078,-2.3078,-2.309,-2.3081,-2.3204,-2.218,-2.0939,-2.0191,-1.9336,-1.8824,-1.8635,-1.8889,-1.9036,-1.9095,-1.8788,-1.8663,-1.8841,-1.9448,-1.9676,-1.9552,-1.9957,-2.0117,-1.7468,-1.5087,-1.3655,-1.3356,-1.3654,-1.3647,-1.3654,-1.3687,-1.3627,-1.3514,-1.33,-1.344,-1.3667,-1.3559,-1.3082,-1.2462,-1.1654,-1.0707,-0.9812,-0.8631,-0.7903,-0.7457,-0.7145,-0.7119,-0.7139,-0.7139,-0.7139,-0.7139,-0.7139,-0.7139,-0.7139,-0.7139,-0.7139,-0.7139,-0.7139,-0.7139,-0.7139,-0.7139,-0.7139,-0.7139,-0.7139,-0.7139,-0.7139,-0.7139,-0.7071,-0.6468,-0.5602,-0.2944,-0.0,-0.0,-0.0,-0.0,-0.0,-0.0,-0.0,-0.0,-0.0,-0.0,-0.0,-0.0,-0.0,-0.0,-0.0,-0.0,-0.0,-0.0,-0.0,-0.0,-0.0,-0.0,-0.0,-0.0,-0.0,-0.0,-0.0,-0.0,-0.0,-0.0,-0.0,-0.0,-0.0,-0.0,-0.0,0.1916,0.3729,0.5648,-2.1095,-2.1543,-2.2209,-2.2711,-2.3075,-2.3113,-2.3125,-2.3125,-2.31,-2.3125,-2.309,-2.2983,-2.2159,-2.0579,-2.0529,-1.9788,-1.8556,-1.8262,-1.8154,-1.8242,-1.8418,-1.8187,-1.8241,-1.8595,-1.9175,-1.948,-1.9668,-2.0091,-2.0108,-1.7769,-1.5166,-1.2737,-1.3378,-1.3614,-1.3614,-1.3607,-1.3567,-1.3454,-1.3287,-1.31,-1.3146,-1.3247,-1.3146,-1.2935,-1.2705,-1.2016,-1.1278,-1.0878,-0.9862,-0.8756,-0.7801,-0.7372,-0.7139,-0.7139,-0.7139,-0.7139,-0.7139,-0.7139,-0.7139,-0.7139,-0.7139,-0.7139,-0.7139,-0.7139,-0.7139,-0.7139,-0.7139,-0.7139,-0.7139,-0.7139,-0.7139,-0.7139,-0.7143,-0.7104,-0.678,-0.5476,-0.3518,-0.0,-0.0,-0.0,-0.0,-0.0,-0.0,-0.0,-0.0,-0.0,-0.0,-0.0,-0.0,-0.0,-0.0,-0.0,-0.0,-0.0,-0.0,-0.0,-0.0,-0.0,-0.0,-0.0,-0.0,-0.0,-0.0,-0.0,-0.0,-0.0,-0.0,-0.0,-0.0,-0.0,-0.0,-0.0,-0.0,0.1713,0.3929]},{"header":{"parameterUnit":"m.s-1","parameterCategory":1,"la1":31.0,"la2":29.5877,"lo1":-88.7671,"lo2":-86.6584,"dy":0.0162,"dx":0.0185,"nx":115,"ny":88,"refTime":"2024-05-13T06:00:00:Z","depth":0,"parameterNumber":3,"parameterNumberName":"V-component_of_WINDS"},"data":[0.0,0.0,0.0,0.0,0.0,0.0,0.0,0.0,0.0,0.0,0.0,0.0,0.0,0.0,0.0,0.0,0.0,0.0,0.0,0.0,0.0,0.0,0.0,0.0,0.0,0.0,0.0,0.0,0.0,0.0,0.0,0.0,0.0,0.0,0.0,0.0,0.0,0.0,0.0,0.0,0.0,0.0,0.0,0.0,0.0,0.0,0.0,0.0,0.0,0.0,0.0,0.0,0.0,0.0,0.0,0.0,0.0,0.0,0.0,0.0,0.0,0.0,0.0,0.0,0.0,0.0,0.0,0.0,0.0,0.0,0.0,0.0,0.0,0.0,0.0,0.0,0.0,0.0,0.0,0.0,0.0,0.0,0.0,0.0,0.0,0.0,0.0,0.0,0.0,0.0,0.0,0.0,0.0,0.0,0.0,0.0,0.0,0.0,0.0,0.0,0.0,0.0,0.0,0.0,0.0,0.0,0.0,0.0,0.0,0.0,0.0,0.0,0.0,0.0,0.0,0.0,0.0,0.0,0.0,0.0,0.0,0.0,0.0,0.0,0.0,0.0,0.0,0.0,0.0,0.0,0.0,0.0,0.0,0.0,0.0,0.0,0.0,0.0,0.0,0.0,0.0,0.0,0.0,0.0,0.0,0.0,0.0,0.0,0.0,0.0,0.0,0.0,0.0,0.0,0.0,0.0,0.0,0.0,0.0,0.0,0.0,0.0,0.0,0.0,0.0,0.0,0.0,0.0,0.0,0.0,0.0,0.0,0.0,0.0,0.0,0.0,0.0,0.0,0.0,0.0,0.0,0.0,0.0,0.0,0.0,0.0,0.0,0.0,0.0,0.0,0.0,0.0,0.0,0.0,0.0,0.0,0.0,0.0,0.0,0.0,0.0,0.0,0.0,0.0,0.0,0.0,0.0,0.0,0.0,0.0,0.0,0.0,0.0,0.0,0.0,0.0,0.0,0.0,0.0,0.0,0.0,0.0,0.0,0.0,0.0,0.0,0.0,0.0,0.0,0.0,0.0,0.0,0.0,0.0,0.0,0.0,0.0,0.0,0.0,0.0,0.0,0.0,0.0,0.0,0.0,0.0,0.0,0.0,0.0,0.0,0.0,0.0,0.0,0.0,0.0,0.0,0.0,0.0,0.0,0.0,0.0,0.0,0.0,0.0,0.0,0.0,0.0,0.0,0.0,0.0,0.0,0.0,0.0,0.0,0.0,0.0,0.0,0.0,0.0,0.0,0.0,0.0,0.0,0.0,0.0,0.0,0.0,0.0,0.0,0.0,0.0,0.0,0.0,0.0,0.0,0.0,0.0,0.0,0.0,0.0,0.0,0.0,0.0,0.0,0.0,0.0,0.0,0.0,0.0,0.0,0.0,0.0,0.0,0.0,0.0,0.0,0.0,0.0,0.0,0.0,0.0,0.0,0.0,0.0,0.0,0.0,0.0,0.0,0.0,0.0,0.0,0.0,0.0,0.0,0.0,0.0,0.0,0.0,0.0,0.0,0.0,0.0,0.0,0.0,0.0,0.0,0.0,0.0,0.0,0.0,0.0,0.0,0.0,0.0,0.0,0.0,0.0,0.0,0.0,0.0,0.0,0.0,0.0,0.0,0.0,0.0,0.0,0.0,0.0,0.0,0.0,0.0,0.0,0.0,0.0,0.0,0.0,0.0,0.0,0.0,0.0,0.0,0.0,0.0,0.0,0.0,0.0,0.0,0.0,0.0,0.0,0.0,0.0,0.0,0.0,0.0,0.0,0.0,0.0,0.0,0.0,0.0,0.0,0.0,0.0,0.0,0.0,0.0,0.0,0.0,0.0,0.0,0.0,0.0,0.0,0.0,0.0,0.0,0.0,0.0,0.0,0.0,0.0,0.0,0.0,0.0,0.0,0.0,0.0,0.0,0.0,0.0,0.0,0.0,0.0,0.0,0.0,0.0,0.0,0.0,0.0,0.0,0.0,0.0,0.0,0.0,0.0,0.0,0.0,0.0,0.0,0.0,0.0,0.0,0.0,0.0,0.0,0.0,0.0,0.0,0.0,0.0,0.0,0.0,0.0,0.0,0.0,0.0,0.0,0.0,0.0,0.0,0.0,0.0,0.0,0.0,0.0,0.0,0.0,0.0,0.0,0.0,0.0,0.0,0.0,0.0,0.0,0.0,0.0,0.0,0.0,0.0,0.0,0.0,0.0,0.0,0.0,0.0,0.0,0.0,0.0,0.0,0.0,0.0,0.0,0.0,0.0,0.0,0.0,0.0,0.0,0.0,0.0,0.0,0.0,0.0,0.0,0.0,0.0,0.0,0.0,0.0,0.0,0.0,0.0,0.0,0.0,0.0,0.0,0.0,0.0,0.0,0.0,0.0,0.0,0.0,0.0,0.0,0.0,0.0,0.0,0.0,0.0,0.0,0.0,0.0,0.0,0.0,0.0,0.0,0.0,0.0,0.0,0.0,0.0,0.0,0.0,0.0,0.0,0.0,0.0,0.0,0.0,0.0,0.0,0.0,0.0,0.0,0.0,0.0,0.0,0.0,0.0,0.0,0.0,0.0,0.0,0.0,0.0,0.0,0.0,0.0,0.0,0.0,0.0,0.0,0.0,0.0,0.0,0.0,0.0,0.0,0.0,0.0,0.0,0.0,0.0,0.0,0.0,0.0,0.0,0.0,0.0,0.0,0.0,0.0,0.0,0.0,0.0,0.0,0.0,0.0,0.0,0.0,0.0,0.0,0.0,0.0,0.0,0.0,0.0,0.0,0.0,0.0,0.0,0.0,0.0,0.0,0.0,0.0,0.0,0.0,0.0,0.0,0.0,0.0,0.0,0.0,0.0,0.0,0.0,0.0,0.0,0.0,0.0,0.0,0.0,0.0,0.0,0.0,0.0,0.0,0.0,0.0,0.0,0.0,0.0,0.0,0.0,0.0,0.0,0.0,0.0,0.0,0.0,0.0,0.0,0.0,0.0,0.0,0.0,0.0,0.0,0.0,0.0,0.0,0.0,0.0,0.0,0.0,0.0,0.0,0.0,0.0,0.0,0.0,0.0,0.0,0.0,0.0,0.0,0.0,0.0,0.0,0.0,0.0,0.0,0.0,0.0,0.0,0.0,0.0,0.0,0.0,0.0,0.0,0.0,0.0,0.0,0.0,0.0,0.0,0.0,0.0,0.0,0.0,0.0,0.0,0.0,0.0,0.0,0.0,0.0,0.0,0.0,0.0,0.0,0.0,0.0,0.0,0.0,0.0,0.0,0.0,0.0,0.0,0.0,0.0,0.0,0.0,0.0,0.0,0.0,0.0,0.0,0.0,0.0,0.0,0.0,0.0,0.0,0.0,0.0,0.0,0.0,0.0,0.0,0.0,0.0,0.0,0.0,0.0,0.0,0.0,0.0,0.0,0.0,0.0,0.0,0.0,0.0,0.0,0.0,0.0,0.0,0.0,0.0,0.0,0.0,0.0,0.0,0.0,0.0,0.0,0.0,0.0,0.0,0.0,0.0,0.0,0.0,0.0,0.0,0.0,0.0,0.0,0.0,0.0,0.0,0.0,0.0,0.0,0.0,0.0,0.0,0.0,0.0,0.0,0.0,0.0,0.0,0.0,0.0,0.0,0.0,0.0,0.0,0.0,0.0,0.0,0.0,0.0,0.0,0.0,0.0,0.0,0.0,0.0,0.0,0.0,0.0,0.0,0.0,0.0,0.0,0.0,0.0,0.0,0.0,0.0,0.0,0.0,0.0,0.0,0.0,0.0,0.0,0.0,0.0,0.0,0.0,0.0,0.0,0.0,0.0,0.0,0.0,0.0,0.0,0.0,0.0,0.0,0.0,0.0,0.0,0.0,0.0,0.0,0.0,0.0,0.0,0.0,0.0,0.0,0.0,0.0,0.0,0.0,0.0,0.0,0.0,0.0,0.0,0.0,0.0,0.0,0.0,0.0,0.0,0.0,0.0,0.0,0.0,0.0,0.0,0.0,0.0,0.0,0.0,0.0,0.0,0.0,0.0,0.0,0.0,0.0,0.0,0.0,0.0,0.0,0.0,0.0,0.0,0.0,0.0,0.0,0.0,0.0,0.0,0.0,0.0,0.0,0.0,0.0,0.0,0.0,0.0,0.0,0.0,0.0,0.0,0.0,0.0,0.0,0.0,0.0,0.0,0.0,0.0,0.0,0.0,0.0,0.0,0.0,0.0,0.0,0.0,0.0,0.0,0.0,0.0,0.0,0.0,0.0,0.0,0.0,0.0,0.0,0.0,0.0,0.0,0.0,0.0,0.0,0.0,0.0,0.0,0.0,0.0,0.0,0.0,0.0,0.0,0.0,0.0,0.0,0.0,0.0,0.0,0.0,0.0,0.0,0.0,0.0,0.0,0.0,0.0,0.0,0.0,0.0,0.0,0.0,0.0,0.0,0.0,0.0,0.0,0.0,0.0,0.0,0.0,0.0,0.0,0.0,0.0,0.0,0.0,0.0,0.0,0.0,0.0,0.0,0.0,0.0,0.0,0.0,0.0,0.0,0.0,0.0,0.0,0.0,0.0,0.0,0.0,0.0,0.0,0.0,0.0,0.0,0.0,0.0,0.0,0.0,0.0,0.0,0.0,0.0,0.0,0.0,0.0,0.0,0.0,0.0,0.0,0.0,0.0,0.0,0.0,0.0,0.0,0.0,0.0,0.0,0.0,0.0,0.0,0.0,0.0,0.0,0.0,0.0,0.0,0.0,0.0,0.0,0.0,0.0,0.0,0.0,0.0,0.0,0.0,0.0,0.0,0.0,0.0,-0.0333,-0.098,-0.2696,-0.3066,-0.2017,0.0,0.0,0.0,0.0,0.0,0.0,0.0,0.0,0.0,0.0,0.0,0.0,0.0,0.0,0.0,0.0,0.0,0.0,0.0,0.0,0.0,0.0,0.0,0.0,0.0,0.0,0.0,0.0,0.0,0.0,0.0,0.0,0.0,0.0,0.0,0.0,0.0,0.0,0.0,0.0,0.0,0.0,0.0,0.0,0.0,0.0,0.0,0.0,0.0,0.0,0.0,0.0,0.0,0.0,0.0,0.0,0.0,0.0,0.0,0.0,0.0,0.0,0.0,0.0,0.0,0.0,0.0,0.0,0.0,0.0,0.0,0.0,0.0,0.0,0.0,0.0,0.0,0.0,0.0,0.0,0.0,0.0,0.0,0.0,0.0,0.0,0.0,0.0,0.0,0.0,0.0,0.0,0.0,0.0,0.0,0.0,0.0,0.0,0.0,0.0,0.0,0.0,0.0,0.0,0.0,0.0,0.0,0.0,0.0,0.0,0.0,0.0,-0.3079,-0.364,-0.3422,0.0,0.0,0.0,0.0,0.0,0.0,0.0,0.0,0.0,0.0,0.0,0.0,0.0,0.0,0.0,0.0,0.0,0.0,0.0,0.0,0.0,0.0,0.0,0.0,0.0,0.0,0.0,0.0,0.0,0.0,0.0,0.0,0.0,0.0,0.0,0.0,0.0,0.0,0.0,0.0,0.0,0.0,0.0,0.0,0.0,0.0,0.0,0.0,0.0,0.0,0.0,0.0,0.0,0.0,0.0,0.0,0.0,0.0,0.0,0.0,0.0,0.0,0.0,0.0,0.0,0.0,0.0,0.0,0.0,0.0,0.0,0.0,0.0,0.0,0.0,0.0,0.0,0.0,0.0,0.0,0.0,0.0,0.0,0.0,0.0,0.0,0.0,0.0,0.0,0.0,0.0,0.0,0.0,0.0,0.0,0.0,0.0,0.0,0.0,0.0,0.0,0.0,0.0,0.0,0.0,0.0,0.0,0.0,0.0,0.0,-0.3466,-0.2221,-0.3447,0.0,-0.2925,0.0,0.0,0.0,0.0,0.0,0.0,0.0,0.0,0.0,0.0,0.0,0.0,0.0,0.0,0.0,0.0,0.0,0.0,0.0,0.0,0.0,0.0,0.0,0.0,0.0,0.0,0.0,0.0,0.0,0.0,0.0,0.0,0.0,0.0,0.0,0.0,0.0,0.0,0.0,0.0,0.0,0.0,0.0,0.0,0.0,0.0,0.0,0.0,0.0,0.0,0.0,0.0,0.0,0.0,0.0,0.0,0.0,0.0,0.0,0.0,0.0,0.0,0.0,0.0,0.0,0.0,0.0,0.0,0.0,0.0,0.0,0.0,0.0,0.0,0.0,0.0,0.0,0.0,0.0,0.0,0.0,0.0,0.0,0.0,0.0,0.0,0.0,0.0,0.0,0.0,0.0,0.0,0.0,0.0,0.0,0.0,0.0,0.0,0.0,0.0,0.0,0.0,0.0,0.0,0.0,0.0,0.0,0.0,0.0,0.0,-0.4094,-0.3305,-0.374,-0.3904,0.0,0.0,0.0,0.0,0.0,0.0,0.0,0.0,0.0,0.0,0.0,0.0,0.0,0.0,0.0,0.0,0.0,0.0,0.0,0.0,0.0,0.0,0.0,0.0,0.0,0.0,0.0,0.0,0.0,0.0,0.0,0.0,0.0,0.0,0.0,0.0,0.0,0.0,0.0,0.0,0.0,0.0,0.0,0.0,0.0,0.0,0.0,0.0,0.0,0.0,0.0,0.0,0.0,0.0,0.0,0.0,0.0,0.0,0.0,0.0,0.0,0.0,0.0,0.0,0.0,0.0,0.0,0.0,0.0,0.0,0.0,0.0,0.0,0.0,0.0,0.0,0.0,0.0,0.0,0.0,0.0,0.0,0.0,0.0,0.0,0.0,0.0,0.0,0.0,0.0,0.0,0.0,0.0,0.0,0.0,0.0,0.0,0.0,0.0,0.0,0.0,0.0,0.0,0.0,0.0,0.0,0.0,0.0,0.0,0.0,-0.4306,-0.4313,-0.409,-0.3989,-0.4019,-0.4133,0.0,0.0,0.0,0.0,0.0,0.0,0.0,0.0,0.0,0.0,0.0,0.0,0.0,0.0,0.0,0.0,0.0,0.0,0.0,0.0,0.0,0.0,0.0,0.0,0.0,0.0,0.0,0.0,0.0,0.0,0.0,0.0,0.0,0.0,0.0,0.0,0.0,0.0,0.0,0.0,0.0,0.0,0.0,0.0,0.0,0.0,0.0,0.0,0.0,0.0,0.0,0.0,0.0,0.0,0.0,0.0,0.0,0.0,0.0,0.0,0.0,0.0,0.0,0.0,0.0,0.0,0.0,0.0,0.0,0.0,0.0,0.0,0.0,0.0,0.0,0.0,0.0,0.0,0.0,0.0,0.0,0.0,0.0,0.0,0.0,0.0,0.0,0.0,0.0,0.0,0.0,0.0,0.0,0.0,0.0,0.0,0.0,0.0,0.0,0.0,0.0,0.0,0.0,0.0,0.0,0.0,0.0,0.0,-0.417,-0.4184,-0.419,-0.418,-0.4187,-0.412,0.0,0.0,0.0,0.0,0.0,0.0,0.0,0.0,0.0,0.0,0.0,0.0,0.0,0.0,0.0,0.0,0.0,0.0,0.0,0.0,0.0,0.0,0.0,0.0,0.0,0.0,0.0,0.0,0.0,0.0,0.0,0.0,0.0,0.0,0.0,0.0,0.0,0.0,0.0,0.0,0.0,0.0,0.0,0.0,0.0,0.0,0.0,0.0,0.0,0.0,0.0,0.0,0.0,0.0,0.0,0.0,0.0,0.0,0.0,0.0,0.0,0.0,0.0,0.0,0.0,0.0,0.0,0.0,0.0,0.0,0.0,0.0,0.0,0.0,0.0,0.0,0.0,0.0,0.0,0.0,0.0,0.0,0.0,0.0,0.0,0.0,0.0,0.0,0.0,0.0,0.0,0.0,0.0,0.0,0.0,0.0,0.0,0.0,0.0,0.0,0.0,0.0,0.0,0.0,0.0,0.0,0.0,0.0,0.0,-0.3819,-0.3966,-0.4009,-0.4082,-0.402,-0.4033,0.0,0.0,0.0,0.0,0.0,0.0,0.0,0.0,0.0,0.0,0.0,0.0,0.0,0.0,0.0,0.0,0.0,0.0,0.0,0.0,0.0,0.0,0.0,0.0,0.0,0.0,0.0,0.0,0.0,0.0,0.0,0.0,0.0,0.0,0.0,0.0,0.0,0.0,0.0,0.0,0.0,0.0,0.0,0.0,0.0,0.0,0.0,0.0,0.0,0.0,0.0,0.0,0.0,0.0,0.0,0.0,0.0,0.0,0.0,0.0,0.0,0.0,0.0,0.0,0.0,0.0,0.0,0.0,0.0,0.0,0.0,0.0,0.0,0.0,0.0,0.0,0.0,0.0,0.0,0.0,0.0,0.0,0.0,0.0,0.0,0.0,0.0,0.0,0.0,0.0,0.0,0.0,0.0,0.0,0.0,0.0,0.0,0.0,0.0,0.0,0.0,0.0,0.0,0.0,0.0,0.0,0.0,0.0,0.0,-0.3608,0.0,-0.3904,-0.3942,-0.3914,-0.3928,0.0,0.0,0.0,0.0,0.0,0.0,0.0,0.0,0.0,0.0,0.0,0.0,0.0,0.0,0.0,0.0,0.0,0.0,0.0,0.0,0.0,0.0,0.0,0.0,0.0,0.0,0.0,0.0,0.0,0.0,0.0,0.0,0.0,0.0,0.0,0.0,0.0,0.0,0.0,0.0,0.0,0.0,0.0,0.0,0.0,0.0,0.0,0.0,0.0,0.0,0.0,0.0,0.0,0.0,0.0,0.0,0.0,0.0,0.0,0.0,0.0,0.0,0.0,0.0,0.0,0.0,0.0,0.0,0.0,0.0,0.0,0.0,0.0,0.0,0.0,0.0,0.0,0.0,0.0,0.0,0.0,0.0,0.0,0.0,0.0,0.0,0.0,0.0,0.0,0.0,0.0,0.0,0.0,0.0,0.0,0.0,0.0,0.0,0.0,0.0,0.0,0.0,0.0,0.0,0.0,0.0,0.0,0.0,-0.3604,-0.3601,-0.3738,-0.3849,-0.3913,-0.3849,-0.3731,0.0,0.0,0.0,0.0,0.0,0.0,0.0,0.0,0.0,0.0,0.0,0.0,0.0,0.0,0.0,0.0,0.0,0.0,0.0,0.0,0.0,0.0,0.0,0.0,0.0,0.0,0.0,0.0,0.0,0.0,0.0,0.0,0.0,0.0,0.0,0.0,0.0,0.0,0.0,0.0,0.0,0.0,0.0,0.0,0.0,0.0,0.0,0.0,0.0,0.0,0.0,0.0,0.0,0.0,0.0,0.0,0.0,0.0,0.0,0.0,0.0,0.0,0.0,0.0,0.0,0.0,0.0,0.0,0.0,0.0,0.0,0.0,0.0,0.0,0.0,0.0,0.0,0.0,0.0,0.0,0.0,0.0,0.0,0.0,0.0,0.0,0.0,0.0,0.0,0.0,0.0,0.0,0.0,0.0,0.0,0.0,0.0,0.0,0.0,0.0,0.0,0.0,0.0,0.0,0.0,0.0,0.0,0.0,0.0,-0.3608,-0.3646,-0.3754,-0.3958,-0.3768,-0.3785,0.0,0.0,0.0,0.0,0.0,0.0,0.0,0.0,0.0,0.0,0.0,0.0,0.0,0.0,0.0,0.0,0.0,0.0,0.0,0.0,0.0,0.0,0.0,0.0,0.0,0.0,0.0,0.0,0.0,0.0,0.0,0.0,0.0,0.0,0.0,0.0,0.0,0.0,0.0,0.0,0.0,0.0,0.0,0.0,0.0,0.0,0.0,0.0,0.0,0.0,0.0,0.0,0.0,0.0,0.0,0.0,0.0,0.0,0.0,0.0,0.0,0.0,0.0,0.0,0.0,0.0,0.0,0.0,0.0,0.0,0.0,0.0,0.0,0.0,0.0,0.0,0.0,0.0,0.0,0.0,0.0,0.0,0.0,0.0,0.0,0.0,0.0,0.0,0.0,0.0,0.0,0.0,0.0,0.0,0.0,0.0,0.0,0.0,0.0,0.0,0.0,0.0,0.0,0.0,0.0,0.0,0.0,0.0,0.0,-0.3666,-0.3714,-0.3792,-0.3939,-0.3812,-0.3845,-0.4113,0.0,0.0,0.0,0.0,0.0,0.0,0.0,0.0,0.0,0.0,0.0,0.0,0.0,0.0,0.0,0.0,0.0,0.0,0.0,0.0,0.0,0.0,0.0,0.0,0.0,0.0,0.0,0.0,0.0,0.0,0.0,0.0,0.0,0.0,0.0,0.0,0.0,0.0,0.0,0.0,0.0,0.0,0.0,0.0,0.0,0.0,0.0,0.0,0.0,0.0,0.0,0.0,0.0,0.0,0.0,0.0,0.0,0.0,0.0,0.0,0.0,0.0,0.0,0.0,0.0,0.0,0.0,0.0,0.0,0.0,0.0,0.0,0.0,0.0,0.0,0.0,0.0,0.0,0.0,0.0,0.0,0.0,0.0,0.0,0.0,0.0,0.0,0.0,0.0,0.0,0.0,0.0,0.0,0.0,0.0,0.0,0.0,0.0,0.0,0.0,0.0,0.0,0.0,0.0,0.0,0.0,0.0,0.0,-0.3809,-0.3961,-0.3993,-0.3949,-0.3886,-0.3946,0.0,0.0,0.0,0.0,0.0,0.0,0.0,0.0,0.0,0.0,0.0,0.0,0.0,0.0,0.0,0.0,0.0,0.0,0.0,0.0,0.0,0.0,0.0,0.0,0.0,0.0,0.0,0.0,0.0,0.0,0.0,0.0,0.0,0.0,0.0,0.0,0.0,0.0,0.0,0.0,0.0,0.0,0.0,0.0,0.0,0.0,0.0,0.0,0.0,0.0,0.0,0.0,0.0,0.0,0.0,0.0,0.0,0.0,0.0,0.0,0.0,0.0,0.0,0.0,0.0,0.0,0.0,0.0,0.0,0.0,0.0,0.0,0.0,0.0,0.0,0.0,0.0,0.0,0.0,0.0,0.0,0.0,0.0,0.0,0.0,0.0,0.0,0.0,0.0,0.0,0.0,0.0,0.0,0.0,0.0,0.0,0.0,0.0,0.0,0.0,0.0,0.0,0.0,0.0,0.0,0.0,0.0,0.0,0.0,-0.3972,-0.4212,-0.4297,-0.4143,-0.3999,-0.4097,0.0,0.0,0.0,0.0,0.0,0.0,0.0,0.0,0.0,0.0,0.0,0.0,0.0,0.0,0.0,0.0,0.0,0.0,0.0,0.0,0.0,0.0,0.0,0.0,0.0,0.0,0.0,0.0,0.0,0.0,0.0,0.0,0.0,0.0,0.0,0.0,0.0,0.0,0.0,0.0,0.0,0.0,0.0,0.0,0.0,0.0,0.0,0.0,0.0,0.0,0.0,0.0,0.0,0.0,0.0,0.0,0.0,0.0,0.0,0.0,0.0,0.0,0.0,0.0,0.0,0.0,0.0,0.0,0.0,0.0,0.0,0.0,0.0,0.0,0.0,0.0,0.0,0.0,0.0,0.0,0.0,0.0,0.0,0.0,0.0,0.0,0.0,0.0,0.0,0.0,0.0,0.0,0.0,0.0,0.0,0.0,0.0,0.0,0.0,0.0,0.0,0.0,0.0,0.0,0.0,0.0,0.0,0.0,-0.4063,-0.407,-0.4341,-0.4423,-0.4341,-0.427,-0.3984,0.0,0.0,0.0,0.0,0.0,0.0,0.0,0.0,0.0,0.0,0.0,0.0,0.0,0.0,0.0,0.0,0.0,0.0,0.0,0.0,0.0,0.0,0.0,0.0,0.0,0.0,0.0,0.0,0.0,0.0,0.0,0.0,0.0,0.0,0.0,0.0,0.0,0.0,0.0,0.0,0.0,0.0,0.0,0.0,0.0,0.0,0.0,0.0,0.0,0.0,0.0,0.0,0.0,0.0,0.0,0.0,0.0,0.0,0.0,0.0,0.0,0.0,0.0,0.0,0.0,0.0,0.0,0.0,0.0,0.0,0.0,0.0,0.0,0.0,0.0,0.0,0.0,0.0,0.0,0.0,0.0,0.0,0.0,0.0,0.0,0.0,0.0,0.0,0.0,0.0,0.0,0.0,0.0,0.0,0.0,0.0,0.0,0.0,0.0,0.0,0.0,0.0,0.0,0.0,0.0,0.0,0.0,0.0,-0.4233,-0.4197,-0.4385,-0.4463,-0.4463,-0.4473,-0.3858,0.0,0.0,0.0,0.0,0.0,0.0,0.0,0.0,0.0,0.0,0.0,0.0,0.0,0.0,0.0,0.0,0.0,0.0,0.0,0.0,0.0,0.0,0.0,0.0,0.0,0.0,0.0,0.0,0.0,0.0,0.0,0.0,0.0,0.0,0.0,0.0,0.0,0.0,0.0,0.0,0.0,0.0,0.0,0.0,0.0,0.0,0.0,0.0,0.0,0.0,0.0,0.0,0.0,0.0,0.0,0.0,0.0,0.0,0.0,0.0,0.0,0.0,0.0,0.0,0.0,0.0,0.0,0.0,0.0,0.0,0.0,0.0,0.0,0.0,0.0,0.0,0.0,0.0,0.0,0.0,0.0,0.0,0.0,0.0,0.0,0.0,0.0,0.0,0.0,0.0,0.0,0.0,0.0,0.0,0.0,0.0,0.0,0.0,0.0,0.0,0.0,0.0,0.0,0.0,0.0,0.0,0.0,0.0,-0.4583,-0.4246,-0.4389,-0.4463,-0.4463,-0.4473,-0.4369,0.0,0.0,0.0,0.0,0.0,0.0,0.0,0.0,0.0,0.0,0.0,0.0,0.0,0.0,0.0,0.0,0.0,0.0,0.0,0.0,0.0,0.0,0.0,0.0,0.0,0.0,0.0,0.0,0.0,0.0,0.0,0.0,0.0,0.0,0.0,0.0,0.0,0.0,0.0,0.0,0.0,0.0,0.0,0.0,0.0,0.0,0.0,0.0,-1.2929,0.0,0.0,0.0,0.0,0.0,0.0,0.0,0.0,0.0,0.0,0.0,0.0,0.0,0.0,0.0,0.0,0.0,0.0,0.0,0.0,0.0,0.0,0.0,0.0,0.0,0.0,0.0,0.0,0.0,0.0,0.0,0.0,0.0,0.0,0.0,0.0,0.0,0.0,0.0,0.0,0.0,0.0,0.0,0.0,0.0,0.0,0.0,0.0,0.0,0.0,0.0,0.0,0.0,0.0,0.0,0.0,0.0,0.0,0.0,-0.4506,-0.4345,-0.4423,-0.4463,-0.4463,-0.4467,-0.448,0.0,0.0,0.0,0.0,0.0,0.0,0.0,0.0,0.0,0.0,0.0,0.0,0.0,0.0,0.0,0.0,0.0,0.0,0.0,0.0,0.0,0.0,0.0,0.0,0.0,0.0,0.0,0.0,0.0,0.0,0.0,0.0,0.0,0.0,0.0,0.0,0.0,0.0,0.0,0.0,0.0,0.0,0.0,0.0,0.0,0.0,0.0,0.0,0.0,0.0,0.0,0.0,0.0,0.0,0.0,0.0,0.0,0.0,0.0,0.0,0.0,0.0,0.0,0.0,0.0,0.0,0.0,0.0,0.0,0.0,0.0,0.0,0.0,0.0,0.0,0.0,0.0,0.0,0.0,0.0,0.0,0.0,0.0,0.0,0.0,0.0,0.0,0.0,0.0,0.0,0.0,0.0,0.0,0.0,0.0,0.0,0.0,0.0,0.0,0.0,0.0,0.0,0.0,0.0,0.0,0.0,0.0,-0.4282,-0.4371,-0.4508,-0.4463,-0.4463,-0.4463,-0.4463,-0.4473,-0.4438,0.0,0.0,0.0,0.0,0.0,0.0,0.0,0.0,0.0,0.0,0.0,0.0,0.0,0.0,0.0,0.0,0.0,0.0,0.0,0.0,0.0,0.0,0.0,0.0,0.0,0.0,0.0,0.0,0.0,0.0,0.0,0.0,0.0,0.0,0.0,0.0,0.0,0.0,-1.289,-1.3552,0.0,0.0,0.0,0.0,0.0,0.0,0.0,0.0,-1.4376,0.0,0.0,0.0,0.0,0.0,0.0,0.0,0.0,0.0,0.0,0.0,0.0,0.0,0.0,0.0,0.0,0.0,0.0,0.0,0.0,0.0,0.0,0.0,0.0,0.0,0.0,0.0,0.0,0.0,0.0,0.0,0.0,0.0,0.0,0.0,0.0,0.0,0.0,0.0,0.0,0.0,0.0,0.0,0.0,0.0,0.0,0.0,0.0,0.0,0.0,0.0,0.0,0.0,0.0,0.0,0.0,-0.5075,-0.5,-0.4835,-0.4512,-0.4463,-0.4463,-0.4463,-0.4463,-0.447,-0.4425,0.0,0.0,0.0,0.0,0.0,0.0,0.0,0.0,0.0,0.0,0.0,0.0,0.0,0.0,0.0,0.0,0.0,0.0,0.0,0.0,0.0,0.0,0.0,0.0,0.0,0.0,0.0,0.0,0.0,0.0,0.0,0.0,0.0,0.0,0.0,0.0,0.0,0.0,0.0,-1.4143,-1.4797,0.0,0.0,0.0,0.0,0.0,0.0,0.0,0.0,-1.5028,0.0,0.0,0.0,0.0,0.0,0.0,0.0,0.0,0.0,0.0,0.0,0.0,0.0,0.0,0.0,0.0,0.0,0.0,0.0,0.0,0.0,0.0,0.0,0.0,0.0,0.0,0.0,0.0,0.0,0.0,0.0,0.0,0.0,0.0,0.0,0.0,0.0,0.0,0.0,0.0,0.0,0.0,0.0,0.0,0.0,0.0,0.0,0.0,0.0,0.0,0.0,0.0,0.0,0.0,0.0,-0.5276,-0.5312,-0.5185,-0.4999,-0.468,-0.4463,-0.4463,-0.4463,-0.4463,0.0,0.0,0.0,0.0,0.0,0.0,0.0,0.0,0.0,0.0,0.0,0.0,0.0,0.0,0.0,0.0,0.0,0.0,0.0,0.0,0.0,0.0,0.0,0.0,0.0,0.0,0.0,0.0,0.0,0.0,0.0,0.0,0.0,0.0,0.0,0.0,0.0,0.0,0.0,0.0,-1.4378,-1.5097,-1.5291,0.0,0.0,0.0,0.0,0.0,0.0,-1.5188,-1.5903,0.0,0.0,0.0,0.0,0.0,0.0,0.0,0.0,0.0,0.0,0.0,0.0,0.0,0.0,0.0,0.0,0.0,0.0,0.0,0.0,0.0,0.0,0.0,0.0,0.0,0.0,0.0,0.0,0.0,0.0,0.0,0.0,0.0,0.0,0.0,0.0,0.0,0.0,0.0,0.0,0.0,0.0,0.0,0.0,0.0,0.0,0.0,0.0,0.0,0.0,0.0,0.0,0.0,0.0,0.0,-0.5544,-0.5668,-0.5651,-0.5487,-0.4948,-0.4625,-0.4519,-0.4463,-0.4463,0.0,0.0,0.0,0.0,0.0,0.0,0.0,0.0,0.0,0.0,0.0,0.0,0.0,0.0,0.0,0.0,0.0,0.0,0.0,0.0,0.0,0.0,0.0,0.0,0.0,0.0,0.0,0.0,0.0,0.0,0.0,0.0,0.0,0.0,0.0,0.0,0.0,0.0,0.0,0.0,0.0,-1.521,-1.6333,-1.5997,0.0,0.0,0.0,0.0,-1.5302,-1.6009,0.0,0.0,0.0,0.0,0.0,0.0,0.0,0.0,0.0,0.0,0.0,0.0,0.0,0.0,0.0,0.0,0.0,0.0,0.0,0.0,0.0,0.0,0.0,0.0,0.0,0.0,0.0,0.0,0.0,0.0,0.0,0.0,0.0,0.0,0.0,0.0,0.0,0.0,0.0,0.0,0.0,0.0,0.0,0.0,0.0,0.0,0.0,0.0,0.0,0.0,0.0,0.0,0.0,0.0,0.0,0.0,-0.6272,-0.642,-0.6145,-0.5542,-0.5433,-0.5113,-0.4515,-0.4463,-0.4463,0.0,0.0,0.0,0.0,0.0,0.0,0.0,0.0,0.0,0.0,0.0,0.0,0.0,0.0,0.0,0.0,0.0,0.0,0.0,0.0,0.0,0.0,0.0,0.0,0.0,0.0,0.0,0.0,0.0,0.0,0.0,0.0,0.0,0.0,0.0,0.0,0.0,0.0,0.0,0.0,0.0,-1.5555,-1.6377,-1.5985,-1.5543,0.0,0.0,-1.6474,-1.6992,-1.7143,0.0,0.0,0.0,0.0,0.0,0.0,0.0,0.0,0.0,0.0,0.0,0.0,0.0,0.0,0.0,0.0,0.0,0.0,0.0,0.0,0.0,0.0,0.0,0.0,0.0,0.0,0.0,0.0,0.0,0.0,0.0,0.0,0.0,0.0,0.0,0.0,0.0,0.0,0.0,0.0,0.0,0.0,0.0,0.0,0.0,0.0,0.0,0.0,0.0,0.0,0.0,0.0,0.0,0.0,0.0,-0.6967,-0.6559,-0.6967,-0.7074,-0.674,-0.6095,-0.5492,-0.5054,-0.468,-0.4463,0.0,0.0,0.0,0.0,0.0,0.0,0.0,0.0,0.0,0.0,0.0,0.0,0.0,0.0,0.0,0.0,0.0,0.0,0.0,0.0,0.0,0.0,0.0,0.0,0.0,0.0,0.0,0.0,0.0,0.0,0.0,0.0,0.0,0.0,0.0,0.0,0.0,0.0,0.0,0.0,0.0,0.0,-1.6405,-1.6571,0.0,0.0,0.0,-1.7382,-1.7335,0.0,0.0,0.0,0.0,0.0,0.0,0.0,0.0,0.0,0.0,0.0,0.0,0.0,0.0,0.0,0.0,0.0,0.0,0.0,0.0,0.0,0.0,0.0,0.0,0.0,0.0,0.0,0.0,0.0,0.0,0.0,0.0,0.0,0.0,0.0,0.0,0.0,0.0,0.0,0.0,0.0,0.0,0.0,0.0,0.0,0.0,0.0,0.0,0.0,0.0,0.0,0.0,0.0,0.0,0.0,0.0,0.0,-0.6912,-0.7616,-0.7883,-0.767,-0.675,-0.6095,-0.576,-0.5164,0.0,0.0,0.0,0.0,0.0,0.0,0.0,0.0,0.0,0.0,0.0,0.0,0.0,0.0,0.0,0.0,0.0,0.0,0.0,0.0,0.0,0.0,0.0,0.0,0.0,0.0,0.0,-1.4122,0.0,0.0,0.0,0.0,0.0,0.0,0.0,0.0,0.0,0.0,0.0,0.0,0.0,0.0,-1.6074,-1.6823,-1.704,-1.7069,0.0,0.0,-1.8055,-1.7788,-1.8549,-1.9221,0.0,0.0,0.0,0.0,0.0,0.0,0.0,0.0,0.0,0.0,0.0,0.0,0.0,0.0,0.0,0.0,0.0,0.0,0.0,0.0,0.0,0.0,0.0,0.0,0.0,0.0,0.0,0.0,0.0,0.0,0.0,0.0,0.0,0.0,0.0,0.0,0.0,0.0,0.0,0.0,0.0,0.0,0.0,0.0,0.0,0.0,0.0,0.0,0.0,0.0,0.0,0.0,0.0,0.0,0.0,-0.767,-0.8374,-0.8374,-0.7723,-0.7439,-0.7058,-0.6529,-0.6077,-0.5692,0.0,0.0,0.0,0.0,0.0,0.0,0.0,0.0,0.0,0.0,0.0,0.0,0.0,0.0,0.0,0.0,0.0,0.0,0.0,0.0,0.0,0.0,0.0,0.0,0.0,0.0,0.0,0.0,0.0,0.0,0.0,0.0,0.0,0.0,0.0,0.0,0.0,0.0,0.0,0.0,0.0,-1.6749,-1.7922,-1.7164,-1.6844,0.0,0.0,-1.8285,-1.8809,-1.9359,-1.9748,-1.9748,0.0,0.0,0.0,0.0,0.0,0.0,0.0,0.0,0.0,0.0,0.0,0.0,0.0,0.0,0.0,0.0,0.0,0.0,0.0,0.0,0.0,0.0,0.0,0.0,0.0,0.0,0.0,0.0,0.0,0.0,0.0,0.0,0.0,0.0,0.0,0.0,0.0,0.0,0.0,0.0,0.0,0.0,0.0,0.0,0.0,0.0,0.0,0.0,0.0,0.0,0.0,0.0,0.0,-0.8209,-0.7074,-0.8209,-0.8646,-0.8374,-0.8293,-0.7913,-0.7289,-0.6972,-0.6647,0.0,0.0,0.0,0.0,0.0,0.0,0.0,0.0,0.0,0.0,0.0,0.0,0.0,0.0,0.0,0.0,0.0,0.0,0.0,0.0,0.0,0.0,0.0,0.0,0.0,0.0,0.0,0.0,-1.6088,-1.6139,-1.6139,0.0,0.0,0.0,0.0,0.0,0.0,0.0,0.0,0.0,0.0,-1.7694,-1.8119,-1.8101,0.0,0.0,-1.8946,-1.923,-1.9446,-1.9673,-1.9798,-1.9798,-1.9798,0.0,0.0,0.0,0.0,0.0,0.0,0.0,0.0,0.0,0.0,0.0,0.0,0.0,0.0,0.0,0.0,0.0,0.0,0.0,0.0,0.0,0.0,0.0,0.0,0.0,0.0,0.0,0.0,0.0,0.0,0.0,0.0,0.0,0.0,0.0,0.0,0.0,0.0,0.0,0.0,0.0,0.0,0.0,0.0,0.0,0.0,0.0,0.0,0.0,0.0,0.0,0.0,-0.783,-0.6588,-0.8043,-0.8804,-0.8804,-0.8798,-0.8526,-0.8055,-0.7919,-0.7538,0.0,0.0,0.0,0.0,0.0,0.0,0.0,0.0,0.0,0.0,0.0,0.0,0.0,0.0,0.0,0.0,0.0,0.0,0.0,0.0,0.0,0.0,0.0,0.0,0.0,0.0,0.0,0.0,-1.6534,-1.6534,-1.6534,0.0,0.0,0.0,0.0,0.0,0.0,0.0,0.0,0.0,0.0,-1.8505,-1.8668,-1.8882,-1.9083,-1.9246,-1.956,-1.9798,-1.9798,-1.9798,-1.9798,-1.9798,0.0,0.0,0.0,0.0,0.0,0.0,0.0,0.0,0.0,0.0,0.0,0.0,0.0,0.0,0.0,0.0,0.0,0.0,0.0,0.0,0.0,0.0,0.0,0.0,0.0,0.0,0.0,0.0,0.0,0.0,-0.425,0.0,0.0,0.0,0.0,0.0,0.0,0.0,0.0,0.0,0.0,0.0,0.0,0.0,0.0,0.0,0.0,0.0,0.0,0.0,0.0,0.0,0.0,-0.7343,-0.6637,-0.8049,-0.8804,-0.8804,-0.8811,-0.8758,-0.8752,-0.8752,-0.8434,-0.767,0.0,0.0,0.0,0.0,0.0,0.0,0.0,0.0,0.0,0.0,0.0,0.0,0.0,0.0,0.0,0.0,0.0,0.0,0.0,0.0,0.0,0.0,0.0,0.0,0.0,0.0,-1.6479,-1.6534,-1.6522,0.0,0.0,0.0,0.0,0.0,0.0,0.0,0.0,0.0,0.0,-1.8858,-1.9196,-1.9673,-1.9346,-1.9221,-1.9698,-1.9786,-1.9798,-1.985,-1.9798,-1.9798,0.0,0.0,0.0,0.0,0.0,0.0,0.0,0.0,0.0,0.0,0.0,0.0,0.0,0.0,0.0,0.0,0.0,0.0,0.0,0.0,0.0,0.0,0.0,0.0,0.0,0.0,0.0,-0.4464,-0.4378,0.0,0.0,0.0,0.0,0.0,0.0,0.0,0.0,0.0,0.0,0.0,-0.7723,-0.8209,0.0,0.0,0.0,0.0,0.0,0.0,0.0,0.0,0.0,0.0,0.0,0.0,-0.7563,-0.7396,-0.8321,-0.8804,-0.8804,-0.8804,-0.8804,-0.8804,-0.8804,-0.848,-0.7723,0.0,0.0,0.0,0.0,0.0,0.0,0.0,0.0,0.0,0.0,0.0,0.0,0.0,0.0,0.0,0.0,0.0,0.0,0.0,0.0,0.0,0.0,0.0,0.0,0.0,-1.6051,0.0,0.0,0.0,0.0,0.0,0.0,0.0,0.0,0.0,0.0,0.0,-2.0025,-1.953,-1.9896,-2.0315,-2.0612,-1.9991,-1.975,0.0,0.0,0.0,0.0,0.0,0.0,0.0,0.0,0.0,0.0,0.0,0.0,0.0,0.0,-2.2696,-2.1838,-2.1697,-2.1697,-2.1697,0.0,0.0,0.0,0.0,0.0,0.0,0.0,0.0,0.0,0.0,0.0,0.0,0.0,0.0,0.0,0.0,-0.5117,0.0,0.0,0.0,0.0,0.0,0.0,0.0,0.0,-0.7958,-0.8436,-0.8455,-0.9145,-0.9517,0.0,-0.9263,-0.9159,0.0,0.0,0.0,0.0,0.0,0.0,0.0,0.0,-0.767,-0.7723,-0.8427,-0.8804,-0.8804,-0.8804,-0.8804,-0.8804,-0.8804,-0.8685,-0.8461,-0.9287,-0.9496,0.0,0.0,0.0,0.0,0.0,0.0,0.0,0.0,0.0,0.0,0.0,0.0,0.0,0.0,0.0,0.0,0.0,0.0,0.0,0.0,0.0,0.0,0.0,-1.6574,0.0,0.0,0.0,0.0,0.0,0.0,0.0,0.0,0.0,-2.036,-2.0816,-2.1027,-2.0501,-2.0833,-2.1188,-2.1304,0.0,0.0,0.0,0.0,0.0,0.0,0.0,-2.1245,-2.1663,-2.139,-2.117,-2.1295,-2.2569,-2.3407,-2.2828,0.0,0.0,-2.25,-2.2363,-2.2363,-2.2363,-2.2363,-2.2363,-2.2363,-2.2363,-2.2363,0.0,0.0,0.0,0.0,0.0,0.0,0.0,0.0,-0.5194,-0.5512,0.0,-0.6258,0.0,0.0,0.0,0.0,0.0,-0.8156,0.0,0.0,-0.9123,-0.9804,-0.9858,-1.0466,-1.0771,-1.0712,-1.0108,-0.9814,-0.9762,-0.9159,0.0,0.0,0.0,0.0,0.0,0.0,-0.7723,-0.7777,-0.8474,-0.8804,-0.8804,-0.8804,-0.8804,-0.8857,-0.8857,-0.9159,-0.9762,-0.9865,-1.0167,-1.0771,-1.0813,0.0,0.0,0.0,0.0,0.0,0.0,0.0,0.0,0.0,0.0,0.0,0.0,0.0,0.0,0.0,0.0,0.0,0.0,0.0,0.0,-1.7491,0.0,0.0,0.0,0.0,0.0,0.0,0.0,0.0,0.0,0.0,-2.1178,-2.1444,-2.1744,-2.1697,0.0,0.0,0.0,0.0,-2.1697,-2.171,-2.1744,-2.1697,-2.1697,-2.1758,-2.1744,-2.1744,0.0,0.0,-2.1744,-2.2786,-2.3465,-2.2875,-2.3319,-2.3638,-2.3638,-2.3537,-2.3551,-2.3551,-2.3508,-2.3551,-2.3551,-2.3478,-2.3537,-0.067,0.0,0.0,0.0,0.0,-0.4477,-0.4798,-0.5218,-0.5404,-0.5783,-0.6312,-0.6475,0.0,0.0,0.0,0.0,0.0,0.0,-0.8949,-0.9228,-0.9636,-1.005,-1.0517,-1.0712,-1.0568,-1.0108,-1.0364,-1.0261,-0.9814,-1.0115,-0.9769,-0.8811,0.0,0.0,0.0,0.0,-0.8448,-0.8527,-0.9145,-0.9256,-0.8804,-0.8804,-0.9008,-0.9517,-0.9517,-0.9814,-1.0517,-1.0965,-1.1057,-1.0821,-1.1266,0.0,0.0,0.0,0.0,0.0,0.0,0.0,0.0,0.0,0.0,0.0,0.0,0.0,0.0,0.0,0.0,0.0,0.0,0.0,-1.7042,-1.8519,-1.9202,0.0,0.0,0.0,0.0,0.0,0.0,0.0,0.0,0.0,-2.2878,-2.2966,-2.2891,0.0,0.0,-2.2406,-2.2392,-2.2007,-2.1852,-2.2346,0.0,0.0,0.0,-2.2406,-2.2529,-2.298,-2.3024,-2.3069,-2.3084,-2.3664,-2.4116,-2.3933,-2.4389,-2.4752,-2.4697,-2.4116,-2.3653,-2.3595,-2.3595,-2.3595,-2.3595,-2.3606,-2.3882,-0.2889,-0.195,-0.3744,-0.4477,-0.4532,-0.4754,-0.5124,-0.5538,-0.6098,-0.6651,-0.7074,-0.7343,-0.7723,-0.8156,-0.8156,0.0,0.0,0.0,-0.9553,-1.021,-1.0497,-1.0797,-1.1208,-1.1475,-1.1434,-1.104,-1.1124,-1.0965,-1.0559,-1.0712,-1.0415,-0.9614,0.0,0.0,-0.9204,-0.9429,-0.9526,-0.9607,-0.971,-0.9607,-0.9211,-0.9211,-0.9517,-1.0159,-1.0167,-1.0517,-1.1166,-1.1575,-1.1805,-1.1855,-1.2122,-1.24,0.0,0.0,0.0,0.0,0.0,0.0,0.0,0.0,0.0,0.0,0.0,-1.6888,-1.7188,0.0,0.0,0.0,-1.7816,-1.7671,-1.8262,-1.9878,0.0,0.0,0.0,0.0,0.0,0.0,0.0,-2.3615,-2.3845,-2.3921,-2.3921,-2.3921,-2.3694,-2.3143,-2.3068,-2.3054,-2.3054,0.0,-2.2606,-2.3009,-2.3054,-2.3068,-2.3054,-2.3054,-2.3201,-2.3551,-2.3809,-2.3921,-2.3921,-2.4348,-2.4806,-2.5138,-2.5417,-2.5734,-2.6029,-2.5513,-2.5018,-2.476,-2.4925,-2.5095,-2.5095,-2.4319,-2.412,-0.3111,-0.4494,-0.4484,-0.4477,-0.4536,-0.5211,-0.5525,-0.5701,-0.7063,-0.7717,-0.783,-0.8527,-0.8903,-0.8962,-0.8962,0.0,-0.9873,-0.9866,-1.0267,-1.0914,-1.15,-1.1862,-1.1922,-1.255,-1.2881,-1.2774,-1.2187,-1.1864,-1.1765,-1.1225,-1.0965,-1.0872,-1.0914,-1.0618,-0.9961,-1.0509,-1.0864,-1.0813,-1.0261,-0.9909,-0.9917,-0.9865,-1.0218,-1.0864,-1.0864,-1.1166,-1.1873,-1.194,-1.2491,-1.3508,-1.3273,-1.3538,-1.445,0.0,0.0,0.0,0.0,0.0,0.0,0.0,0.0,0.0,0.0,0.0,0.0,0.0,0.0,0.0,-1.9517,0.0,-1.9918,-2.1426,0.0,0.0,0.0,-2.2862,-2.2808,-2.3794,-2.4672,-2.5128,0.0,0.0,-2.4455,0.0,-2.4266,-2.3794,-2.3681,-2.3638,-2.3595,-2.3551,-2.3595,-2.3551,-2.3595,-2.3595,-2.3638,-2.3709,-2.3794,-2.3837,-2.4116,-2.4471,-2.4511,-2.491,-2.5493,-2.6213,-2.6398,-2.6631,-2.7397,-2.7518,-2.7397,-2.676,-2.6969,-2.7355,-2.7144,-2.556,-2.4844,-0.3111,-0.4494,-0.4473,-0.4467,-0.4525,-0.5207,-0.58,-0.6416,-0.7334,-0.7994,-0.8586,-0.9256,-0.9814,-1.0312,-1.0312,-1.0415,-1.0568,-1.0549,-1.0897,-1.1557,-1.1697,-1.2076,-1.2608,-1.2832,-1.2608,-1.208,-1.2461,-1.2353,-1.1864,-1.2197,-1.2089,-1.1616,-1.2147,-1.1792,-1.0618,-1.1216,-1.1316,-1.0813,-1.1166,-1.1065,-1.0568,-1.0568,-1.0872,-1.1566,-1.1557,-1.1882,-1.2608,-1.3064,-1.3641,-1.4291,-1.4709,-1.5191,-1.5875,-1.5381,0.0,0.0,0.0,0.0,0.0,0.0,0.0,0.0,0.0,-1.9198,-1.895,0.0,-1.9142,0.0,-2.0884,-2.0933,-2.0688,-2.2129,0.0,0.0,-2.3897,-2.4634,-2.4586,-2.4839,-2.5051,-2.5182,-2.5089,-2.5028,-2.5028,-2.5012,-2.4973,-2.4831,-2.4471,-2.4074,-2.3681,-2.3595,-2.3595,-2.3638,-2.3638,-2.3752,-2.4142,-2.4552,-2.4776,-2.4831,-2.495,-2.5028,-2.5012,-2.5449,-2.6045,-2.677,-2.7214,-2.7718,-2.849,-2.908,-2.9359,-2.9137,-2.8263,-2.7387,-2.7371,-2.6887,-2.6953,-0.3111,-0.4494,-0.4473,-0.468,-0.5011,-0.5716,-0.642,-0.7122,-0.79,-0.86,-0.9256,-0.9961,-1.0466,-1.0813,-1.0813,-1.0965,-1.1216,-1.1226,-1.1628,-1.2286,-1.256,-1.2781,-1.2929,-1.3478,-1.3218,-1.2344,-1.3175,-1.3116,-1.2363,-1.2907,-1.2847,-1.2295,-1.2715,-1.2605,-1.2034,-1.2181,-1.2098,-1.1742,-1.1774,-1.1616,-1.1266,-1.1266,-1.1566,-1.2295,-1.256,-1.2899,-1.3286,-1.3873,-1.4504,-1.5263,-1.5404,-1.5958,-1.7016,-1.6587,-1.6631,0.0,0.0,0.0,0.0,0.0,0.0,0.0,0.0,0.0,0.0,0.0,-2.0006,-2.0486,-2.1762,-2.2301,-2.1713,-2.296,-2.3951,-2.4186,-2.4789,-2.5297,-2.554,-2.5561,-2.5652,-2.5855,-2.5689,-2.5577,-2.5561,-2.554,-2.5449,-2.5259,-2.5182,-2.491,-2.4415,-2.4307,-2.4307,-2.4307,-2.4307,-2.4389,-2.4697,-2.4973,-2.5221,-2.5221,-2.5411,-2.5577,-2.5577,-2.5997,-2.663,-2.7684,-2.8152,-2.8704,-2.9736,-3.0294,-3.0581,-3.0454,-2.9822,-2.9164,-2.9114,-2.9105,-2.9357,-0.3111,-0.4494,-0.4577,-0.5054,-0.581,-0.6564,-0.7264,-0.7871,-0.862,-0.942,-1.0324,-1.0972,-1.1318,-1.1418,-1.1325,-1.1648,-1.2159,-1.2186,-1.2535,-1.3152,-1.3668,-1.3642,-1.319,-1.4266,-1.4251,-1.33,-1.4135,-1.4115,-1.3272,-1.358,-1.357,-1.3262,-1.3292,-1.3521,-1.3861,-1.3511,-1.3253,-1.2959,-1.236,-1.1995,-1.2045,-1.2094,-1.2478,-1.3175,-1.3776,-1.4137,-1.4137,-1.4702,-1.5457,-1.6339,-1.6109,-1.6685,-1.8157,-1.7897,-1.7691,0.0,-1.9309,0.0,0.0,0.0,0.0,0.0,0.0,0.0,0.0,-2.154,-2.1024,-2.0457,-2.2352,-2.3368,-2.2806,-2.38,-2.4712,-2.5144,-2.5319,-2.5594,-2.6165,-2.6234,-2.6445,-2.6945,-2.6616,-2.6402,-2.6432,-2.63,-2.6036,-2.5924,-2.593,-2.6003,-2.5745,-2.5404,-2.5105,-2.5221,-2.5275,-2.5259,-2.5297,-2.5357,-2.5449,-2.5486,-2.5799,-2.6068,-2.612,-2.6385,-2.7148,-2.8416,-2.8721,-2.9262,-3.0784,-3.1004,-3.1043,-3.1036,-3.0908,-3.0825,-3.096,-3.096,-3.119,-0.3106,-0.4536,-0.5066,-0.6018,-0.725,-0.7985,-0.8404,-0.858,-0.9291,-1.082,-1.2909,-1.3531,-1.4084,-1.4553,-1.4131,-1.4018,-1.4143,-1.4152,-1.4227,-1.4329,-1.4481,-1.4492,-1.4408,-1.5018,-1.5244,-1.5026,-1.52,-1.5189,-1.5015,-1.5056,-1.5105,-1.5026,-1.5521,-1.5775,-1.5842,0.0,0.0,0.0,-1.3278,-1.3167,-1.3217,-1.3791,-1.4293,-1.4768,-1.5498,0.0,-1.5919,-1.6497,-1.712,-1.7713,-1.814,0.0,0.0,0.0,0.0,0.0,0.0,0.0,0.0,0.0,0.0,0.0,-2.2891,-2.2775,-2.2582,-2.2864,-2.2842,-2.2298,-2.3061,-2.355,-2.3443,-2.4418,-2.5105,-2.5221,-2.5928,-2.6705,-2.7347,-2.7464,-2.7719,-2.8467,-2.8463,-2.841,-2.8289,-2.7868,-2.7647,-2.8012,-2.7278,-2.7111,-2.8079,-2.6466,-2.5291,-2.5221,-2.5598,-2.5835,-2.5868,-2.6139,-2.6315,-2.6419,-2.6454,-2.6556,-2.6556,-2.6607,-2.6962,-2.7926,-2.8061,-2.8569,-3.0023,-3.0311,-3.0496,-3.0675,-3.0523,-3.0497,-3.1055,-3.119,-3.119,-0.4056,0.0,-0.5546,-0.6709,0.0,-0.9274,-1.0408,-1.1391,-1.0937,-1.1849,-1.3665,-1.4339,-1.4799,-1.5103,-1.481,-1.504,-1.5568,-1.559,-1.5752,-1.6022,-1.6638,-1.6605,-1.6033,-1.7214,-1.7304,-1.6419,-1.693,-1.676,-1.5977,-1.6162,-1.6162,-1.5966,-1.6266,-1.6514,-1.6712,-1.6886,-1.6288,-1.493,-1.4919,-1.4919,-1.497,-1.5322,-1.5581,-1.5811,0.0,0.0,0.0,0.0,0.0,0.0,0.0,0.0,0.0,0.0,0.0,-2.1669,-2.1773,-2.2005,-2.2579,-2.2863,-2.3432,-2.4246,-2.4327,-2.4096,-2.3578,-2.3822,-2.3853,-2.3605,-2.3823,-2.4241,-2.4752,-2.5619,-2.6211,-2.6504,-2.7289,-2.7994,-2.8315,-2.8399,-2.8552,-2.8926,-2.9011,-2.9011,-2.9011,-2.8687,-2.8552,-2.8873,-2.8349,-2.8113,-2.8617,-2.7267,-2.5961,-2.5928,-2.6139,-2.6332,-2.6367,-2.6505,-2.6708,-2.6708,-2.6708,-2.6708,-2.6708,-2.6873,-2.7244,-2.7963,-2.8576,-2.928,-2.992,-3.0716,-3.1202,-3.0993,-3.0803,-3.0958,-3.1633,-3.1213,-3.0531,-0.5369,-0.5597,-0.646,-0.7725,-0.924,-1.0701,-1.2666,-1.4697,0.0,0.0,0.0,-1.5337,-1.5718,-1.5798,-1.5704,-1.6221,-1.7132,-1.7132,-1.7368,-1.7837,-1.8869,-1.8779,-1.7909,-1.9454,-1.945,-1.8024,-1.8836,-1.8522,-1.7262,-1.7526,-1.7514,-1.7237,-1.7287,-1.7494,-1.7855,-1.8137,-1.799,-1.7367,-1.6761,-1.6525,-1.6525,-1.6626,-1.6722,-1.6814,-1.7405,-1.78,-1.7946,-1.8407,-1.9149,-2.0233,-2.0321,-2.0793,-2.181,-2.1899,-2.1979,-2.2211,-2.2696,-2.3231,-2.3746,-2.4277,-2.4776,-2.5297,-2.5411,-2.5221,-2.4576,-2.4552,-2.4599,-2.4723,-2.4723,-2.5084,-2.5975,-2.6817,-2.7383,-2.7664,-2.8465,-2.9008,-2.9197,-2.927,-2.9394,-2.9459,-2.967,-2.9638,-2.9708,-2.9554,-2.9484,-2.957,-2.9418,-2.9228,-2.9056,-2.8065,-2.7096,-2.6927,-2.6927,-2.6894,-2.6808,-2.6825,-2.6858,-2.6971,-2.6954,-2.6889,-2.6905,-2.7264,-2.7848,-2.8575,-2.9435,-2.9876,-3.0159,-3.1041,-3.1792,-3.1164,-3.1048,-3.1243,-3.1526,-3.0924,-3.0135,-0.6801,-0.7305,-0.8679,-1.0123,-1.1534,-1.2602,-1.4518,-1.6919,-1.7102,-1.7589,-1.8276,-1.8951,-1.9542,-2.0007,-1.9537,-1.9448,-1.9617,-1.9617,-1.9631,0.0,-1.9911,-1.9884,-1.9738,-2.0423,-2.0657,-2.0416,-2.0557,-2.0511,-2.0273,-2.0294,-2.0341,-2.0327,-2.0745,-2.0954,-2.1021,-2.1102,-2.1062,-2.09,-1.8256,-1.692,-1.692,-1.7541,-1.8009,-1.8372,-1.9074,-1.9712,-2.0299,-2.0398,-2.0766,-2.1444,-2.1492,-2.1782,-2.2498,-2.2603,-2.301,-2.3903,-2.4127,-2.4415,-2.4918,-2.5051,-2.5335,-2.5852,-2.6245,-2.6087,-2.5166,-2.5089,-2.5345,-2.5919,-2.6007,-2.6094,-2.6341,-2.7388,-2.7871,-2.745,-2.83,-2.9265,-2.9892,-3.0259,-3.0698,-3.1215,-3.176,-3.1913,-3.1756,-3.1366,-3.1192,-3.1595,-3.0845,-3.0131,-3.0056,-2.9299,-2.8437,-2.7841,-2.762,-2.7522,-2.7442,-2.7227,-2.7404,-2.7695,-2.773,-2.7636,-2.735,-2.8194,-2.8965,-2.9568,-2.968,-2.9704,-3.0105,-3.0309,-3.0617,-3.0353,-3.0415,-3.0315,-2.9861,-3.0036,-3.0645,-1.0141,-0.9854,-1.1378,-1.2819,-1.4334,-1.6414,-1.8373,-2.0131,-2.0406,-2.0147,-1.9613,-1.9798,-2.0216,-2.0827,-2.046,-2.0925,-2.1902,-2.1885,-2.2033,-2.2321,-2.2683,-2.2683,-2.2394,-2.2951,-2.3038,-2.2712,-2.2669,-2.2526,-2.2206,-2.2211,-2.2211,-2.2221,-2.2452,-2.2568,-2.2582,-2.2568,-2.2417,-2.208,-2.0435,-1.9559,-1.9559,-1.9868,-2.0145,-2.0343,-2.068,-2.0953,-2.1293,-2.1293,-2.1882,-2.3221,-2.3267,-2.3881,-2.5155,-2.4891,-2.4859,-2.5384,-2.5061,-2.5067,-2.5598,-2.6233,-2.6902,-2.7537,-2.782,-2.7784,-2.7296,-2.6241,-2.5977,-2.6661,-2.6743,-2.7022,-2.7701,-2.8627,-2.9113,-2.8741,-2.9797,-3.0636,-3.0982,-3.1429,-3.1827,-3.2126,-3.2366,-3.2484,-3.2517,-3.2199,-3.2075,-3.2411,-3.1824,-3.1487,-3.1452,-3.1144,-3.0472,-2.9429,-2.9166,-2.9109,-2.8912,-2.8539,-2.8405,-2.8546,-2.8546,-2.824,-2.7829,-2.8816,-3.0119,-3.0689,-3.081,-3.0939,-3.0938,-3.1617,-3.1755,-3.1338,-3.0939,-3.0821,-3.1192,-3.1819,-3.2193,-1.3626,-1.3098,-1.4469,-1.5963,-1.7611,-2.009,-2.1816,-2.2892,-2.2869,-2.2325,-2.1521,-2.0936,-2.1119,-2.1829,-2.1736,-2.2524,-2.3815,-2.402,-2.4284,-2.4715,-2.5185,-2.5169,-2.476,-2.5207,-2.5191,-2.4712,-2.4673,-2.443,-2.4004,-2.3983,-2.3953,-2.3876,-2.3784,-2.3732,-2.3732,-2.3732,-2.351,-2.3112,-2.2715,-2.2229,-2.1697,-2.1697,-2.1697,-2.1697,-2.1824,-2.1951,-2.2104,-2.2342,-2.3271,-2.4844,-2.5157,-2.5886,-2.7224,-2.6703,-2.6358,-2.6405,-2.596,-2.5999,-2.6781,-2.7671,-2.8509,-2.923,-2.9298,-2.9281,-2.9161,-2.7911,-2.7226,-2.7805,-2.8005,-2.8407,-2.938,-3.0223,-3.058,-3.0514,-3.132,-3.1881,-3.1986,-3.2384,-3.2648,-3.2648,-3.2745,-3.2809,-3.2791,-3.2791,-3.284,-3.2822,-3.2791,-3.2791,-3.2791,-3.2791,-3.2268,-3.1464,-3.082,-3.0308,-3.019,-2.9597,-2.9262,-2.929,-2.9357,-2.9132,-2.8943,-3.0116,-3.132,-3.1901,-3.2255,-3.2078,-3.1671,-3.2423,-3.2753,-3.1957,-3.1419,-3.1689,-3.2551,-3.3038,-3.3241,-1.6299,-1.7381,-1.8244,-1.9699,-2.1369,-2.2425,-2.3431,-2.4247,-2.4012,-2.461,-2.5444,-2.4334,-2.4123,-2.4812,-2.5074,-2.531,-2.5573,-2.5897,-2.6041,-2.6102,-2.6177,-2.6167,-2.6105,-2.6196,-2.6185,-2.6135,-2.6101,-2.6067,-2.5982,-2.5977,-2.5853,-2.5537,-2.5222,-2.5041,-2.5057,-2.5041,-2.5019,-2.4941,-2.4918,-2.3827,-2.1824,-2.1697,-2.1697,-2.1697,-2.2172,-2.2715,-2.3362,-2.4432,-2.5394,-2.6134,-2.6789,-2.7224,-2.738,-2.676,-2.6548,-2.7059,-2.6998,-2.7584,-2.9059,-2.9383,-2.9669,-3.0106,-3.0194,-3.0211,-3.0194,-3.0017,-3.0004,-3.0248,-3.0352,-3.0456,-3.115,-3.1751,-3.1876,-3.1366,-3.1925,-3.2451,-3.2466,-3.284,-3.3136,-3.3154,-3.339,-3.3662,-3.3578,-3.3578,-3.3625,-3.355,-3.3504,-3.3532,-3.3532,-3.3532,-3.3514,-3.3121,-3.2306,-3.1017,-3.024,-2.9674,-2.989,-3.0122,-3.0124,-3.0257,-3.0742,-3.1516,-3.2643,-3.2947,-3.2981,-3.2449,-3.2045,-3.2082,-3.2265,-3.1751,-3.1458,-3.1568,-3.1751,-3.2375,-3.2729,-2.0634,-2.1409,-2.2155,-2.3205,-2.4403,-2.5099,-2.5775,-2.6427,-2.6311,-2.6792,-2.7557,-2.7046,-2.6653,-2.6337,-2.6387,-2.6626,-2.7057,-2.721,-2.725,-2.7255,-2.7256,-2.7302,-2.7396,-2.7424,-2.7497,-2.7638,-2.7497,-2.7419,-2.7414,-2.7324,-2.7166,-2.7061,-2.6879,-2.6819,-2.6819,-2.6802,-2.6638,-2.6337,-2.6337,-2.57,-2.4546,-2.3969,-2.3785,-2.3815,-2.4418,-2.4859,-2.5217,-2.6088,-2.7032,-2.7988,-2.8609,-2.9293,-2.9943,-2.9547,-2.942,-2.9575,-2.9211,-2.9344,-3.0129,-3.0489,-3.0938,-3.1558,-3.1611,-3.1611,-3.1611,-3.1611,-3.1753,-3.2026,-3.155,-3.1379,-3.1951,-3.234,-3.2376,-3.216,-3.2567,-3.2921,-3.2921,-3.3284,-3.355,-3.3578,-3.3707,-3.3807,-3.3807,-3.3807,-3.3807,-3.3807,-3.3807,-3.3834,-3.3807,-3.3807,-3.3807,-3.3725,-3.3194,-3.2728,-3.2028,-3.1636,-3.1495,-3.1536,-3.1623,-3.1763,-3.1547,-3.2551,-3.3421,-3.375,-3.3466,-3.3183,-3.2999,-3.2999,-3.3018,-3.2302,-3.2357,-3.2706,-3.2228,-3.2761,-3.322,-2.4717,-2.532,-2.6063,-2.6639,-2.705,-2.7454,-2.7949,-2.8326,-2.8289,-2.8525,-2.8929,-2.8947,-2.8686,-2.8201,-2.7687,-2.7731,-2.818,-2.8359,-2.8373,-2.8398,-2.839,-2.8476,-2.8595,-2.8609,-2.8709,-2.8846,-2.8709,-2.8615,-2.8597,-2.8355,-2.8242,-2.824,-2.8362,-2.8407,-2.8425,-2.8407,-2.8314,-2.8076,-2.7701,-2.73,-2.6987,-2.6536,-2.6142,-2.5938,-2.6487,-2.6923,-2.7191,-2.802,-2.8898,-2.9829,-3.0372,-3.106,-3.1917,-3.1593,-3.1328,-3.1204,-3.0845,-3.0805,-3.1213,-3.1662,-3.217,-3.2751,-3.2872,-3.2872,-3.2872,-3.2872,-3.2996,-3.3219,-3.2583,-3.233,-3.2746,-3.2872,-3.2872,-3.2872,-3.3166,-3.3379,-3.3408,-3.3652,-3.3807,-3.3807,-3.3807,-3.3807,-3.3807,-3.3807,-3.3815,-3.381,-3.3873,-3.3943,-3.3975,-3.4043,-3.408,-3.4037,-3.4037,-3.3788,-3.3548,-3.2845,-3.2651,-3.2614,-3.2485,-3.2349,-3.2052,-3.323,-3.377,-3.3797,-3.3807,-3.3605,-3.3146,-3.3311,-3.3623,-3.3568,-3.3568,-3.3421,-3.2669,-3.3293,-3.3678,-2.7877,-2.9057,-2.9995,-2.9818,-2.9292,-2.9295,-2.9494,-2.987,-2.9519,-2.9556,-2.9918,-2.9864,-3.0298,-3.0827,-2.9644,-2.9055,-2.9128,-2.947,-2.9641,-2.9674,-2.9683,-2.9631,-2.9639,-2.9642,-2.968,-2.9848,-2.9717,-2.9642,-2.9609,-2.9265,-2.9043,-2.9101,-2.9484,-2.9724,-2.9719,-2.9724,-2.9978,-3.0214,-2.9042,-2.847,-2.8905,-2.8942,-2.8439,-2.774,-2.7942,-2.8605,-2.9311,-3.0527,-3.1217,-3.1285,-3.1923,-3.2398,-3.2413,-3.1824,-3.1288,-3.0889,-3.1164,-3.1831,-3.2709,-3.3027,-3.327,-3.3643,-3.3716,-3.3734,-3.3698,-3.3698,-3.3725,-3.377,-3.3678,-3.3643,-3.368,-3.3643,-3.3689,-3.3716,-3.3743,-3.3788,-3.3788,-3.385,-3.3807,-3.3842,-3.3895,-3.3921,-3.386,-3.3807,-3.385,-3.3876,-3.4003,-3.4246,-3.4411,-3.4555,-3.4572,-3.4572,-3.4513,-3.4199,-3.3031,-3.293,-3.2812,-3.2787,-3.2985,-3.2871,-3.3366,-3.3788,-3.3807,-3.3807,-3.3807,-3.3587,-3.3091,-3.3018,-3.3293,-3.3421,-3.3605,-3.3385,-3.3036,-3.3385,-3.3697,-2.9531,-3.056,-3.0568,-3.0989,-3.1699,-3.1229,-3.138,-3.1928,-3.127,-3.1385,-3.1845,-3.1419,-3.1661,-3.2444,-3.1967,-3.155,-3.1241,-3.0865,-3.0957,-3.1429,-3.1487,-3.1588,-3.1733,-3.1746,-3.1803,-3.1781,-3.1183,-3.0741,-3.0527,-3.0377,-3.0595,-3.0921,-3.0732,-3.0806,-3.1163,-3.0824,-3.0934,-3.1523,-3.0998,-3.0881,-3.1032,-3.1091,-3.1108,-3.1244,-3.0617,-3.0413,-3.0677,-3.1618,-3.2092,-3.2092,-3.2634,-3.2952,-3.2947,-3.2954,-3.2853,-3.2708,-3.2985,-3.3474,-3.3991,-3.4111,-3.4218,-3.4371,-3.4394,-3.4371,-3.4371,-3.4375,-3.4375,-3.4353,-3.4353,-3.4371,-3.4348,-3.4189,-3.4123,-3.433,-3.4353,-3.4353,-3.4375,-3.4375,-3.4394,-3.4394,-3.4394,-3.4375,-3.433,-3.4353,-3.4211,-3.3939,-3.4226,-3.4649,-3.4938,-3.4903,-3.4714,-3.4694,-3.4694,-3.4538,-3.4145,-3.378,-3.3617,-3.3568,-3.3573,-3.3482,-3.376,-3.385,-3.3895,-3.3947,-3.3895,-3.3839,-3.3442,-3.3427,-3.3548,-3.3568,-3.3733,-3.3642,-3.344,-3.3642,-3.3752,-3.0779,-3.1409,-3.1413,-3.203,-3.3013,-3.2545,-3.2661,-3.3115,-3.2576,-3.2663,-3.3003,-3.2567,-3.2801,-3.3467,-3.333,-3.3395,-3.3374,-3.2384,-3.2156,-3.2694,-3.2733,-3.282,-3.2916,-3.2699,-3.2641,-3.2527,-3.168,-3.1193,-3.1299,-3.1274,-3.1741,-3.2409,-3.2184,-3.2333,-3.2695,-3.2314,-3.2416,-3.2953,-3.2632,-3.237,-3.2561,-3.26,-3.2827,-3.322,-3.2785,-3.2474,-3.2492,-3.2944,-3.3187,-3.3245,-3.3524,-3.3697,-3.3723,-3.3943,-3.3988,-3.3864,-3.4149,-3.4547,-3.4873,-3.48,-3.4694,-3.4694,-3.4694,-3.4694,-3.4694,-3.4694,-3.4694,-3.4694,-3.4694,-3.4714,-3.4774,-3.4615,-3.4553,-3.4694,-3.4694,-3.4694,-3.4694,-3.4674,-3.4674,-3.4653,-3.4653,-3.4674,-3.4694,-3.4674,-3.4507,-3.413,-3.4528,-3.5022,-3.5324,-3.521,-3.4963,-3.4963,-3.4999,-3.4999,-3.4793,-3.4565,-3.4298,-3.4229,-3.4074,-3.4037,-3.3913,-3.3956,-3.4074,-3.408,-3.4055,-3.4012,-3.3986,-3.3935,-3.3876,-3.3842,-3.3807,-3.3733,-3.3697,-3.3752,-3.3807,-3.1665,-3.1987,-3.2801,-3.3095,-3.3296,-3.3202,-3.3214,-3.333,-3.3256,-3.3326,-3.3511,-3.3245,-3.3673,-3.4244,-3.3907,-3.4218,-3.5084,-3.4031,-3.3386,-3.3407,-3.3371,-3.3309,-3.327,-3.2629,-3.2169,-3.2007,-3.11,-3.1164,-3.191,-3.1975,-3.2391,-3.3244,-3.3821,-3.3987,-3.4276,-3.4057,-3.4338,-3.4506,-3.3557,-3.3037,-3.3356,-3.3488,-3.3544,-3.3658,-3.4165,-3.4482,-3.4578,-3.4574,-3.451,-3.4551,-3.4593,-3.4674,-3.4572,-3.4612,-3.4406,-3.4064,-3.4389,-3.4922,-3.532,-3.5019,-3.4793,-3.4793,-3.4734,-3.4793,-3.4832,-3.4793,-3.4774,-3.4793,-3.4812,-3.4851,-3.507,-3.5088,-3.4981,-3.4774,-3.4812,-3.4793,-3.4773,-3.4714,-3.4714,-3.4754,-3.4793,-3.4733,-3.4733,-3.4812,-3.4756,-3.4786,-3.4933,-3.5174,-3.5435,-3.5407,-3.5446,-3.5446,-3.535,-3.5304,-3.5304,-3.5254,-3.498,-3.4755,-3.4597,-3.447,-3.4255,-3.4214,-3.4514,-3.4592,-3.4476,-3.4413,-3.4237,-3.4189,-3.4018,-3.3961,-3.3902,-3.3834,-3.3807,-3.3807,-3.3807,-3.1507,-3.2096,-3.2393,-3.3234,-3.4168,-3.3906,-3.4071,-3.4576,-3.4293,-3.4417,-3.4747,-3.4342,-3.4554,-3.5319,-3.5635,-3.6079,-3.6528,-3.6015,-3.5509,-3.497,-3.4881,-3.4605,-3.4174,-3.3877,-3.3133,-3.2087,-3.167,-3.1942,-3.2654,-3.2812,-3.3485,-3.4622,-3.4559,-3.4738,-3.5175,-3.4745,-3.4743,-3.536,-3.5019,-3.4836,-3.4983,-3.4929,-3.491,-3.4986,-3.5216,-3.5334,-3.5372,-3.4945,-3.4713,-3.4733,-3.4694,-3.4694,-3.4694,-3.4694,-3.4656,-3.46,-3.4813,-3.5114,-3.5416,-3.5348,-3.5223,-3.5239,-3.5258,-3.5239,-3.5258,-3.5242,-3.5223,-3.5239,-3.5239,-3.5304,-3.5335,-3.5369,-3.5304,-3.5239,-3.5258,-3.5223,-3.5207,-3.5223,-3.5258,-3.5239,-3.5258,-3.5258,-3.5239,-3.5223,-3.52,-3.5209,-3.5296,-3.5417,-3.546,-3.5507,-3.5507,-3.5507,-3.5507,-3.5507,-3.5446,-3.5398,-3.5254,-3.5069,-3.4944,-3.487,-3.4642,-3.4566,-3.4869,-3.4983,-3.4887,-3.4732,-3.4569,-3.4423,-3.4288,-3.4093,-3.4012,-3.3928,-3.386,-3.3815,-3.3805,-3.139,-3.2619,-3.2656,-3.3634,-3.5095,-3.4827,-3.4999,-3.5493,-3.5518,-3.5613,-3.5703,-3.5691,-3.5895,-3.6443,-3.7064,-3.7166,-3.6935,-3.6906,-3.6422,-3.5729,-3.5706,-3.5434,-3.4988,-3.4677,-3.3866,-3.2686,-3.2428,-3.2878,-3.3692,-3.379,-3.4454,-3.5485,-3.5288,-3.524,-3.5696,-3.5272,-3.524,-3.5654,-3.5673,-3.5712,-3.5693,-3.5635,-3.5654,-3.5693,-3.5693,-3.5673,-3.5651,-3.5287,-3.5073,-3.5072,-3.5075,-3.5075,-3.5075,-3.5075,-3.5094,-3.5167,-3.5272,-3.5392,-3.5576,-3.559,-3.5584,-3.5584,-3.5584,-3.5584,-3.5584,-3.5584,-3.5584,-3.5545,-3.5532,-3.5526,-3.5493,-3.5507,-3.5507,-3.5507,-3.5474,-3.5507,-3.5507,-3.5507,-3.5474,-3.546,-3.546,-3.5507,-3.5507,-3.5507,-3.5507,-3.5507,-3.5507,-3.5507,-3.5507,-3.5507,-3.5507,-3.5507,-3.5507,-3.5507,-3.5507,-3.5474,-3.5474,-3.5369,-3.5223,-3.5174,-3.5045,-3.5026,-3.5198,-3.5272,-3.5198,-3.5054,-3.4889,-3.4755,-3.4597,-3.4401,-3.4269,-3.4184,-3.4136,-3.3869,-3.3825,-3.1413,-3.3271,-3.3479,-3.4405,-3.5752,-3.5828,-3.5901,-3.6071,-3.6666,-3.6594,-3.6304,-3.6825,-3.7223,-3.7411,-3.7647,-3.7479,-3.6791,-3.6784,-3.6363,-3.5772,-3.5611,-3.5502,-3.5268,-3.462,-3.3821,-3.3206,-3.3152,-3.3691,-3.4389,-3.4472,-3.5137,-3.584,-3.584,-3.5859,-3.5859,-3.5739,-3.5665,-3.5717,-3.5743,-3.5736,-3.5743,-3.5678,-3.5678,-3.5736,-3.5794,-3.5799,-3.5725,-3.5671,-3.567,-3.5701,-3.5611,-3.5611,-3.5669,-3.5707,-3.5611,-3.5572,-3.5649,-3.5695,-3.574,-3.5701,-3.5682,-3.5682,-3.5675,-3.5707,-3.5682,-3.5688,-3.5656,-3.5605,-3.5592,-3.5584,-3.5526,-3.5526,-3.5526,-3.5526,-3.5526,-3.5507,-3.5507,-3.5507,-3.5507,-3.5507,-3.5507,-3.5507,-3.5507,-3.5507,-3.5507,-3.5507,-3.5507,-3.5507,-3.5507,-3.5507,-3.5507,-3.5507,-3.5507,-3.5507,-3.5507,-3.5507,-3.5507,-3.546,-3.5369,-3.5354,-3.532,-3.5354,-3.5354,-3.5441,-3.5445,-3.5308,-3.5248,-3.5148,-3.5116,-3.5075,-3.4896,-3.4642,-3.451,-3.4447,-3.4197,-3.2102,-3.2781,-3.4302,-3.5184,-3.5676,-3.6226,-3.649,-3.6528,-3.6924,-3.7044,-3.6885,-3.7074,-3.7005,-3.6534,-3.7694,-3.7469,-3.6578,-3.6749,-3.6552,-3.5829,-3.5388,-3.4998,-3.4587,-3.3949,-3.3496,-3.3288,-3.3413,-3.3673,-3.4471,-3.4608,-3.5064,-3.5898,-3.5898,-3.5937,-3.5957,-3.5918,-3.5929,-3.5929,-3.5918,-3.5918,-3.5918,-3.5898,-3.5909,-3.5925,-3.5943,-3.595,-3.5924,-3.5917,-3.5826,-3.5713,-3.5704,-3.5704,-3.5724,-3.5724,-3.5724,-3.5704,-3.5704,-3.5704,-3.5724,-3.5724,-3.5724,-3.5704,-3.5715,-3.5704,-3.5704,-3.5704,-3.5704,-3.5669,-3.5651,-3.5617,-3.5545,-3.5597,-3.5636,-3.5622,-3.5553,-3.5501,-3.5507,-3.5507,-3.5507,-3.5507,-3.5507,-3.5507,-3.5507,-3.5507,-3.5507,-3.5507,-3.5507,-3.5507,-3.5507,-3.5507,-3.5507,-3.5507,-3.5507,-3.5507,-3.5507,-3.5507,-3.5507,-3.5507,-3.546,-3.5446,-3.5446,-3.5446,-3.546,-3.5493,-3.5484,-3.5383,-3.5569,-3.5624,-3.5675,-3.5625,-3.5932,-3.5871,-3.5654,-3.5487,-3.5108,-3.2915,-3.3458,-3.4636,-3.5339,-3.572,-3.6402,-3.6705,-3.6835,-3.7461,-3.7544,-3.7429,-3.7791,-3.7689,-3.7357,-3.8022,-3.7637,-3.6602,-3.6885,-3.6632,-3.5966,-3.5606,-3.5234,-3.4808,-3.4332,-3.4178,-3.4178,-3.4197,-3.4513,-3.4924,-3.4997,-3.5321,-3.5703,-3.5818,-3.5868,-3.5937,-3.5957,-3.5976,-3.5996,-3.6016,-3.6016,-3.6016,-3.6016,-3.6016,-3.6016,-3.6013,-3.6009,-3.6009,-3.6009,-3.5951,-3.5853,-3.5834,-3.5834,-3.5814,-3.5834,-3.5814,-3.5834,-3.5834,-3.5834,-3.5814,-3.5834,-3.5834,-3.5834,-3.582,-3.582,-3.5834,-3.5834,-3.5814,-3.5786,-3.5779,-3.5697,-3.5657,-3.5734,-3.5773,-3.5706,-3.5637,-3.5581,-3.5611,-3.5545,-3.5545,-3.5565,-3.5565,-3.5545,-3.5565,-3.5565,-3.5565,-3.5545,-3.5545,-3.5526,-3.5526,-3.5507,-3.5507,-3.5507,-3.5507,-3.5507,-3.5507,-3.5507,-3.5507,-3.5507,-3.5507,-3.5507,-3.5507,-3.5507,-3.5507,-3.5507,-3.5507,-3.557,-3.5777,-3.594,-3.5948,-3.6121,-3.6744,-3.7053,-3.6787,-3.686,-3.6404,-3.3743,-3.4708,-3.4815,-3.5296,-3.5971,-3.6495,-3.6821,-3.7081,-3.7995,-3.8187,-3.7937,-3.8637,-3.8561,-3.8792,-3.8122,-3.7713,-3.681,-3.6817,-3.6569,-3.6182,-3.5977,-3.5874,-3.5714,-3.5273,-3.5268,-3.5398,-3.5633,-3.5559,-3.5572,-3.5624,-3.5694,-3.5724,-3.5687,-3.5761,-3.584,-3.5879,-3.5918,-3.5976,-3.5996,-3.5996,-3.5996,-3.6016,-3.6016,-3.6016,-3.6016,-3.6016,-3.6016,-3.6016,-3.5996,-3.6016,-3.6016,-3.5996,-3.5996,-3.5996,-3.5996,-3.5996,-3.5976,-3.5976,-3.5996,-3.5976,-3.5996,-3.5976,-3.5976,-3.6016,-3.5976,-3.5976,-3.5937,-3.5898,-3.5976,-3.6156,-3.6242,-3.6144,-3.6021,-3.602,-3.5962,-3.5881,-3.5821,-3.5734,-3.5663,-3.579,-3.5746,-3.5637,-3.5676,-3.5695,-3.5669,-3.5612,-3.5611,-3.5603,-3.5584,-3.5545,-3.5545,-3.5545,-3.5526,-3.5507,-3.5507,-3.5507,-3.5507,-3.5507,-3.5507,-3.5507,-3.5507,-3.5507,-3.5507,-3.5507,-3.5507,-3.5661,-3.5897,-3.6037,-3.6267,-3.704,-3.7945,-3.797,-3.7842,-3.8229,-3.8098,-3.4337,-3.4634,-3.563,-3.6115,-3.6367,-3.6849,-3.7274,-3.7612,-3.7931,-3.8187,-3.8414,-3.8688,-3.8085,-3.7034,-3.7396,-3.6888,-3.5869,-3.6284,-3.6448,-3.6578,-3.6541,-3.6627,-3.6438,-3.5797,-3.5613,-3.6028,-3.6362,-3.6147,-3.5839,-3.6166,-3.6199,-3.5765,-3.5868,-3.5697,-3.5834,-3.5989,-3.5825,-3.5918,-3.5957,-3.5976,-3.5957,-3.5976,-3.5976,-3.5996,-3.5996,-3.5996,-3.6016,-3.6016,-3.6016,-3.6016,-3.5996,-3.5976,-3.5996,-3.5996,-3.5996,-3.5976,-3.5996,-3.5996,-3.5996,-3.5976,-3.6016,-3.5996,-3.5996,-3.6016,-3.6016,-3.6016,-3.5996,-3.6113,-3.658,-3.7109,-3.7578,-3.668,-3.6554,-3.681,-3.6917,-3.6956,-3.6853,-3.6246,-3.6077,-3.6377,-3.6093,-3.5693,-3.5713,-3.5713,-3.5713,-3.5696,-3.5716,-3.5695,-3.5726,-3.5772,-3.5971,-3.6157,-3.5834,-3.5853,-3.5776,-3.568,-3.5507,-3.5507,-3.5507,-3.5507,-3.5507,-3.5507,-3.5507,-3.5507,-3.5507,-3.5738,-3.6065,-3.6834,-3.7204,-3.818,-3.8988,-3.9077,-3.9202,-3.9569,-3.9553,-3.503,-3.5108,-3.5744,-3.6017,-3.6134,-3.6602,-3.6974,-3.7266,-3.7715,-3.8045,-3.825,-3.8211,-3.7624,-3.6817,-3.6505,-3.5954,-3.5954,-3.647,-3.6942,-3.7064,-3.7088,-3.7146,-3.7073,-3.6445,-3.617,-3.6651,-3.6806,-3.6659,-3.6631,-3.6823,-3.698,-3.6743,-3.668,-3.6862,-3.681,-3.6775,-3.6687,-3.6489,-3.6415,-3.6261,-3.5926,-3.5848,-3.5848,-3.5868,-3.5848,-3.5851,-3.5859,-3.5859,-3.5859,-3.5848,-3.5848,-3.5884,-3.595,-3.5937,-3.5928,-3.5861,-3.5848,-3.5848,-3.5859,-3.5851,-3.5879,-3.5937,-3.5957,-3.5976,-3.5996,-3.6016,-3.6016,-3.6191,-3.6777,-3.7637,-3.8437,-3.8281,-3.7851,-3.7773,-3.791,-3.8066,-3.8184,-3.7285,-3.6551,-3.6856,-3.6327,-3.5969,-3.5819,-3.582,-3.5801,-3.5801,-3.6465,-3.6489,-3.6668,-3.6736,-3.7061,-3.7083,-3.6523,-3.6252,-3.6136,-3.5925,-3.5526,-3.5507,-3.5507,-3.5507,-3.5507,-3.5507,-3.5507,-3.5507,-3.5565,-3.5968,-3.6392,-3.7219,-3.8046,-3.8738,-3.9373,-3.9969,-4.0258,-4.0095,-4.0057,-3.5639,-3.5639,-3.5639,-3.5639,-3.5673,-3.6095,-3.6362,-3.6586,-3.7292,-3.7518,-3.7605,-3.7462,-3.7189,-3.6638,-3.5937,-3.5831,-3.6505,-3.7279,-3.7713,-3.7709,-3.7723,-3.7734,-3.7616,-3.7312,-3.7131,-3.7338,-3.7348,-3.7375,-3.7408,-3.7634,-3.7723,-3.7905,-3.793,-3.7757,-3.7964,-3.8022,-3.7687,-3.7223,-3.7162,-3.6795,-3.6165,-3.6009,-3.597,-3.5718,-3.5718,-3.5737,-3.5737,-3.5737,-3.5718,-3.5698,-3.5698,-3.5747,-3.5823,-3.5861,-3.5823,-3.571,-3.5718,-3.5737,-3.5737,-3.5725,-3.5762,-3.5864,-3.5879,-3.5898,-3.5918,-3.6152,-3.6269,-3.6601,-3.7187,-3.8223,-3.8887,-3.8945,-3.9004,-3.8906,-3.8809,-3.916,-3.9414,-3.8476,-3.7891,-3.7377,-3.6655,-3.5982,-3.5957,-3.5957,-3.5937,-3.6074,-3.6777,-3.7285,-3.7441,-3.7598,-3.7816,-3.754,-3.6897,-3.6614,-3.651,-3.6848,-3.6372,-3.5853,-3.5776,-3.5776,-3.5776,-3.5892,-3.593,-3.5641,-3.5718,-3.6238,-3.6853,-3.7623,-3.8411,-3.9123,-3.9662,-4.0142,-4.0354,-4.0469,-4.0431,-3.5639,-3.5639,-3.5639,-3.5639,-3.5639,-3.569,-3.6027,-3.6377,-3.6582,-3.6509,-3.6434,-3.6934,-3.6022,-3.5144,-3.6038,-3.6653,-3.7138,-3.7881,-3.837,-3.8395,-3.8401,-3.8414,-3.8462,-3.8228,-3.828,-3.8349,-3.8171,-3.7879,-3.7842,-3.8175,-3.8421,-3.8131,-3.8131,-3.8166,-3.8296,-3.8046,-3.82,-3.7969,-3.7906,-3.7532,-3.6933,-3.6721,-3.6335,-3.5859,-3.5763,-3.5763,-3.57,-3.5707,-3.5714,-3.5701,-3.5714,-3.5676,-3.5674,-3.5699,-3.5714,-3.5688,-3.5685,-3.5678,-3.5666,-3.5681,-3.57,-3.5734,-3.5815,-3.5819,-3.5955,-3.6468,-3.6922,-3.7402,-3.8262,-3.9434,-4.0605,-4.0059,-3.9629,-3.959,-3.9687,-3.9766,-3.9844,-3.9492,-3.8867,-3.8223,-3.707,-3.5996,-3.6035,-3.6152,-3.6289,-3.6621,-3.7324,-3.7734,-3.791,-3.8086,-3.8303,-3.7779,-3.7082,-3.6927,-3.6832,-3.742,-3.7483,-3.6661,-3.6449,-3.6469,-3.6469,-3.6507,-3.643,-3.6295,-3.643,-3.693,-3.7546,-3.818,-3.8931,-3.9792,-4.0065,-4.0296,-4.0392,-4.0489,-4.0489,-3.5081,-3.5098,-3.5453,-3.5639,-3.5639,-3.5639,-3.5739,-3.5968,-3.5873,-3.5766,-3.5609,-3.5453,-3.5066,-3.4534,-3.4655,-3.5792,-3.7057,-3.7906,-3.8389,-3.8634,-3.8707,-3.8982,-3.9129,-3.8927,-3.9019,-3.9038,-3.8813,-3.8476,-3.8391,-3.8732,-3.9178,-3.9595,-3.9323,-3.9358,-3.9707,-3.9604,-3.9104,-3.8854,-3.8681,-3.833,-3.7599,-3.7502,-3.6887,-3.6026,-3.5988,-3.5988,-3.5622,-3.5584,-3.5603,-3.5584,-3.5584,-3.5584,-3.5584,-3.5584,-3.5603,-3.5603,-3.5603,-3.5603,-3.5603,-3.5603,-3.5597,-3.5707,-3.6018,-3.6314,-3.6577,-3.7181,-3.7895,-3.8594,-3.8984,-4.0078,-4.0996,-4.0586,-4.0488,-4.0527,-4.0547,-4.0527,-4.0469,-4.0156,-3.9512,-3.875,-3.7676,-3.6719,-3.6094,-3.6289,-3.6601,-3.7168,-3.7871,-3.8223,-3.8437,-3.8887,-3.9219,-3.8691,-3.8086,-3.7521,-3.7541,-3.8056,-3.8299,-3.7591,-3.7219,-3.7238,-3.718,-3.7219,-3.7238,-3.7161,-3.743,-3.7853,-3.8277,-3.8911,-3.9662,-4.0273,-4.0335,-4.0412,-4.045,-4.0489,-4.0489,-3.4479,-3.4624,-3.5161,-3.547,-3.5577,-3.5639,-3.5622,-3.5548,-3.5301,-3.5153,-3.5036,-3.4359,-3.423,-3.4337,-3.4428,-3.5084,-3.6784,-3.754,-3.8003,-3.8405,-3.8499,-3.8896,-3.9258,-3.9221,-3.9056,-3.9583,-3.9026,-3.8836,-3.898,-3.9296,-4.0094,-4.0485,-4.0437,-4.0711,-4.12,-4.0553,-4.0108,-3.9777,-3.9527,-3.9104,-3.8469,-3.8027,-3.743,-3.618,-3.6622,-3.6603,-3.5968,-3.5853,-3.5699,-3.5584,-3.5507,-3.5507,-3.5507,-3.5507,-3.5507,-3.5507,-3.5507,-3.5507,-3.5507,-3.5526,-3.5641,-3.593,-3.6474,-3.6858,-3.7376,-3.8028,-3.8957,-3.9836,-4.0156,-4.0391,-4.1074,-4.1172,-4.1152,-4.1133,-4.1133,-4.1133,-4.0937,-4.0527,-3.9746,-3.8945,-3.8125,-3.748,-3.6875,-3.707,-3.7519,-3.7851,-3.8555,-3.9043,-3.9355,-4.0176,-4.041,-3.9922,-3.9277,-3.8418,-3.8332,-3.8731,-3.8782,-3.833,-3.8176,-3.8234,-3.808,-3.795,-3.8046,-3.8296,-3.8584,-3.8988,-3.9315,-3.9508,-4.0008,-4.0373,-4.045,-4.0489,-4.0489,-4.0489,-4.0489,-3.4087,-3.4576,-3.4671,-3.5052,-3.5515,-3.556,-3.556,-3.547,-3.4831,-3.4602,-3.4423,-3.4363,-3.3919,-3.3898,-3.4696,-3.5787,-3.6808,-3.7212,-3.7588,-3.8059,-3.8104,-3.8456,-3.8872,-3.8799,-3.9166,-3.9643,-3.9074,-3.8921,-3.9148,-3.9703,-4.0333,-4.0812,-4.1123,-4.1263,-4.1417,-4.0933,-4.0469,-4.0354,-4.0315,-3.9912,-3.9123,-3.845,-3.8007,-3.77,-3.77,-3.745,-3.6699,-3.6469,-3.6219,-3.5661,-3.5565,-3.5526,-3.5507,-3.5507,-3.5507,-3.5507,-3.5507,-3.5507,-3.5507,-3.5622,-3.5878,-3.6353,-3.6815,-3.718,-3.8031,-3.8807,-3.9713,-4.0575,-4.0759,-4.0859,-4.1094,-4.1191,-4.1191,-4.1191,-4.1191,-4.1191,-4.1113,-4.0996,-4.0176,-3.9668,-3.9004,-3.832,-3.7676,-3.8086,-3.8496,-3.8828,-3.918,-3.9648,-4.0137,-4.084,-4.0801,-4.0117,-4.0059,-3.9316,-3.9043,-3.9473,-3.9355,-3.9004,-3.9141,-3.918,-3.8907,-3.883,-3.9392,-3.9642,-3.9815,-3.9719,-3.9662,-3.9873,-4.0277,-4.0431,-4.0489,-4.0489,-4.0489,-4.0489,-4.0527,-3.281,-3.3495,-3.3887,-3.4186,-3.4528,-3.4877,-3.4767,-3.4375,-3.403,-3.3643,-3.3228,-3.2763,-3.2848,-3.3558,-3.4448,-3.5508,-3.6509,-3.6749,-3.7201,-3.7749,-3.7936,-3.8425,-3.9111,-3.8982,-3.9129,-3.9515,-3.9166,-3.8744,-3.9111,-3.9712,-4.0417,-4.1176,-4.1409,-4.1561,-4.1598,-4.1188,-4.071,-4.0419,-4.0332,-4.0065,-3.9508,-3.9277,-3.895,-3.8104,-3.8507,-3.82,-3.7584,-3.6873,-3.6603,-3.6199,-3.6199,-3.5916,-3.5776,-3.5853,-3.6031,-3.5507,-3.5507,-3.5507,-3.5545,-3.593,-3.6334,-3.6911,-3.7565,-3.8642,-3.9364,-3.9816,-4.0204,-4.0725,-4.0925,-4.1035,-4.1094,-4.1152,-4.1191,-4.1191,-4.1191,-4.1191,-4.1191,-4.1133,-4.0781,-4.0351,-3.9883,-3.9258,-3.8789,-3.9043,-3.9336,-3.9492,-3.9746,-4.0078,-4.0488,-4.0976,-4.0605,-3.9805,-4.0,-4.0117,-4.0,-4.0137,-3.998,-3.9805,-4.0098,-4.0039,-3.9668,-3.9749,-4.0164,-4.0327,-4.0258,-4.0142,-3.9988,-4.0104,-4.0412,-4.0469,-4.0489,-4.0604,-4.07,-4.0623,-4.0662,-3.1796,-3.2382,-3.3077,-3.3443,-3.3684,-3.4345,-3.4303,-3.3813,-3.3566,-3.3303,-3.3034,-3.2747,-3.3034,-3.3643,-3.4515,-3.542,-3.6182,-3.6195,-3.6724,-3.7271,-3.7787,-3.83,-3.8771,-3.8802,-3.9111,-3.9845,-3.9074,-3.8927,-3.9239,-3.968,-4.0437,-4.1421,-4.1482,-4.1679,-4.1738,-4.1348,-4.0743,-4.0215,-4.0372,-4.0181,-3.9835,-4.0158,-3.9662,-3.9238,-3.9123,-3.92,-3.8373,-3.7834,-3.743,-3.6661,-3.6949,-3.6622,-3.5834,-3.6122,-3.6161,-3.5699,-3.5507,-3.5647,-3.593,-3.6334,-3.6757,-3.743,-3.8238,-3.933,-3.9927,-4.0369,-4.0581,-4.0703,-4.0849,-4.0933,-4.1016,-4.1094,-4.1152,-4.1172,-4.1191,-4.1191,-4.1191,-4.1152,-4.0918,-4.0371,-4.0117,-4.0312,-4.0,-4.0098,-4.0195,-4.0234,-4.0391,-4.0527,-4.0723,-4.0976,-4.0527,-3.9785,-3.9941,-4.0234,-4.0293,-4.0312,-4.0293,-4.0469,-4.0762,-4.0781,-4.0332,-4.0254,-4.0507,-4.0621,-4.0588,-4.045,-4.0239,-4.0373,-4.0508,-4.0585,-4.0681,-4.0873,-4.095,-4.0931,-4.1235,-3.1524,-3.164,-3.2351,-3.2955,-3.3563,-3.4323,-3.4495,-3.418,-3.3618,-3.4006,-3.4742,-3.5098,-3.4455,-3.4624,-3.4928,-3.543,-3.5694,-3.5639,-3.6114,-3.6636,-3.7057,-3.7582,-3.8114,-3.8551,-3.8957,-3.9502,-3.9025,-3.9116,-3.9557,-3.9533,-4.0308,-4.1056,-4.1336,-4.1545,-4.1371,-4.086,-4.0536,-4.0176,-4.0339,-4.0473,-4.0315,-4.0431,-4.0315,-4.0296,-4.0239,-4.0046,-3.9258,-3.8931,-3.8219,-3.7007,-3.7546,-3.7123,-3.618,-3.668,-3.668,-3.5949,-3.5718,-3.5897,-3.6205,-3.6661,-3.7161,-3.7892,-3.8777,-3.9469,-3.9623,-3.9508,-3.9831,-4.0581,-4.0732,-4.082,-4.0918,-4.1035,-4.1094,-4.1133,-4.1172,-4.1191,-4.1191,-4.1191,-4.0918,-4.0351,-4.0293,-4.0586,-4.0664,-4.0625,-4.0684,-4.0703,-4.0351,-4.0469,-4.0391,-4.0547,-4.0351,-4.0,-3.998,-4.0098,-4.0156,-4.0293,-4.0703,-4.082,-4.0957,-4.1016,-4.0879,-4.0918,-4.0801,-4.075,-4.0707,-4.0612,-4.0527,-4.0546,-4.0585,-4.0719,-4.0912,-4.1277,-4.1835,-4.2181,-4.2601,-3.0687,-3.0398,-3.0643,-3.1357,-3.2312,-3.2607,-3.2961,-3.3242,-3.3018,-3.3347,-3.4286,-3.4252,-3.4353,-3.4556,-3.4742,-3.5216,-3.5571,-3.5622,-3.5941,-3.6276,-3.6671,-3.7023,-3.7466,-3.7948,-3.838,-3.8664,-3.8643,-3.8781,-3.9074,-3.9258,-3.968,-4.0276,-4.0898,-4.0824,-4.0581,-4.0178,-3.9972,-4.0134,-4.0233,-4.0321,-4.0489,-4.0489,-4.0489,-4.0489,-4.0489,-4.0373,-4.0004,-3.9508,-3.8623,-3.8065,-3.8411,-3.7623,-3.6796,-3.7546,-3.7392,-3.6469,-3.6276,-3.6262,-3.6378,-3.6974,-3.7892,-3.8738,-3.9488,-3.9815,-3.9411,-3.9681,-4.0085,-4.0523,-4.0658,-4.0738,-4.0781,-4.0937,-4.1055,-4.1094,-4.1133,-4.1191,-4.1191,-4.1191,-4.1133,-4.0684,-4.0762,-4.0976,-4.0996,-4.0996,-4.1074,-4.1113,-4.0723,-4.0371,-4.0254,-4.0391,-4.0351,-4.041,-4.0449,-4.0508,-4.0566,-4.0879,-4.1191,-4.1172,-4.1152,-4.1113,-4.1094,-4.1016,-4.0918,-4.0879,-4.0939,-4.0982,-4.0935,-4.0696,-4.07,-4.0873,-4.1335,-4.1893,-4.2527,-4.3316,-4.3643,-2.9983,-2.9609,-2.9594,-3.0103,-3.0956,-3.1405,-3.1809,-3.2241,-3.2681,-3.2984,-3.344,-3.3812,-3.4167,-3.4506,-3.481,-3.5098,-3.5537,-3.5622,-3.5827,-3.6104,-3.6345,-3.6619,-3.7005,-3.7451,-3.7826,-3.7946,-3.8216,-3.8501,-3.8781,-3.8726,-3.9056,-3.9588,-4.0065,-3.9987,-4.0007,-3.9435,-3.9408,-3.9819,-4.0081,-4.0251,-4.0457,-4.0489,-4.0489,-4.0489,-4.0489,-4.0469,-4.0315,-3.995,-3.9335,-3.8969,-3.8911,-3.8623,-3.8238,-3.8084,-3.8296,-3.7642,-3.7012,-3.682,-3.6954,-3.7454,-3.8565,-3.9161,-3.9604,-3.9662,-3.9642,-3.9854,-4.0008,-4.0469,-4.06,-4.0658,-4.0693,-4.0859,-4.0976,-4.1016,-4.1152,-4.1191,-4.1191,-4.1191,-4.1191,-4.1074,-4.1172,-4.1152,-4.1152,-4.1113,-4.1133,-4.1191,-4.1035,-4.0469,-3.9883,-4.0176,-4.0742,-4.084,-4.0996,-4.1074,-4.1172,-4.1191,-4.1191,-4.1191,-4.1172,-4.1191,-4.1152,-4.1133,-4.1328,-4.1562,-4.1595,-4.1519,-4.1629,-4.1808,-4.1439,-4.1046,-4.1835,-4.2874,-4.372,-4.4451,-4.4374,-2.9549,-2.9594,-2.9535,-2.9549,-2.9759,-3.1016,-3.1571,-3.1972,-3.2996,-3.3523,-3.3786,-3.4827,-3.5047,-3.4844,-3.5199,-3.5487,-3.5571,-3.5639,-3.5667,-3.5813,-3.6089,-3.6345,-3.6579,-3.6904,-3.7305,-3.779,-3.8013,-3.8267,-3.8627,-3.8676,-3.8799,-3.8817,-3.9148,-3.9294,-3.9766,-3.9369,-3.9301,-3.9599,-3.9901,-4.0176,-4.0389,-4.0473,-4.0489,-4.0489,-4.0489,-4.0489,-4.0412,-4.0373,-3.9796,-3.9315,-3.9662,-3.9258,-3.8392,-3.8796,-3.8796,-3.8123,-3.7988,-3.818,-3.8623,-3.8742,-3.9046,-3.9296,-3.9642,-3.9585,-3.9392,-3.9488,-3.9835,-4.0431,-4.0527,-4.06,-4.0673,-4.0766,-4.0874,-4.0976,-4.1094,-4.1191,-4.1191,-4.1191,-4.1191,-4.1191,-4.1191,-4.1191,-4.1191,-4.1191,-4.1191,-4.1191,-4.1191,-4.0723,-3.998,-3.9941,-4.0586,-4.1035,-4.1191,-4.1191,-4.1191,-4.1191,-4.1191,-4.1191,-4.1191,-4.1191,-4.1348,-4.1465,-4.1738,-4.2187,-4.2264,-4.2198,-4.2633,-4.3115,-4.268,-4.2409,-4.3162,-4.4105,-4.497,-4.5355,-4.5124,-2.8667,-2.8299,-2.8299,-2.8248,-2.8397,-2.9238,-3.0558,-3.2282,-3.3583,-3.4451,-3.4874,-3.5504,-3.5537,-3.5402,-3.5419,-3.5639,-3.5639,-3.5639,-3.5639,-3.5656,-3.5853,-3.5813,-3.6028,-3.6399,-3.6786,-3.7058,-3.7415,-3.7893,-3.8132,-3.8433,-3.8658,-3.8707,-3.8726,-3.8836,-3.9013,-3.8888,-3.898,-3.9282,-3.9599,-3.9903,-4.0194,-4.0389,-4.0489,-4.0489,-4.0469,-4.0431,-4.0469,-4.0469,-4.0008,-3.9431,-3.9777,-3.9469,-3.8892,-3.9296,-3.9181,-3.8892,-3.8854,-3.8931,-3.9296,-3.9469,-3.9662,-3.9642,-3.9719,-3.9773,-3.9431,-3.9854,-4.02,-4.0392,-4.0489,-4.0527,-4.0562,-4.0693,-4.0776,-4.0851,-4.0957,-4.1113,-4.1152,-4.1191,-4.1191,-4.1191,-4.1191,-4.1191,-4.1191,-4.1191,-4.1191,-4.1055,-4.0996,-4.1094,-4.0566,-4.0117,-4.0332,-4.0898,-4.1191,-4.1191,-4.1191,-4.1191,-4.1191,-4.1191,-4.1191,-4.1191,-4.1387,-4.1699,-4.2422,-4.2988,-4.293,-4.2908,-4.3471,-4.3931,-4.391,-4.4025,-4.4391,-4.4701,-4.524,-4.5509,-4.547,-2.7979,-2.759,-2.756,-2.776,-2.8038,-2.8687,-3.0368,-3.2532,-3.3764,-3.464,-3.5144,-3.5453,-3.5622,-3.5622,-3.5639,-3.5639,-3.5639,-3.5639,-3.5639,-3.5639,-3.5639,-3.5639,-3.58,-3.5941,-3.6308,-3.6539,-3.6981,-3.7452,-3.7946,-3.8271,-3.8501,-3.8645,-3.8707,-3.8744,-3.8744,-3.8768,-3.8873,-3.9117,-3.9389,-3.9668,-4.0003,-4.025,-4.0408,-4.0377,-4.0296,-4.0142,-4.0296,-4.0181,-3.9869,-3.945,-3.945,-3.9508,-3.945,-3.9546,-3.9642,-3.9719,-3.9719,-3.9719,-3.9912,-4.0081,-4.0104,-3.9892,-4.0277,-4.0215,-3.9854,-4.0181,-4.0354,-4.0469,-4.0489,-4.0489,-4.0508,-4.0639,-4.0712,-4.079,-4.0898,-4.1035,-4.1113,-4.1133,-4.1191,-4.1191,-4.1191,-4.1191,-4.1191,-4.1191,-4.1191,-4.0996,-4.0781,-4.0918,-4.1074,-4.0684,-4.0351,-4.084,-4.1191,-4.1191,-4.1191,-4.1191,-4.1191,-4.1191,-4.125,-4.1308,-4.1621,-4.1992,-4.291,-4.3828,-4.4101,-4.4336,-4.4492,-4.4696,-4.4742,-4.4781,-4.491,-4.5238,-4.5547,-4.5586,-4.5586,-2.7575,-2.756,-2.756,-2.7934,-2.8577,-2.9146,-3.0599,-3.2479,-3.3187,-3.3906,-3.4574,-3.5249,-3.5515,-3.5577,-3.5639,-3.5639,-3.5639,-3.5639,-3.5639,-3.5639,-3.5639,-3.5639,-3.5639,-3.5711,-3.5941,-3.6224,-3.662,-3.7135,-3.7808,-3.8171,-3.8423,-3.8614,-3.8707,-3.8707,-3.8707,-3.8719,-3.8815,-3.8971,-3.9152,-3.9457,-3.9778,-4.0003,-4.0194,-4.0147,-3.9868,-3.9823,-3.9838,-3.9642,-3.9315,-3.9315,-3.9758,-3.9681,-3.9777,-4.0062,-4.0296,-4.0469,-4.0412,-4.0373,-4.0373,-4.0485,-4.045,-4.0277,-4.0412,-4.0485,-4.0466,-4.0412,-4.0469,-4.0489,-4.0489,-4.0489,-4.0508,-4.06,-4.0693,-4.0787,-4.0883,-4.0957,-4.1016,-4.1074,-4.1172,-4.1191,-4.1191,-4.1191,-4.1191,-4.1191,-4.1191,-4.1113,-4.0996,-4.1035,-4.1152,-4.1152,-4.0898,-4.0937,-4.1191,-4.1191,-4.1211,-4.1269,-4.1465,-4.1562,-4.1504,-4.1562,-4.1894,-4.2402,-4.3457,-4.4433,-4.5391,-4.5723,-4.5488,-4.5488,-4.5626,-4.5626,-4.5445,-4.5411,-4.5624,-4.5586,-4.5586,-2.756,-2.756,-2.756,-2.7679,-2.7964,-2.8599,-2.9505,-3.0558,-3.1657,-3.2796,-3.3928,-3.4568,-3.5078,-3.556,-3.5639,-3.5605,-3.5605,-3.5639,-3.5639,-3.5639,-3.5639,-3.5639,-3.5639,-3.5622,-3.5739,-3.5941,-3.6266,-3.6724,-3.7451,-3.7967,-3.8455,-3.8676,-3.8707,-3.8707,-3.8707,-3.8707,-3.8762,-3.8826,-3.8999,-3.9231,-3.9457,-3.9645,-3.9903,-3.9891,-3.9313,-3.9308,-3.9384,-3.8892,-3.8527,-3.8565,-3.8642,-3.87,-3.9431,-3.9546,-3.9758,-4.0431,-4.0489,-4.0489,-4.0489,-4.0489,-4.0489,-4.0489,-4.0489,-4.0489,-4.0489,-4.0489,-4.0489,-4.0489,-4.0489,-4.0489,-4.0489,-4.0546,-4.0639,-4.0694,-4.0801,-4.0898,-4.0957,-4.1094,-4.1172,-4.1191,-4.1191,-4.1191,-4.1191,-4.1191,-4.1191,-4.1191,-4.1191,-4.1191,-4.1191,-4.1191,-4.1387,-4.1406,-4.1445,-4.1523,-4.1406,-4.1426,-4.1699,-4.1894,-4.1973,-4.1953,-4.2012,-4.2695,-4.3945,-4.498,-4.5801,-4.6133,-4.6133,-4.6113,-4.5957,-4.5949,-4.5791,-4.5717,-4.5661,-4.5624,-4.5586,-2.6995,-2.7156,-2.7186,-2.732,-2.7634,-2.8053,-2.8472,-2.9087,-3.0785,-3.1981,-3.2531,-3.3988,-3.4532,-3.437,-3.4813,-3.5131,-3.5148,-3.5127,-3.5217,-3.5639,-3.5537,-3.5639,-3.5639,-3.5605,-3.5622,-3.5739,-3.5968,-3.644,-3.7248,-3.8135,-3.8707,-3.8707,-3.8707,-3.8707,-3.8707,-3.8707,-3.8707,-3.8762,-3.8855,-3.8971,-3.9144,-3.9308,-3.9576,-3.9575,-3.8878,-3.8686,-3.8901,-3.8239,-3.8027,-3.8219,-3.8354,-3.8988,-3.9546,-3.9585,-3.9873,-4.0469,-4.0489,-4.0489,-4.0489,-4.0489,-4.0489,-4.0489,-4.0489,-4.0489,-4.0489,-4.0489,-4.0489,-4.0489,-4.0489,-4.0489,-4.0489,-4.0508,-4.0546,-4.0596,-4.072,-4.0812,-4.0957,-4.1113,-4.1172,-4.1191,-4.1191,-4.1191,-4.1191,-4.1191,-4.1191,-4.1191,-4.1191,-4.1191,-4.1191,-4.1191,-4.1562,-4.1836,-4.1875,-4.1933,-4.1855,-4.1992,-4.2422,-4.2773,-4.2871,-4.2793,-4.25,-4.3164,-4.459,-4.5469,-4.6152,-4.6289,-4.6269,-4.6191,-4.6069,-4.6056,-4.6013,-4.5847,-4.5722,-4.5661,-4.5624,-2.6004,-2.6617,-2.6647,-2.7081,-2.753,-2.7604,-2.7634,-2.785,-3.0205,-3.1082,-3.1115,-3.3113,-3.3496,-3.3193,-3.3784,-3.4283,-3.4368,-3.4442,-3.4639,-3.5391,-3.5098,-3.5148,-3.5357,-3.5476,-3.547,-3.5554,-3.5827,-3.6232,-3.7193,-3.7998,-3.8528,-3.8658,-3.8707,-3.8707,-3.8707,-3.8707,-3.8707,-3.8719,-3.8762,-3.8844,-3.8971,-3.9099,-3.9137,-3.9119,-3.8393,-3.7738,-3.8173,-3.812,-3.7839,-3.8373,-3.8988,-3.9527,-3.9892,-3.9988,-4.0369,-4.0485,-4.0489,-4.0489,-4.0489,-4.0489,-4.0489,-4.0489,-4.0489,-4.0489,-4.0489,-4.0489,-4.0489,-4.0489,-4.0489,-4.0489,-4.0489,-4.0489,-4.0527,-4.0566,-4.0675,-4.0781,-4.0887,-4.1035,-4.1172,-4.1191,-4.1191,-4.1191,-4.1191,-4.1191,-4.1191,-4.1191,-4.1191,-4.1191,-4.1328,-4.1348,-4.1777,-4.2246,-4.2207,-4.2383,-4.293,-4.3105,-4.3437,-4.3691,-4.3789,-4.4043,-4.4043,-4.459,-4.5312,-4.5859,-4.6289,-4.6289,-4.6269,-4.6211,-4.6152,-4.6136,-4.6064,-4.5941,-4.5838,-4.5745,-4.5642,-2.5989,-2.6632,-2.7126,-2.749,-2.756,-2.756,-2.756,-2.767,-2.8788,-2.9521,-3.0005,-3.1045,-3.1967,-3.2434,-3.2729,-3.3222,-3.3609,-3.3667,-3.3762,-3.4001,-3.4081,-3.4472,-3.4678,-3.4766,-3.5064,-3.5487,-3.5783,-3.6182,-3.7108,-3.7792,-3.8296,-3.8621,-3.8615,-3.856,-3.8579,-3.8579,-3.8579,-3.8542,-3.8414,-3.8444,-3.8575,-3.8641,-3.8682,-3.8231,-3.7464,-3.6925,-3.6937,-3.636,-3.6523,-3.704,-3.7988,-3.9008,-4.0142,-4.0389,-4.0469,-4.0489,-4.0489,-4.0489,-4.0489,-4.0489,-4.0489,-4.0489,-4.0489,-4.0489,-4.0489,-4.0489,-4.0489,-4.0489,-4.0489,-4.0489,-4.0489,-4.0489,-4.0508,-4.0566,-4.0654,-4.073,-4.0843,-4.1094,-4.1289,-4.125,-4.125,-4.123,-4.125,-4.125,-4.1211,-4.1191,-4.1191,-4.1289,-4.1601,-4.1758,-4.2226,-4.2598,-4.248,-4.2734,-4.3555,-4.4121,-4.4414,-4.459,-4.4687,-4.5058,-4.5449,-4.5644,-4.584,-4.6035,-4.6289,-4.6289,-4.6289,-4.6289,-4.625,-4.6211,-4.617,-4.606,-4.597,-4.5881,-4.5748,-2.5038,-2.6228,-2.7171,-2.756,-2.756,-2.756,-2.756,-2.7655,-2.8017,-2.8369,-2.8943,-2.9968,-3.0845,-3.1414,-3.1703,-3.234,-3.2832,-3.2883,-3.3229,-3.3347,-3.3339,-3.3677,-3.3897,-3.3998,-3.4489,-3.4962,-3.5778,-3.6402,-3.7061,-3.7256,-3.762,-3.8071,-3.8168,-3.8212,-3.8193,-3.8175,-3.8193,-3.812,-3.7918,-3.7753,-3.7881,-3.8113,-3.8265,-3.7711,-3.708,-3.6503,-3.6088,-3.5704,-3.6337,-3.7309,-3.8543,-3.9431,-4.0296,-4.0469,-4.0489,-4.0489,-4.0489,-4.0489,-4.0489,-4.0489,-4.0489,-4.0489,-4.0489,-4.0489,-4.0489,-4.0489,-4.0489,-4.0489,-4.0489,-4.0489,-4.0489,-4.0489,-4.0489,-4.0527,-4.0733,-4.0873,-4.1539,-4.2207,-4.2109,-4.1875,-4.1777,-4.1582,-4.1641,-4.1758,-4.166,-4.1348,-4.1328,-4.2031,-4.2246,-4.2402,-4.2812,-4.3203,-4.3262,-4.3848,-4.4922,-4.5254,-4.5293,-4.5449,-4.5488,-4.5683,-4.5898,-4.6094,-4.6289,-4.6289,-4.6289,-4.6289,-4.6289,-4.6289,-4.6289,-4.6269,-4.623,-4.6192,-4.6095,-4.6003,-4.5877,-2.3858,-2.5687,-2.6931,-2.755,-2.756,-2.756,-2.756,-2.7625,-2.7625,-2.764,-2.7876,-2.9434,-2.9703,-3.0044,-3.0505,-3.1399,-3.1958,-3.2114,-3.2553,-3.2807,-3.2908,-3.3039,-3.3155,-3.3301,-3.3855,-3.4601,-3.5455,-3.619,-3.686,-3.6829,-3.6877,-3.7264,-3.7456,-3.7514,-3.7496,-3.7514,-3.7606,-3.7441,-3.7129,-3.6541,-3.6927,-3.7551,-3.7507,-3.72,-3.6712,-3.6136,-3.5857,-3.5991,-3.6654,-3.7995,-3.9279,-4.0011,-4.0373,-4.0489,-4.0489,-4.0489,-4.0489,-4.0489,-4.0489,-4.0489,-4.0489,-4.0489,-4.0489,-4.0489,-4.0489,-4.0489,-4.0489,-4.0489,-4.0489,-4.0489,-4.0489,-4.0489,-4.0489,-4.062,-4.0839,-4.1163,-4.2104,-4.293,-4.2676,-4.2363,-4.209,-4.1855,-4.1836,-4.1992,-4.1973,-4.166,-4.1973,-4.2754,-4.334,-4.3437,-4.3672,-4.4219,-4.4551,-4.5312,-4.6074,-4.6016,-4.5859,-4.5937,-4.5937,-4.6152,-4.6289,-4.6289,-4.6289,-4.6289,-4.6289,-4.6289,-4.6289,-4.6289,-4.6289,-4.6289,-4.6269,-4.623,-4.6191,-4.6099,-4.6002,-2.3844,-2.5674,-2.6467,-2.7066,-2.75,-2.7545,-2.756,-2.756,-2.753,-2.756,-2.764,-2.7881,-2.8491,-2.939,-2.9592,-3.0326,-3.1345,-3.1472,-3.1444,-3.1596,-3.1901,-3.2145,-3.2406,-3.27,-3.338,-3.4084,-3.4763,-3.5331,-3.5905,-3.6032,-3.6167,-3.6473,-3.7261,-3.7404,-3.7404,-3.7386,-3.7276,-3.6964,-3.6505,-3.5991,-3.6119,-3.6395,-3.6119,-3.5781,-3.5386,-3.5399,-3.5498,-3.5581,-3.6807,-3.8309,-3.967,-4.0268,-4.0489,-4.0489,-4.0489,-4.0489,-4.0489,-4.0489,-4.0489,-4.0489,-4.0489,-4.0489,-4.0489,-4.0489,-4.0489,-4.0489,-4.0489,-4.0489,-4.0489,-4.0489,-4.0489,-4.0489,-4.0508,-4.0812,-4.1065,-4.1594,-4.2334,-4.2637,-4.2637,-4.2285,-4.1953,-4.168,-4.1406,-4.1719,-4.2148,-4.2031,-4.2324,-4.3086,-4.375,-4.4121,-4.4492,-4.5039,-4.5586,-4.5898,-4.625,-4.623,-4.6152,-4.625,-4.6289,-4.6289,-4.6289,-4.6289,-4.6289,-4.6289,-4.6289,-4.6289,-4.6289,-4.6289,-4.6289,-4.6289,-4.6289,-4.6269,-4.623,-4.6179,-4.6063]}]]